[[{"header":{"parameterUnit":"m.s-1","parameterCategory":1,"la1":30.6,"la2":29.2853,"lo1":-89.7004,"lo2":-87.6739,"dy":0.0162,"dx":0.0183,"nx":112,"ny":82,"refTime":"2023-09-05T12:00:00:Z","depth":0,"parameterNumber":2,"parameterNumberName":"U-component_of_WINDS"},"data":[0.0,0.0,0.0,0.0,0.0,0.0,0.0,0.0,0.0,0.0,0.0,0.0,0.0,0.0,0.0,0.0,0.0,0.0,0.0,0.0,0.0,0.0,0.0,0.0,0.0,0.0,0.0,0.0,0.0,0.0,0.0,0.0,0.0,0.0,0.0,0.0,0.0,0.0,0.0,0.0,0.0,0.0,0.0,0.0,0.0,0.0,0.0,0.0,0.0,0.0,0.0,0.0,0.0,0.0,0.0,0.0,0.0,0.0,0.0,0.0,0.0,0.0,0.0,0.0,0.0,0.0,0.0,0.0,0.0,0.0,0.0,0.0,0.0,0.0,0.0,0.0,0.0,0.0,0.0,0.0,0.0,0.0,0.0,0.0,0.0,0.0,0.0,0.0,0.0,0.0,-1.8481,-1.8676,-1.9072,-1.9238,-1.9102,-1.8369,-1.7549,-1.6648,0.0,0.0,0.0,0.0,0.0,0.0,0.0,0.0,0.0,0.0,0.0,0.0,0.0,0.0,0.0,0.0,0.0,0.0,0.0,0.0,0.0,0.0,0.0,0.0,0.0,0.0,0.0,0.0,0.0,0.0,0.0,0.0,0.0,0.0,0.0,0.0,0.0,0.0,0.0,0.0,0.0,0.0,0.0,0.0,0.0,0.0,0.0,0.0,0.0,0.0,0.0,0.0,0.0,0.0,0.0,0.0,0.0,0.0,0.0,0.0,0.0,0.0,0.0,0.0,0.0,0.0,0.0,0.0,0.0,0.0,0.0,0.0,0.0,0.0,0.0,0.0,0.0,0.0,0.0,0.0,0.0,0.0,0.0,0.0,0.0,0.0,0.0,0.0,0.0,0.0,0.0,0.0,0.0,0.0,0.0,0.0,0.0,0.0,0.0,0.0,0.0,0.0,0.0,0.0,-1.7988,-1.9072,-1.9248,-1.8994,-1.8262,-1.7764,-1.7132,-1.6251,0.0,0.0,0.0,0.0,0.0,0.0,0.0,0.0,0.0,0.0,0.0,0.0,0.0,0.0,0.0,0.0,0.0,0.0,0.0,0.0,0.0,0.0,0.0,0.0,0.0,0.0,0.0,0.0,0.0,0.0,0.0,0.0,0.0,0.0,0.0,0.0,0.0,0.0,0.0,0.0,0.0,0.0,0.0,0.0,0.0,0.0,0.0,0.0,0.0,0.0,0.0,0.0,0.0,0.0,0.0,0.0,0.0,0.0,0.0,0.0,0.0,0.0,0.0,0.0,0.0,0.0,0.0,0.0,0.0,0.0,0.0,0.0,0.0,0.0,0.0,0.0,0.0,0.0,0.0,0.0,0.0,0.0,0.0,0.0,0.0,0.0,0.0,0.0,0.0,0.0,0.0,0.0,0.0,0.0,0.0,0.0,0.0,0.0,0.0,0.0,0.0,0.0,0.0,-1.7959,-1.8379,-1.9199,-1.9072,-1.8779,-1.8344,-1.7506,-1.7005,-1.7032,-1.6365,0.0,0.0,0.0,0.0,0.0,0.0,0.0,0.0,0.0,0.0,0.0,0.0,0.0,0.0,0.0,0.0,0.0,0.0,0.0,0.0,0.0,0.0,0.0,0.0,0.0,0.0,0.0,0.0,0.0,0.0,0.0,0.0,0.0,0.0,0.0,0.0,0.0,0.0,0.0,0.0,0.0,0.0,0.0,0.0,0.0,0.0,0.0,0.0,0.0,0.0,0.0,0.0,0.0,0.0,0.0,0.0,0.0,0.0,0.0,0.0,0.0,0.0,0.0,0.0,0.0,0.0,0.0,0.0,0.0,0.0,0.0,0.0,0.0,0.0,0.0,0.0,0.0,0.0,0.0,0.0,0.0,0.0,0.0,0.0,0.0,0.0,0.0,0.0,0.0,0.0,0.0,0.0,0.0,0.0,0.0,0.0,0.0,0.0,0.0,0.0,0.0,0.0,-1.8744,-1.8763,-1.9238,-1.8809,-1.8373,-1.8169,-1.7067,-1.6623,-1.7205,-1.5998,0.0,0.0,0.0,0.0,0.0,0.0,0.0,0.0,0.0,0.0,0.0,0.0,0.0,0.0,0.0,0.0,0.0,0.0,0.0,0.0,0.0,0.0,0.0,0.0,0.0,0.0,0.0,0.0,0.0,0.0,0.0,0.0,0.0,0.0,0.0,0.0,0.0,0.0,0.0,0.0,0.0,0.0,0.0,0.0,0.0,0.0,0.0,0.0,0.0,0.0,0.0,0.0,0.0,0.0,0.0,0.0,0.0,0.0,0.0,0.0,0.0,0.0,0.0,0.0,0.0,0.0,0.0,0.0,0.0,0.0,0.0,0.0,0.0,0.0,0.0,0.0,0.0,0.0,0.0,0.0,0.0,0.0,0.0,0.0,0.0,0.0,0.0,0.0,0.0,0.0,0.0,0.0,0.0,0.0,0.0,0.0,0.0,0.0,0.0,0.0,0.0,0.0,-1.8383,-1.8763,-1.9238,-1.8555,-1.7701,-1.6902,-1.6005,-1.5508,-1.5557,-1.5107,0.0,0.0,0.0,0.0,0.0,0.0,0.0,0.0,0.0,0.0,0.0,0.0,0.0,0.0,0.0,0.0,0.0,0.0,0.0,0.0,0.0,0.0,0.0,0.0,0.0,0.0,0.0,0.0,0.0,0.0,0.0,0.0,0.0,0.0,0.0,0.0,0.0,0.0,0.0,0.0,0.0,0.0,0.0,0.0,0.0,0.0,0.0,0.0,0.0,0.0,0.0,0.0,0.0,0.0,0.0,0.0,0.0,0.0,0.0,0.0,0.0,0.0,0.0,0.0,0.0,0.0,0.0,0.0,0.0,0.0,0.0,0.0,0.0,0.0,0.0,0.0,0.0,0.0,0.0,0.0,0.0,0.0,0.0,0.0,0.0,0.0,0.0,0.0,0.0,0.0,0.0,0.0,0.0,0.0,0.0,0.0,0.0,0.0,0.0,0.0,0.0,0.0,-1.851,-1.8763,0.0,-1.8291,-1.749,-1.7168,-1.6074,-1.5722,-1.6472,0.0,0.0,0.0,0.0,0.0,0.0,0.0,0.0,0.0,0.0,0.0,0.0,0.0,0.0,0.0,0.0,0.0,0.0,0.0,0.0,0.0,0.0,0.0,0.0,0.0,0.0,0.0,0.0,0.0,0.0,0.0,0.0,0.0,0.0,0.0,0.0,0.0,0.0,0.0,0.0,0.0,0.0,0.0,0.0,0.0,0.0,0.0,0.0,0.0,0.0,0.0,0.0,0.0,0.0,0.0,0.0,0.0,0.0,0.0,0.0,0.0,0.0,0.0,0.0,0.0,0.0,0.0,0.0,0.0,0.0,0.0,0.0,0.0,0.0,0.0,0.0,0.0,0.0,0.0,0.0,0.0,0.0,0.0,0.0,0.0,0.0,0.0,0.0,0.0,0.0,0.0,0.0,0.0,0.0,0.0,0.0,0.0,0.0,0.0,0.0,0.0,0.0,-1.849,-1.8598,-1.8763,0.0,-1.8018,-1.7178,-1.7178,-1.584,-1.5445,-1.6551,0.0,0.0,0.0,0.0,0.0,0.0,0.0,0.0,0.0,0.0,0.0,0.0,0.0,0.0,0.0,0.0,0.0,0.0,0.0,0.0,0.0,0.0,0.0,0.0,0.0,0.0,0.0,0.0,0.0,0.0,0.0,0.0,0.0,0.0,0.0,0.0,0.0,0.0,0.0,0.0,0.0,0.0,0.0,0.0,0.0,0.0,0.0,0.0,0.0,0.0,0.0,0.0,0.0,0.0,0.0,0.0,0.0,0.0,0.0,0.0,0.0,0.0,0.0,0.0,0.0,0.0,0.0,0.0,0.0,0.0,0.0,0.0,0.0,0.0,0.0,0.0,0.0,0.0,0.0,0.0,0.0,0.0,0.0,0.0,0.0,0.0,0.0,0.0,0.0,0.0,0.0,0.0,0.0,0.0,0.0,0.0,0.0,0.0,0.0,0.0,0.0,0.0,-1.85,-1.8607,-1.8773,-1.9238,-1.7754,-1.6697,-1.6697,-1.5108,-1.4475,0.0,0.0,0.0,0.0,0.0,0.0,0.0,0.0,0.0,0.0,0.0,0.0,0.0,0.0,0.0,0.0,0.0,0.0,0.0,0.0,0.0,0.0,0.0,0.0,0.0,0.0,0.0,0.0,0.0,0.0,0.0,0.0,0.0,0.0,0.0,0.0,0.0,0.0,0.0,0.0,0.0,0.0,0.0,0.0,0.0,0.0,0.0,0.0,0.0,0.0,0.0,0.0,0.0,0.0,0.0,0.0,0.0,0.0,0.0,0.0,0.0,0.0,0.0,0.0,0.0,0.0,0.0,0.0,0.0,0.0,0.0,0.0,0.0,0.0,0.0,0.0,0.0,0.0,0.0,0.0,0.0,0.0,0.0,0.0,0.0,0.0,0.0,0.0,0.0,0.0,0.0,0.0,0.0,0.0,0.0,0.0,0.0,0.0,0.0,0.0,0.0,0.0,0.0,-1.8984,-1.9092,-1.915,-1.9277,-1.7754,-1.6697,-1.6697,-1.5108,-1.4475,-1.5332,0.0,0.0,0.0,0.0,0.0,0.0,0.0,0.0,0.0,0.0,0.0,0.0,0.0,0.0,0.0,0.0,0.0,0.0,0.0,0.0,0.0,0.0,0.0,0.0,0.0,0.0,0.0,0.0,0.0,0.0,0.0,0.0,0.0,0.0,0.0,0.0,0.0,0.0,0.0,0.0,0.0,0.0,0.0,0.0,0.0,0.0,0.0,0.0,0.0,0.0,0.0,0.0,0.0,0.0,0.0,0.0,0.0,0.0,0.0,0.0,0.0,0.0,0.0,0.0,0.0,0.0,0.0,0.0,0.0,0.0,0.0,0.0,0.0,0.0,0.0,0.0,0.0,0.0,0.0,0.0,0.0,0.0,0.0,0.0,0.0,0.0,0.0,0.0,0.0,0.0,0.0,0.0,0.0,0.0,0.0,0.0,0.0,0.0,0.0,0.0,0.0,0.0,-1.918,-1.9287,-1.9219,-1.9043,-1.7613,-1.6629,-1.6484,-1.5195,-1.4582,-1.5127,0.0,0.0,0.0,0.0,0.0,0.0,0.0,0.0,0.0,0.0,0.0,0.0,0.0,0.0,0.0,0.0,0.0,0.0,0.0,0.0,0.0,0.0,0.0,0.0,0.0,0.0,0.0,0.0,0.0,0.0,0.0,0.0,0.0,0.0,0.0,0.0,0.0,0.0,0.0,0.0,0.0,0.0,0.0,0.0,0.0,0.0,0.0,0.0,0.0,0.0,0.0,0.0,0.0,0.0,0.0,0.0,0.0,0.0,0.0,0.0,0.0,0.0,0.0,0.0,0.0,0.0,0.0,0.0,0.0,0.0,0.0,0.0,0.0,0.0,0.0,0.0,0.0,0.0,0.0,0.0,0.0,0.0,0.0,0.0,0.0,0.0,0.0,0.0,0.0,0.0,0.0,0.0,0.0,0.0,0.0,0.0,0.0,0.0,0.0,0.0,0.0,0.0,-1.9238,-1.9307,-1.9131,-1.8705,-1.7486,-1.6562,-1.6193,-1.5332,-1.4833,-1.4844,0.0,0.0,0.0,0.0,0.0,0.0,0.0,0.0,0.0,0.0,0.0,0.0,0.0,0.0,0.0,0.0,0.0,0.0,0.0,0.0,0.0,0.0,0.0,0.0,0.0,0.0,0.0,0.0,0.0,0.0,0.0,0.0,0.0,0.0,0.0,0.0,0.0,0.0,0.0,0.0,0.0,0.0,0.0,0.0,0.0,0.0,0.0,0.0,0.0,0.0,0.0,0.0,0.0,0.0,0.0,0.0,0.0,0.0,0.0,0.0,-2.6539,0.0,0.0,0.0,0.0,0.0,0.0,0.0,0.0,0.0,0.0,0.0,0.0,0.0,0.0,0.0,0.0,0.0,0.0,0.0,0.0,0.0,0.0,0.0,0.0,0.0,0.0,0.0,0.0,0.0,0.0,0.0,0.0,0.0,0.0,0.0,0.0,0.0,0.0,0.0,0.0,0.0,-1.9668,-1.9492,-1.9248,-1.916,-1.7672,-1.6668,-1.657,-1.5478,-1.4932,-1.5254,-1.513,0.0,0.0,0.0,0.0,0.0,0.0,0.0,0.0,0.0,0.0,0.0,0.0,0.0,0.0,0.0,0.0,0.0,0.0,0.0,0.0,0.0,0.0,0.0,0.0,0.0,0.0,0.0,0.0,0.0,0.0,0.0,0.0,0.0,0.0,0.0,0.0,0.0,0.0,0.0,0.0,0.0,0.0,0.0,0.0,0.0,0.0,0.0,0.0,0.0,0.0,0.0,0.0,0.0,0.0,0.0,0.0,0.0,0.0,0.0,0.0,-2.6749,0.0,0.0,0.0,0.0,0.0,0.0,0.0,0.0,0.0,0.0,0.0,0.0,0.0,0.0,0.0,0.0,0.0,0.0,0.0,0.0,0.0,0.0,0.0,0.0,0.0,0.0,0.0,0.0,0.0,0.0,0.0,0.0,0.0,0.0,0.0,0.0,0.0,0.0,0.0,0.0,-1.9805,-1.9551,-1.9209,-1.8994,-1.7822,-1.6875,-1.6445,-1.5821,-1.5351,-1.5117,-1.5098,0.0,0.0,0.0,0.0,0.0,0.0,0.0,0.0,0.0,0.0,0.0,0.0,0.0,0.0,0.0,0.0,0.0,0.0,0.0,0.0,0.0,0.0,0.0,0.0,0.0,0.0,0.0,0.0,0.0,0.0,0.0,0.0,0.0,0.0,0.0,0.0,0.0,0.0,0.0,0.0,0.0,0.0,0.0,0.0,0.0,0.0,0.0,0.0,0.0,0.0,0.0,0.0,0.0,-2.4689,-2.4537,-2.5691,-2.4892,-2.452,-2.4497,-2.5912,-2.668,-2.6945,-2.5977,0.0,0.0,0.0,0.0,0.0,0.0,0.0,0.0,0.0,0.0,0.0,0.0,0.0,0.0,0.0,0.0,0.0,0.0,0.0,0.0,0.0,0.0,0.0,0.0,-2.5749,-2.557,0.0,0.0,0.0,0.0,0.0,0.0,0.0,0.0,0.0,0.0,0.0,0.0,-1.9824,-1.9609,-1.9228,-1.8763,-1.7998,-1.7139,-1.629,-1.6134,-1.5762,-1.4951,-1.5215,-1.538,0.0,0.0,0.0,0.0,0.0,0.0,0.0,0.0,0.0,0.0,0.0,0.0,0.0,0.0,0.0,0.0,0.0,0.0,0.0,0.0,0.0,0.0,0.0,0.0,0.0,0.0,0.0,0.0,0.0,0.0,0.0,0.0,-2.7736,-2.8112,0.0,0.0,0.0,0.0,0.0,0.0,0.0,0.0,0.0,0.0,0.0,0.0,0.0,-2.613,-2.5425,-2.5759,-2.6214,-2.6802,-2.7019,-2.7041,-2.6861,-2.6738,-2.649,-2.6181,-2.6397,0.0,-2.579,-2.5647,0.0,0.0,0.0,0.0,0.0,0.0,0.0,0.0,0.0,0.0,0.0,0.0,0.0,0.0,0.0,0.0,0.0,0.0,0.0,0.0,0.0,0.0,-2.6766,-2.6461,-2.6386,-2.6357,0.0,-2.5837,-2.5066,-2.3583,-2.2052,0.0,0.0,0.0,0.0,0.0,0.0,0.0,-1.9902,-1.9863,-1.9668,-1.9248,-1.8437,-1.7578,-1.6687,-1.6289,-1.588,-1.5361,-1.5381,-1.6068,-1.7509,-1.7188,0.0,0.0,0.0,0.0,0.0,0.0,0.0,0.0,0.0,0.0,0.0,0.0,0.0,0.0,0.0,0.0,0.0,0.0,0.0,0.0,0.0,0.0,0.0,0.0,0.0,0.0,0.0,0.0,0.0,-2.7866,-2.8241,-2.7866,-2.7338,-2.6892,0.0,0.0,0.0,0.0,0.0,0.0,0.0,0.0,0.0,-2.5558,-2.6242,-2.6531,-2.6238,-2.6141,-2.6322,-2.6783,-2.6148,-2.5889,-2.5951,-2.5692,-2.5373,-2.4991,-2.4991,-2.503,-2.5185,-2.5469,-2.5862,-2.62,0.0,0.0,0.0,0.0,-2.6399,-2.6542,-2.6882,-2.6505,0.0,-2.5781,0.0,0.0,0.0,0.0,0.0,0.0,0.0,0.0,0.0,0.0,0.0,-2.7833,-2.7607,-2.7557,-2.8234,-2.7186,-2.5682,0.0,-2.2865,-2.1767,-2.1114,0.0,0.0,0.0,0.0,-1.9736,-2.0215,-2.0068,-1.9756,-1.9336,-1.873,-1.7983,-1.7168,-1.6699,-1.6357,-1.6132,-1.6377,-1.6955,-1.7964,-1.8455,-1.9312,0.0,0.0,0.0,0.0,0.0,0.0,0.0,0.0,0.0,0.0,0.0,0.0,0.0,0.0,0.0,0.0,0.0,0.0,0.0,0.0,0.0,0.0,0.0,0.0,0.0,0.0,0.0,0.0,-2.875,-2.895,-2.7833,-2.8436,-2.85,0.0,0.0,0.0,0.0,0.0,0.0,-2.6243,-2.6341,-2.6314,-2.6012,-2.6769,-2.6997,-2.6581,-2.6316,-2.6254,-2.6412,-2.5268,-2.4863,-2.5106,-2.4727,-2.4355,-2.3945,-2.3838,-2.4072,-2.4592,-2.4999,-2.5216,-2.5233,-2.506,-2.5093,-2.5266,-2.5512,-2.5893,-2.6348,-2.7034,-2.6905,-2.6447,-2.6324,0.0,-2.5958,-2.54,0.0,0.0,0.0,0.0,-2.6178,-2.7876,-2.831,-2.8448,-2.8976,-2.8837,-2.8775,-2.9616,-2.8287,-2.6425,0.0,-2.349,-2.2416,-2.1693,0.0,0.0,0.0,0.0,-1.9881,-2.0527,-2.0283,-1.9922,-1.9492,-1.9062,-1.8457,-1.7617,-1.7148,-1.6909,-1.7044,-1.7367,-1.7929,-1.8777,-1.9598,-2.0547,-2.1656,0.0,0.0,0.0,0.0,0.0,0.0,0.0,0.0,0.0,0.0,0.0,0.0,0.0,0.0,0.0,0.0,0.0,0.0,0.0,0.0,0.0,0.0,0.0,0.0,0.0,0.0,0.0,0.0,0.0,-2.8938,-3.0256,0.0,0.0,0.0,0.0,-2.8726,-2.8037,-2.7876,-2.8411,-2.7725,-2.6839,-2.5741,-2.7173,-2.7242,-2.578,-2.6173,-2.6182,-2.5742,-2.5674,-2.5459,-2.5116,-2.5096,-2.4795,-2.4365,-2.3965,-2.3824,-2.386,-2.4019,-2.499,-2.636,-2.5786,-2.5898,-2.6349,-2.5797,-2.5619,-2.5581,-2.5116,-2.4609,-2.4352,-2.5318,-2.6373,-2.737,-2.835,-2.8298,0.0,0.0,-2.7936,-2.8086,-2.87,-2.885,-2.9001,-2.9616,-2.9729,-2.9729,-2.9779,-2.8861,-2.7466,0.0,-2.3482,-2.1756,-2.0807,0.0,-2.0,-2.0536,-2.0585,-2.0556,-2.0595,-2.0586,-2.04,-1.9932,-1.9502,-1.8906,-1.8047,-1.7598,-1.7546,-1.7904,-1.7975,-1.8879,-2.0961,-2.0593,-2.1202,-2.2985,-2.2485,0.0,0.0,0.0,0.0,0.0,0.0,0.0,0.0,0.0,0.0,0.0,0.0,0.0,0.0,0.0,0.0,0.0,0.0,0.0,0.0,0.0,0.0,0.0,0.0,0.0,0.0,0.0,0.0,-2.9766,-3.0513,0.0,-2.8403,-2.8537,-2.8532,-2.7951,-2.7882,-2.7673,-2.7215,-2.7178,-2.6943,-2.6562,-2.7082,-2.7092,-2.6562,-2.6445,-2.6309,-2.6152,-2.582,-2.5606,-2.5498,-2.5498,-2.5254,-2.4824,-2.4678,-2.494,-2.532,-2.4297,-2.4061,-2.4296,-2.4089,-2.412,-2.4286,-2.4079,-2.4472,-2.5057,-2.4886,-2.4673,-2.4598,-2.4972,-2.5846,-2.678,-2.6866,-2.6993,-2.7223,-2.7588,-2.7723,-2.7971,-2.9174,-2.9478,-2.9528,-2.9741,-2.9503,-2.934,-2.9716,-2.8629,-2.7494,-2.7116,-2.5068,-2.2967,-2.1657,-2.1055,-2.0908,-2.1348,-2.0967,-2.0713,-2.0957,-2.0498,-1.998,-1.9561,-1.9121,-1.8633,-1.8057,-1.8127,-1.8359,-1.8805,-1.9618,-2.0521,-2.1611,-2.197,-2.2457,-2.3095,-2.2556,-2.2456,0.0,0.0,0.0,0.0,0.0,0.0,0.0,0.0,0.0,0.0,0.0,0.0,0.0,0.0,0.0,0.0,0.0,0.0,0.0,0.0,0.0,0.0,0.0,0.0,0.0,-3.0579,-3.1121,-2.9579,-3.0605,-3.0648,-2.8661,-2.9063,-2.9226,-2.8652,-2.8661,-2.8478,-2.7974,-2.7621,-2.7441,-2.7441,-2.7441,-2.7305,-2.7012,-2.6738,-2.6455,-2.6162,-2.583,-2.5693,-2.5693,-2.5693,-2.5528,-2.5331,-2.559,-2.576,-2.5838,-2.484,-2.3994,-2.334,-2.3567,-2.3681,-2.3714,-2.4102,-2.4723,-2.5336,-2.4914,-2.4542,-2.4296,-2.466,-2.5319,-2.5961,-2.601,-2.6262,-2.6734,-2.7489,-2.7702,-2.8032,-2.9434,-2.9792,-2.9702,-2.9326,-2.9196,-2.92,-2.924,-2.8655,-2.8135,-2.8116,-2.6395,-2.4489,-2.2929,-2.2281,-2.2019,-2.2073,-2.1271,-2.082,-2.1377,-2.0684,-2.0019,-1.9783,-1.9326,-1.8994,-1.8874,-1.9153,-1.9595,-2.0139,-2.0977,-2.1704,-2.2267,-2.265,-2.292,-2.3108,-2.2744,-2.2744,-2.3108,0.0,0.0,0.0,0.0,0.0,0.0,0.0,0.0,0.0,0.0,0.0,0.0,0.0,0.0,0.0,0.0,0.0,0.0,0.0,0.0,0.0,0.0,0.0,-2.7952,-2.9479,-3.0086,-2.8494,-3.0592,-3.1029,-2.8128,-3.0346,-3.1668,-3.101,-3.0454,-3.0391,-3.101,-2.9373,-2.8417,-2.8461,-2.8354,-2.7891,-2.7112,-2.7031,-2.6602,-2.5732,-2.5703,-2.5693,-2.5693,-2.5693,-2.5693,-2.5761,-2.651,-2.6233,-2.5208,-2.5454,-2.4907,-2.3939,-2.4524,-2.4745,-2.4872,-2.6016,-2.6431,-2.6265,-2.5126,-2.4006,-2.3256,-2.4372,-2.4787,-2.4999,-2.6099,-2.6524,-2.676,-2.7804,-2.8136,-2.8426,-2.9495,-2.9753,-2.9495,-2.8426,-2.8964,-2.9431,-2.8386,-2.9015,-2.9431,-2.8374,-2.7331,-2.611,-2.4519,-2.3849,-2.3267,-2.2643,-2.1466,0.0,-2.1777,-2.1153,-2.0605,-2.0644,-2.0214,-2.0135,-2.063,-2.079,-2.118,-2.1867,-2.192,-2.2292,-2.3078,-2.2594,-2.2556,-2.3095,-2.3108,-2.3108,-2.3133,0.0,0.0,0.0,0.0,0.0,0.0,0.0,0.0,0.0,0.0,0.0,0.0,0.0,0.0,0.0,0.0,0.0,0.0,0.0,0.0,0.0,-2.959,-3.0197,-2.9811,-3.053,-3.0861,-3.0181,-3.1084,-3.105,-2.9286,-2.9792,-3.0162,-3.0028,-3.0815,-3.1431,-3.1568,-3.0817,-3.0821,-3.1817,-2.9528,-2.8632,-2.9394,-2.7809,-2.6894,-2.665,-2.5986,-2.5693,-2.5693,-2.5693,-2.5693,-2.5732,-2.5933,-2.639,-2.682,-2.5309,-2.5073,-2.5475,-2.4102,-2.3551,-2.3714,-2.484,-2.5252,-2.5083,-2.3963,-2.3343,-2.3135,-2.3464,-2.4135,-2.4872,-2.5168,-2.6408,-2.7723,-2.8004,-2.8688,-2.9404,-2.9702,-2.9197,-2.8688,-2.9197,-2.8643,-2.8215,-2.9149,-2.9248,-2.9163,-2.933,-2.9079,-2.8124,-2.565,-2.4191,-2.3408,-2.3535,-2.2429,0.0,-2.1855,-2.1153,-2.0905,-2.168,-2.1379,-2.1496,-2.2338,-2.2605,-2.2674,-2.2484,-2.2665,-2.2884,-2.3078,-2.2957,-2.2945,-2.3108,-2.3108,-2.3308,0.0,0.0,0.0,0.0,0.0,0.0,0.0,0.0,0.0,0.0,0.0,0.0,0.0,0.0,0.0,0.0,0.0,0.0,0.0,0.0,0.0,0.0,-3.1281,-3.1957,-3.2185,-3.1119,-3.0308,-3.0316,-3.1278,-3.1657,-3.0858,-3.1511,-3.2003,-3.2003,-3.2584,-3.2857,-3.2663,-3.2435,-3.2466,-3.279,-3.0653,-2.9668,-3.0034,-2.8234,-2.7197,-2.7012,-2.6338,-2.6006,-2.6006,-2.5771,-2.5693,0.0,-2.6245,-2.662,-2.673,-2.5629,-2.5336,0.0,0.0,0.0,0.0,0.0,-2.6794,-2.6025,-2.4925,-2.4221,-2.3714,-2.3266,-2.3551,-2.4082,-2.4082,-2.4999,-2.6108,-2.6562,-2.7186,-2.7827,-2.8291,-2.7919,-2.7614,-2.8251,-2.8,-2.7885,-2.8876,-2.9195,-2.939,-2.9729,-2.9591,0.0,-2.7254,-2.5688,-2.4601,-2.4387,-2.3524,-2.2995,-2.3192,-2.2814,-2.2668,-2.3026,-2.2879,-2.2955,-2.3502,-2.3695,0.0,0.0,0.0,-2.2995,-2.2769,-2.2982,0.0,0.0,0.0,-2.3747,-2.4343,0.0,0.0,0.0,-2.4732,-2.4456,0.0,0.0,0.0,0.0,0.0,0.0,0.0,0.0,0.0,0.0,0.0,0.0,0.0,0.0,0.0,0.0,-3.3707,-3.3974,-3.4584,-3.1703,-2.9684,-3.0127,-3.1688,-3.2704,-3.2651,-3.4285,-3.5288,-3.5288,-3.5102,-3.4705,-3.4264,0.0,0.0,0.0,0.0,-3.0892,-3.0226,-2.8684,-2.772,-2.7275,-2.6761,-2.6455,-2.6445,-2.6143,-2.5898,-2.5849,-2.7051,-2.6897,-2.5712,-2.5987,-2.5365,-2.4281,-2.4648,-2.5912,-2.7706,-2.948,-2.9272,-2.7936,-2.6883,0.0,0.0,-2.3681,-2.3299,-2.3256,-2.3135,-2.3178,-2.3507,-2.45,-2.4872,-2.521,-2.6224,-2.6524,-2.6524,-2.6637,-2.7366,-2.8064,-2.8243,-2.9018,-2.9716,-2.9779,-2.9377,-2.8963,-2.89,-2.7628,-2.6262,-2.5244,-2.4729,-2.4617,-2.5027,-2.5155,-2.5029,-2.4604,0.0,0.0,-2.4551,-2.4489,-2.4384,-2.4179,-2.3547,-2.2957,-2.2393,-2.2907,-2.3446,-2.3991,-2.4054,-2.4356,-2.4876,-2.4876,-2.5184,-2.5686,-2.5159,-2.4677,0.0,0.0,0.0,0.0,0.0,0.0,0.0,0.0,0.0,0.0,0.0,0.0,0.0,0.0,0.0,-3.4029,-3.4897,-3.5411,-3.5204,-3.4194,-3.355,-3.3638,-3.4306,-3.4603,-3.4204,-3.4833,-3.5288,-3.5288,-3.6341,-3.6891,-3.6785,-3.6036,-3.6016,-3.6862,-3.3761,-3.2549,-3.3473,-3.0727,-2.9259,-2.9165,0.0,0.0,-2.6875,-2.7437,-2.7195,-2.629,-2.7195,-2.6897,-2.5664,-2.5046,-2.423,-2.3457,-2.4401,-2.6364,-2.8492,-2.7591,-2.7626,-2.7936,-2.6883,-2.6348,-2.5975,-2.484,-2.4457,-2.4296,-2.3387,-2.3757,0.0,-2.4745,-2.5462,-2.6224,-2.6431,-2.6524,-2.6719,-2.7562,-2.7605,-2.7831,-2.9188,-2.9262,-2.9239,-2.9704,-2.9704,-2.9478,-2.8963,-2.7628,-2.6669,-2.6776,-2.605,-2.5526,-2.5615,-2.5279,-2.5347,-2.6071,-2.5769,-2.5816,-2.6638,-2.6298,-2.5831,-2.5322,-2.4368,-2.3547,-2.297,-2.3496,-2.3891,-2.4004,-2.4431,-2.4921,-2.5448,-2.5448,-2.5737,-2.6311,-2.5711,-2.5219,0.0,0.0,0.0,0.0,0.0,0.0,0.0,0.0,0.0,0.0,0.0,-3.1509,-3.2605,0.0,-3.5771,-3.6468,-3.708,-3.7436,-3.7488,-3.7316,-3.6608,-3.5136,-3.5785,-3.6329,-3.6075,-3.695,-3.7489,-3.7489,-3.819,-3.846,-3.8191,-3.7974,-3.7763,-3.7626,-3.5354,-3.39,-3.3365,-3.1099,-2.9683,-2.8978,-2.7893,-2.7344,-2.7376,-2.7522,-2.7152,-2.6427,-2.6821,-2.6373,-2.5332,-2.4463,-2.4326,-2.4713,-2.4762,-2.597,-2.7701,-2.7701,-2.8213,-2.8779,-2.7695,-2.7279,-2.7116,-2.6005,-2.563,-2.5546,-2.4978,-2.5179,-2.563,-2.563,-2.6058,-2.6524,-2.6524,-2.6524,-2.676,-2.7844,-2.7894,-2.8114,-2.9484,-2.9566,-2.9453,-2.9729,-2.9792,-2.9691,-2.9415,-2.8721,-2.8082,-2.7751,-2.7515,-2.7374,-2.7374,-2.7374,-2.7483,-2.7739,-2.7274,-2.704,-2.727,-2.6549,-2.5799,-2.5247,-2.4707,-2.428,-2.396,-2.4255,-2.4531,-2.4795,-2.5071,-2.5473,-2.6059,-2.6059,-2.621,-2.6487,-2.6197,-2.5937,0.0,0.0,0.0,0.0,0.0,0.0,0.0,-2.8144,-2.8232,-2.9495,-3.0916,-3.2416,-3.4073,-3.5758,-3.7324,-3.8655,-3.9007,-3.9182,-3.9634,-3.9697,-3.8699,-3.6054,-3.7037,-3.7914,-3.7914,-3.9025,-3.9697,-3.9697,-3.9697,-3.9496,-3.9108,-3.9346,-3.8856,-3.7387,-3.6626,-3.5088,-3.2755,-3.1378,-3.0016,-2.8698,-2.8098,-2.7836,-2.7826,-2.7493,-2.7019,-2.6504,-2.6338,-2.5762,-2.4893,-2.4287,-2.4746,-2.5706,-2.4925,-2.5275,-2.6443,-2.7899,-2.873,-2.904,-2.8108,-2.7936,-2.7924,-2.6842,-2.6637,-2.676,-2.6554,-2.6524,-2.6524,-2.6524,-2.6524,-2.6524,-2.6524,-2.6637,-2.7046,-2.7884,-2.8255,-2.8676,-2.9585,-2.9624,-2.9495,-2.9495,-2.9287,-2.917,-2.917,-2.9326,-2.9235,-2.8537,-2.8812,-2.9051,-2.9051,-2.9402,-2.9453,-2.8938,-2.8436,-2.7921,-2.7482,-2.623,-2.5373,-2.5139,-2.4838,-2.4726,-2.48,-2.4888,-2.5172,-2.5586,-2.5711,-2.592,-2.6198,-2.6383,-2.6383,-2.6198,-2.6418,-2.6499,-2.8339,-2.902,-3.0143,-3.1285,-3.0376,-2.9862,0.0,-3.2185,-3.1628,-3.2217,-3.3934,-3.5174,-3.4937,-3.6921,-3.8655,-3.8894,-3.9283,-3.9622,-3.9685,-3.9697,-3.9077,-3.7477,-3.8582,-3.9465,-3.9465,-3.9581,-3.9697,-3.9697,-3.9697,-3.9672,-3.9597,-3.9195,-3.8642,-3.7939,-3.7341,-3.6113,-3.4178,-3.2794,-3.1378,-3.0068,-2.8797,-2.8223,-2.8247,-2.8503,-2.7995,-2.6904,-2.6093,-2.5255,-2.4512,-2.4805,-2.4594,-2.4063,-2.3964,-2.4571,-2.5635,-2.6446,-2.6816,-2.6842,-2.6719,-2.7279,-2.7924,-2.6842,-2.7128,-2.7723,-2.6801,-2.6524,-2.6524,-2.6524,-2.6524,-2.6524,-2.6524,-2.7209,-2.7964,-2.8084,-2.8858,-2.9624,-2.9753,-2.9015,-2.8307,-2.8307,-2.7533,-2.6894,-2.6894,-2.7654,-2.86,-2.95,-2.9654,-2.9691,-2.9691,-2.9302,-2.8963,-2.89,-2.8436,-2.8084,-2.8021,-2.6188,-2.5437,-2.6276,-2.503,-2.442,-2.4781,-2.5259,-2.5536,-2.5598,-2.6135,-2.5998,-2.5158,-2.606,-2.6025,-2.5194,-2.6094,-2.6499,-2.9977,-3.0418,-3.073,-2.9932,-2.9812,-2.9935,-3.0203,-3.0057,-3.0138,-3.1109,-3.2866,-3.461,-3.5742,-3.734,-3.8757,-3.9667,-3.9747,-3.9697,-3.9697,-3.9697,-3.9353,-3.8425,-3.9111,-3.9037,-3.7329,-3.7926,-3.8413,-3.8413,-3.8413,-3.8413,-3.8413,-3.7953,-3.7034,-3.5612,-3.5105,-3.3974,-3.205,-3.1429,-3.0473,-2.9154,-2.8548,-2.8164,-2.7973,-2.8099,-2.761,-2.6592,-2.5459,-2.4902,-2.4775,-2.4453,-2.445,-2.4482,-2.3984,-2.4241,-2.4846,-2.5327,-2.5933,-2.6524,-2.6524,-2.6801,-2.7209,-2.736,-2.7723,-2.8136,-2.8371,-2.8422,-2.8422,-2.8422,-2.8422,-2.8422,-2.8422,-2.874,-2.8937,-2.8255,-2.8466,-2.8648,-2.7999,-2.7504,-2.7168,-2.7168,-2.6801,-2.6524,-2.6524,-2.74,-2.8255,-2.8727,-2.9365,-2.9792,-2.9792,-2.9578,-2.906,-2.8078,-2.7758,-2.7226,-2.6247,-2.5373,-2.4978,-2.5166,-2.4543,-2.416,-2.4038,-2.4831,-2.5241,-2.5241,-2.6086,-2.6138,-2.5336,-2.5781,-2.548,-2.4568,-2.5528,-2.5838,-3.0679,-3.0794,-3.0484,-2.8896,-2.9382,-2.9935,-2.8666,-2.8789,-2.9443,-3.0371,-3.2133,-3.4104,-3.6325,-3.7453,-3.8629,-4.0224,-4.0061,-3.9697,-3.9697,-3.9697,-3.9368,-3.8386,-3.9003,-3.8141,-3.4747,-3.6287,-3.7358,-3.6918,-3.6865,-3.6865,-3.6865,-3.6555,-3.5635,-3.4022,-3.3675,-3.257,-3.0517,-3.0506,-2.9731,-2.8291,-2.8291,-2.8066,-2.7708,-2.7474,-2.6914,-2.6152,-2.5195,-2.4824,-2.4853,-2.4346,-2.4375,-2.4705,-2.4033,-2.3975,-2.4242,-2.4334,-2.4924,-2.5741,-2.56,-2.5853,-2.6318,-2.6987,-2.7591,-2.8255,-2.9067,-2.9534,-2.9792,-2.9792,-2.9792,-2.9792,-2.9792,-2.9573,-2.9106,-2.8307,-2.7884,-2.7452,-2.6678,-2.6265,-2.6016,-2.6016,-2.5766,-2.5641,-2.5975,-2.6953,-2.7775,-2.8044,-2.9067,-2.9792,-2.9792,-2.9792,-2.9283,-2.7898,-2.7478,-2.6855,-2.5802,-2.4892,-2.4453,-2.4564,-2.4189,-2.3919,-2.3865,-2.457,-2.5094,-2.5408,-2.6138,-2.6285,-2.5857,-2.5868,-2.5347,-2.4428,-2.5073,-2.518,-2.9203,-2.8913,-2.8471,-2.9111,-2.9447,-2.9685,-3.0029,-3.0791,-3.1426,-3.1475,-3.3009,-3.4811,-3.6389,-3.7453,-3.8629,-4.0224,-4.0061,-3.9697,-3.9697,-3.9697,-3.8983,-3.7024,-3.8056,-3.7208,-3.2706,-3.5463,-3.6918,-3.5453,-3.5343,-3.5343,-3.5343,-3.5332,-3.5042,-3.4419,-3.4385,-3.3287,-3.1,-3.1,-3.0101,-2.8291,-2.8291,-2.8066,-2.7689,-2.6807,-2.6182,-2.5703,-2.5664,-2.5167,-2.4473,-2.4863,-2.4607,-2.3828,-2.3799,-2.3799,-2.375,-2.3301,-2.3443,-2.3835,-2.3369,-2.4169,-2.5363,-2.5019,-2.6356,-2.8096,-2.8136,-2.8937,-2.9792,-2.9792,-2.9792,-2.9792,-2.9792,-2.8976,-2.8136,-2.8124,-2.7331,-2.6565,-2.6513,-2.563,-2.483,-2.483,-2.3963,-2.3551,-2.466,-2.5797,-2.6883,-2.7924,-2.9067,-2.9792,-2.9792,-2.9792,-2.9566,-2.8913,-2.7914,-2.7501,-2.7961,-2.515,-2.3983,-2.5483,-2.4146,-2.3769,-2.4703,-2.4781,-2.5335,-2.6413,-2.6489,-2.6514,-2.6578,-2.65,-2.5969,-2.4971,-2.4882,-2.4625,-2.9335,-2.9686,-3.0138,-2.9604,-2.9776,-3.0176,-3.0908,-3.1309,-3.1601,-3.1894,-3.2009,-3.254,-3.4158,-3.5146,-3.6286,-3.7936,-3.9327,-4.0111,-3.9747,-4.0011,-3.9592,-3.7802,-3.8366,-3.729,-3.3157,-3.4356,0.0,-3.3935,-3.3856,-3.3856,-3.3856,-3.3555,-3.281,-3.1671,-3.1328,-3.0724,-2.9613,-2.9603,-2.9178,-2.8281,-2.7715,-2.7373,-2.7207,-2.6348,-2.583,-2.5674,-2.543,-2.5127,-2.4834,-2.4697,-2.4463,-2.418,-2.3896,-2.3789,-2.374,-2.3257,-2.3418,-2.3721,-2.3247,-2.3442,-2.3968,-2.4594,-2.5284,-2.6191,-2.7631,-2.8386,-2.8819,-2.9585,-2.9792,-2.9792,-2.9792,-2.8937,-2.7924,-2.7209,-2.6171,-2.5179,-2.4392,-2.393,-2.3681,-2.3681,-2.3963,-2.4339,-2.4745,-2.6326,-2.7947,-2.9067,-2.9534,-2.9792,-2.9792,-2.9792,-2.942,-2.8472,-2.7397,-2.6526,-2.5972,-2.422,-2.3255,-2.3524,-2.3047,-2.2794,-2.2869,-2.3452,-2.4,-2.4355,-2.5789,-2.6308,-2.5937,-2.6663,-2.6157,-2.4484,-2.5076,-2.4733,-3.0077,-3.0356,-3.0747,-2.9998,-3.0127,-3.0596,-3.1162,-3.1406,-3.1553,-3.168,-3.1279,-3.1343,-3.2765,-3.3181,-3.3863,-3.549,-3.7233,-3.8382,-3.8432,-3.9127,-3.9078,-3.7714,-3.7873,-3.6689,-3.3074,-3.3246,-3.3199,-3.2138,-3.2219,-3.2311,-3.2311,-3.2035,-3.1438,-3.0497,-3.0019,-2.959,-2.915,-2.8994,-2.8711,-2.8281,-2.7422,-2.7012,-2.6982,-2.6074,-2.5693,-2.5674,-2.543,-2.5127,-2.4814,-2.4531,-2.4238,-2.389,-2.3662,-2.3555,-2.3525,-2.3198,-2.3276,-2.3516,-2.3188,-2.3198,-2.3428,-2.4013,-2.4457,-2.5083,-2.6479,-2.7186,-2.7775,-2.8858,-2.9197,-2.9275,-2.9702,-2.8937,-2.7936,-2.725,-2.6213,-2.5094,-2.3963,-2.4006,-2.4178,-2.38,-2.4628,-2.5546,-2.59,-2.7481,-2.8819,-2.9145,-2.9197,-2.9123,-2.8926,-2.9073,-2.8824,-2.7913,-2.7377,-2.6625,-2.5504,-2.4382,-2.3431,-2.2754,-2.2691,-2.2617,-2.2344,-2.2914,-2.3412,-2.3813,-2.519,-2.6075,-2.6502,-2.6834,-2.6353,-2.502,-2.5204,-2.442,-3.1385,-3.1045,-3.059,-3.0409,-3.0672,-3.1005,-3.0918,-3.1211,-3.1357,-3.0918,-3.0771,-3.1075,-3.2083,-3.159,-3.1548,-3.3083,-3.4085,-3.5021,-3.6013,-3.7217,-3.7678,-3.6685,-3.65,-3.5347,-3.2432,-3.2187,-3.1661,-3.0309,0.0,-3.0889,-3.0889,-3.0889,-3.0889,-3.0889,-3.0439,-3.0,-2.957,-2.9111,-2.8672,-2.8252,-2.7412,-2.7002,-2.6953,-2.6074,-2.5693,-2.5693,-2.5693,-2.5187,-2.4414,-2.4414,-2.3916,-2.3091,-2.3091,-2.3091,-2.3091,-2.3091,-2.3091,-2.3091,-2.3091,-2.3408,-2.3691,-2.3227,-2.3833,-2.4702,-2.4787,-2.5546,-2.6637,-2.7735,-2.8044,-2.8347,-2.9443,-2.8897,-2.8096,-2.8096,-2.7279,-2.6182,-2.5126,-2.5755,-2.6182,-2.5083,-2.5797,-2.6924,-2.8016,-2.9028,-2.9365,-2.8255,-2.8004,-2.7786,-2.734,-2.7707,-2.7854,-2.7406,-2.7759,-2.7643,-2.6637,-2.5504,-2.4339,-2.3266,-2.3135,-2.3091,-2.3091,-2.3091,-2.3594,-2.4702,-2.4787,-2.5859,-2.8004,-2.7046,-2.6554,-2.6483,-2.5357,-2.3813,-3.408,-3.4574,-3.4623,-3.2822,-3.2437,-3.2346,-3.1505,-3.1201,-3.083,-3.0068,-2.915,-2.8314,-2.757,-2.8971,-3.0361,-3.0748,-3.4503,-3.6938,-3.5688,-3.7074,-3.7405,-3.5249,-3.4956,-3.4113,-3.1946,-3.1999,-3.1661,0.0,-3.0625,-3.0889,-3.0889,-3.0889,-3.0889,-3.0889,-3.0439,-3.0,-2.957,-2.8828,-2.8242,-2.7875,-2.7275,-2.6846,-2.6533,-2.5986,-2.5693,-2.5693,-2.5693,-2.5187,-2.4414,-2.4414,-2.3916,-2.3091,-2.3091,-2.3091,-2.3091,-2.3091,-2.3091,-2.3091,-2.3091,-2.3169,-2.3247,-2.313,-2.3299,-2.3671,-2.4542,-2.4999,-2.5462,-2.6584,-2.7481,-2.8176,-2.8478,-2.8307,-2.8096,-2.8096,-2.7279,-2.6431,-2.6141,-2.6307,-2.6389,-2.6141,-2.6953,-2.8068,-2.9157,-2.8897,-2.8426,-2.8136,-2.6685,-2.5909,-2.6619,-2.6803,-2.7151,-2.7826,-2.7279,-2.7116,-2.7643,-2.59,-2.467,-2.4372,-2.3551,-2.3091,-2.3091,-2.3091,-2.3266,-2.3507,-2.4382,-2.5504,-2.6924,-2.7452,-2.7279,-2.6472,-2.5847,-2.4416,-3.5781,-3.6189,-3.6274,-3.4505,-3.3575,-3.2767,-3.1609,-3.0631,-2.9678,-2.8428,-2.7451,-2.6533,-2.5615,-2.7021,-2.8379,-2.8379,-3.1921,-3.4491,-3.3868,-3.5188,-3.5637,-3.3999,-3.3823,-3.3174,-3.1472,-3.1507,-3.1318,-3.0556,-3.0742,-3.0889,-3.0889,-3.0889,-3.0889,-3.0889,-3.0264,-2.9629,-2.9014,-2.8525,-2.8086,-2.7708,-2.7217,-2.6797,-2.6367,-2.5888,-2.5693,-2.5674,0.0,-2.5049,-2.4404,-2.4219,-2.375,-2.3091,-2.3091,-2.3091,-2.3091,-2.3091,-2.3091,-2.3091,-2.3091,-2.3091,-2.3091,-2.3091,-2.3091,-2.3222,-2.3877,-2.4049,-2.4296,-2.542,-2.6202,-2.6889,-2.7844,-2.8096,-2.8215,-2.8727,-2.841,-2.7799,-2.7331,-2.7585,-2.7971,-2.7971,-2.841,-2.8897,-2.9028,-2.8518,-2.7763,-2.6808,-2.5619,-2.484,-2.4978,-2.5431,-2.6171,-2.7279,-2.7279,-2.725,-2.7412,-2.6254,-2.5136,-2.4125,-2.3464,-2.3091,-2.3091,-2.3091,-2.3091,-2.3091,-2.4211,-2.5378,-2.6524,-2.7087,-2.7087,-2.6472,-2.573,-2.4241,-3.6985,-3.7112,-3.6854,-3.5842,-3.4582,-3.3117,-3.1465,-3.0031,-2.8475,-2.6613,-2.5869,-2.541,-2.4902,-2.5586,-2.6269,-2.6445,-2.8574,-3.059,-3.1537,-3.2728,-3.3345,-3.287,-3.2804,-3.2311,-3.0995,-3.0889,-3.0889,-3.0889,-3.0889,-3.0889,-3.0889,-3.0889,-3.084,-3.0723,-2.9912,-2.9101,-2.8301,-2.8291,-2.8057,-2.7578,-2.7197,-2.6768,-2.6289,-2.585,-2.5635,-2.5664,-2.5205,0.0,-2.4385,-2.3965,-2.3535,-2.3091,-2.3091,-2.3091,-2.3091,-2.3091,-2.3091,-2.3091,-2.3091,-2.3091,-2.3091,-2.3091,-2.3091,-2.3091,-2.3091,-2.3091,-2.3299,-2.4296,-2.466,-2.5284,-2.7348,-2.8004,-2.8386,-2.9534,-2.9792,-2.9534,-2.8557,-2.9106,-2.9792,-2.9792,-2.9663,-2.9275,-2.8255,-2.7844,-2.7012,-2.5073,-2.466,-2.4253,-2.342,-2.4049,-2.4999,-2.6141,-2.7116,-2.736,-2.6565,-2.6348,-2.5431,-2.343,-2.3178,-2.3091,-2.3091,-2.3091,-2.3091,-2.3091,-2.4211,-2.5378,-2.6524,-2.6524,-2.6524,-2.6483,-2.5272,-2.3761,-3.8743,-3.9161,-3.8849,-3.7441,-3.659,-3.5191,-3.1859,-3.0318,-2.8767,-2.5935,-2.4951,-2.4404,-2.3569,-2.4473,-2.5654,-2.6728,-2.9186,-3.098,-3.1043,-3.2303,-3.273,-3.1421,-3.1276,-3.117,-3.0947,-3.0889,-3.0889,0.0,-3.0889,-3.0889,-3.0889,-3.0889,-3.0557,-2.9824,-2.9297,-2.8799,-2.8301,-2.8291,-2.79,-2.7129,-2.7051,-2.6602,-2.583,-2.5391,-2.5391,-2.5645,-2.4873,0.0,-2.4385,-2.3965,-2.3535,-2.3091,-2.3091,-2.3091,-2.3091,-2.3091,-2.3091,-2.3091,-2.3091,-2.3091,-2.3091,-2.3091,-2.3091,-2.3091,-2.3091,-2.3091,-2.3135,-2.3343,-2.4082,-2.5126,-2.6419,-2.7452,-2.8386,-2.9534,-2.9792,-2.9753,-2.9534,-2.9663,-2.9792,-2.9792,-2.9028,-2.8347,-2.8136,-2.6562,-2.5241,-2.4872,-2.4006,-2.3671,-2.4414,-2.3844,-2.3844,-2.4957,-2.5241,-2.5661,-2.6431,-2.563,-2.4914,-2.4542,-2.3637,-2.3091,-2.3091,-2.3091,-2.3091,-2.3091,-2.4211,-2.5378,-2.6524,-2.6524,-2.6524,-2.6461,-2.4992,-2.3628,-3.8214,-3.9141,-3.953,-3.8804,-3.7416,-3.5348,-3.2012,-2.9863,-2.7724,-2.469,-2.3896,-2.3578,-2.3169,-2.4199,-2.5321,-2.5898,-2.7672,-2.9202,-2.979,-3.0442,-3.0916,-3.0917,-3.0889,-3.0889,-3.0889,-3.0889,-3.0889,-3.0889,-3.0889,-3.0889,-3.0889,-3.0664,-3.0234,-2.959,-2.9141,-2.8721,-2.8301,-2.8291,-2.7978,-2.7353,-2.7119,-2.6689,-2.6064,-2.5615,-2.5537,-2.5635,-2.4805,0.0,-2.4365,-2.3721,-2.3286,-2.3091,-2.3091,-2.3091,-2.3091,-2.3091,-2.3091,-2.3091,-2.3091,-2.3091,-2.3091,-2.3091,-2.3091,-2.3091,-2.3091,-2.3091,-2.3091,-2.3091,-2.3507,-2.4178,-2.5336,-2.5994,-2.6655,-2.7799,-2.849,-2.9067,-2.9663,-2.9792,-2.9792,-2.9792,-2.8897,-2.7924,-2.736,-2.5911,-2.4787,-2.4787,-2.4339,-2.4382,-2.5557,-2.5221,-2.5062,-2.5641,-2.5168,-2.4999,-2.5588,-2.5126,-2.4542,-2.3963,-2.3387,-2.3091,-2.3091,-2.3091,-2.3091,-2.3091,-2.4798,-2.5672,-2.563,-2.6224,-2.6182,-2.5588,-2.425,-2.3208,-3.7269,-3.8582,-3.9672,-3.9546,-3.7821,-3.5244,-3.1974,-2.9487,-2.6974,-2.3776,-2.3091,-2.3091,-2.3091,-2.3965,-2.4746,-2.5067,-2.6006,-2.7246,-2.8711,-2.9004,-2.9512,-3.0742,-3.0889,-3.0889,-3.0889,-3.0889,-3.0889,-3.0889,-3.0889,0.0,-3.0889,-3.0361,-2.9912,-2.9636,-2.9062,-2.8633,-2.8301,-2.8291,-2.8086,-2.7708,-2.7217,-2.6797,-2.6367,-2.584,-2.5596,-2.5499,-2.4668,0.0,0.0,-2.3413,-2.3091,-2.3091,-2.3091,-2.3091,-2.3091,-2.3091,-2.3091,-2.3091,-2.3091,-2.3091,-2.3091,-2.3091,-2.3091,-2.3091,-2.3091,-2.3091,-2.3091,-2.3091,-2.3091,-2.3343,-2.45,-2.4787,-2.5083,-2.6224,-2.7331,-2.8347,-2.9236,-2.9624,-2.9792,-2.9792,-2.8897,-2.7844,-2.7005,-2.5714,-2.4872,-2.5126,-2.4957,-2.5284,-2.6678,-2.6637,-2.6595,-2.6801,-2.5839,-2.5083,-2.483,-2.4787,-2.4414,-2.3507,-2.3266,-2.3091,-2.3091,-2.3091,-2.3091,-2.3091,-2.5094,-2.5672,-2.4787,-2.5714,-2.5672,-2.4787,-2.3637,-2.2916,-3.6991,-3.8582,-3.9572,-3.912,-3.7991,-3.5963,-3.1645,-2.9692,-2.77,-2.3873,-2.3091,-2.3091,-2.3091,-2.3198,-2.3701,-2.492,-2.5508,-2.6522,-2.8633,-2.9258,-2.9853,-3.0781,-3.0889,-3.0889,-3.0889,-3.0889,-3.0889,-3.0889,-3.0889,0.0,-3.0889,-3.0088,-2.9665,-2.9626,-2.8779,-2.833,-2.8291,-2.8291,-2.8086,-2.7708,-2.7217,-2.6797,-2.6357,-2.5566,-2.5174,-2.5135,-2.4219,0.0,0.0,-2.3286,-2.3091,-2.3091,-2.3091,-2.3091,-2.3091,-2.3091,-2.3091,-2.3091,-2.3091,-2.3091,-2.3091,-2.3091,-2.3091,-2.3091,-2.3091,-2.3091,-2.3091,-2.3091,-2.3091,-2.3343,-2.45,-2.4787,-2.5083,-2.6224,-2.7331,-2.8136,-2.8215,-2.9067,-2.9792,-2.9792,-2.8897,-2.8084,-2.7976,-2.6191,-2.5168,-2.6182,-2.5462,-2.5577,-2.7683,-2.7087,-2.6883,-2.7844,-2.6994,-2.5922,-2.4872,-2.4787,-2.4745,-2.467,-2.3681,-2.3091,-2.3091,-2.3091,-2.3091,-2.3091,-2.4339,-2.4914,-2.4787,-2.4914,-2.4914,-2.4787,-2.3637,-2.3071,-3.534,-3.7685,-3.9647,-3.9421,-3.7764,-3.5281,-3.1877,-2.9444,-2.7008,-2.3753,-2.3091,-2.3091,-2.3091,-2.3091,-2.3266,-2.3818,-2.4007,-2.4746,-2.6367,-2.6982,-2.7871,-2.9512,-2.9941,-3.0303,-3.084,-3.0889,-3.0889,-3.0889,-3.0889,0.0,-3.0488,-2.9893,-2.9453,-2.9189,-2.8603,-2.8291,-2.8291,-2.8291,-2.8203,-2.8037,-2.7607,-2.7187,-2.6748,-2.6143,-2.5723,-2.5439,-2.4824,0.0,0.0,-2.3818,-2.3525,-2.3506,-2.3198,-2.3091,-2.3091,-2.3091,-2.3091,-2.3091,-2.3091,-2.3091,-2.3091,-2.3091,-2.3091,-2.3091,-2.3091,-2.3091,-2.3091,-2.3091,-2.3091,-2.3222,-2.3681,-2.38,-2.4049,-2.5221,-2.5786,-2.6479,-2.7804,-2.8478,-2.8976,-2.9663,-2.8371,-2.7128,-2.7128,-2.5252,-2.4178,-2.5294,-2.5672,-2.6367,-2.7884,-2.8319,-2.841,-2.8136,-2.7128,-2.6307,-2.5839,-2.5797,-2.5546,-2.483,-2.4372,-2.3844,-2.3135,-2.3091,-2.3091,-2.3091,-2.4211,-2.4457,-2.38,-2.4457,-2.4457,-2.3757,-2.3299,-2.3091,-3.3934,-3.678,-3.9408,-3.9233,-3.7236,-3.4573,-3.2008,-2.9259,-2.66,-2.4097,-2.3343,-2.3091,-2.3091,-2.3091,-2.3091,-2.3091,-2.3198,-2.3779,-2.5078,-2.5644,-2.6631,-2.8516,-2.9004,-2.9541,-3.041,-3.0732,-3.0889,-3.0889,-3.0762,0.0,-3.0215,-2.9678,-2.9238,-2.8926,-2.8506,-2.8291,-2.8291,-2.8291,-2.8291,-2.8281,-2.7734,-2.7314,-2.6992,-2.6445,-2.5957,-2.5518,-2.5205,0.0,0.0,-2.4219,-2.3906,-2.376,-2.3457,-2.3208,-2.3091,-2.3091,-2.3091,-2.3091,-2.3091,-2.3091,-2.3091,-2.3091,-2.3091,-2.3091,-2.3091,-2.3091,-2.3091,-2.3091,-2.3091,-2.3091,-2.3091,-2.3091,-2.3299,-2.4135,-2.4542,-2.5241,-2.6808,-2.7631,-2.8227,-2.874,-2.7839,-2.6883,-2.6554,-2.4893,-2.4006,-2.5126,-2.5714,-2.6502,-2.7924,-2.8806,-2.9106,-2.8636,-2.7919,-2.7342,-2.7005,-2.6964,-2.6502,-2.5378,-2.5294,-2.4628,-2.3178,-2.342,-2.343,-2.3101,-2.3877,-2.392,-2.3091,-2.392,-2.3877,-2.3091,-2.3091,-2.3091,-3.3181,-3.6048,-3.8743,-3.8165,-3.637,-3.411,-3.191,-2.9291,-2.6812,-2.5137,-2.3887,-2.3091,-2.3091,-2.3091,-2.3091,-2.3091,-2.3496,-2.4238,-2.5499,-2.6103,-2.6865,-2.8144,-2.8301,-2.8643,-2.9558,-3.0371,-3.0889,-3.0889,0.0,0.0,-3.0195,-2.9394,-2.8926,-2.8916,-2.8506,-2.8291,-2.8291,-2.8291,-2.8291,-2.8281,-2.7432,-2.7021,-2.6982,-2.6083,-2.5498,0.0,0.0,0.0,0.0,-2.4414,-2.417,-2.3789,-2.3779,-2.3516,-2.3091,-2.3091,-2.3091,-2.3091,-2.3091,-2.3091,-2.3091,-2.3091,-2.3091,-2.3091,-2.3091,-2.3091,-2.3091,-2.3091,-2.3091,-2.3091,-2.3091,-2.3091,-2.3091,-2.3091,-2.3963,-2.4787,-2.483,-2.6562,-2.7804,-2.6719,-2.7371,-2.7735,-2.6678,-2.5546,-2.5168,-2.6307,-2.5546,-2.5608,-2.7804,-2.8124,-2.8557,-2.9663,-2.9753,-2.9326,-2.8176,-2.8084,-2.7614,-2.6554,-2.6472,-2.5484,-2.3178,-2.4168,-2.4253,-2.3135,-2.3091,-2.3091,-2.3091,-2.3091,-2.3091,-2.3091,-2.3091,-2.3091,-3.2125,-3.4134,-3.5994,-3.5805,-3.4374,-3.2605,-3.1187,-2.9307,-2.7475,-2.6205,-2.5683,-2.5179,-2.4425,-2.4253,-2.4107,-2.3659,-2.3701,-2.4033,-2.4736,-2.5732,-2.6758,-2.7744,-2.917,-3.0176,-3.0449,0.0,-3.0889,-3.0889,0.0,0.0,-2.9785,-2.9512,-2.9228,-2.8926,-2.8506,-2.8291,-2.8291,-2.8291,-2.8291,-2.8291,-2.8018,-2.7588,-2.7002,-2.6738,-2.6211,0.0,0.0,0.0,0.0,-2.499,-2.4609,-2.4189,-2.3906,-2.3525,-2.3091,-2.3091,-2.3091,-2.3091,-2.3091,-2.3091,-2.3091,-2.3091,-2.3091,-2.3091,-2.3091,-2.3091,-2.3091,-2.3091,-2.3091,-2.3091,-2.3091,-2.3091,-2.3091,-2.3091,-2.3387,-2.3844,-2.4628,-2.5368,-2.5953,-2.6389,-2.6171,-2.5744,-2.542,-2.4382,-2.3757,-2.4102,-2.4542,-2.5031,-2.5734,-2.6532,-2.7412,-2.8518,-2.7988,-2.7999,-2.9157,-2.9275,-2.845,-2.6607,-2.6524,-2.5473,-2.3178,-2.343,-2.3464,-2.3101,-2.3091,-2.3091,-2.3091,-2.3091,-2.3091,-2.3091,-2.3091,-2.3091,-3.1224,-3.2898,-3.4412,-3.4412,-3.3144,-3.1639,-3.0561,-2.9177,-2.7815,-2.6719,-2.6524,-2.6141,-2.4999,-2.5168,-2.502,-2.3752,-2.4019,-2.4471,-2.4626,-2.5664,-2.6768,-2.7783,-2.9375,-3.0391,0.0,-3.0693,-3.082,0.0,0.0,0.0,-2.9636,-2.9268,-2.9043,-2.8926,-2.8662,-2.8447,-2.8291,-2.8291,-2.8291,-2.8291,-2.8135,-2.7695,-2.7012,-2.6846,-2.6396,0.0,0.0,0.0,0.0,-2.5254,-2.4814,-2.4375,-2.3955,-2.3525,-2.3091,-2.3091,-2.3091,-2.3091,-2.3091,-2.3091,-2.3091,-2.3091,-2.3091,-2.3091,-2.3091,-2.3091,-2.3091,-2.3091,-2.3091,-2.3091,-2.3091,-2.3091,-2.3091,-2.3091,-2.3091,-2.3299,-2.4006,-2.45,-2.4872,-2.5136,-2.501,-2.466,-2.4211,-2.3551,-2.3091,-2.3091,-2.3714,-2.4286,-2.4745,-2.542,-2.6295,-2.736,-2.6883,-2.7058,-2.8422,-2.8542,-2.7799,-2.5964,-2.6265,-2.5473,-2.3178,-2.3507,-2.3551,-2.3091,-2.3091,-2.3091,-2.3091,-2.3091,-2.3091,-2.3091,-2.3091,-2.3091,0.0,-3.205,-3.3608,-3.3608,-3.2441,-3.1016,-2.9917,-2.8932,0.0,-2.6842,-2.6595,-2.6276,-2.5168,-2.583,-2.5788,-2.3553,-2.4463,-2.5399,-2.5179,-2.5947,-2.7021,-2.8242,-2.9141,-2.9695,-2.9636,-3.0371,-3.0703,0.0,0.0,0.0,-2.9521,-2.8769,-2.8506,-2.8867,-2.8906,-2.8721,-2.8301,-2.8291,-2.8291,-2.8291,-2.79,-2.7461,-2.7002,-2.6611,-2.6182,0.0,0.0,0.0,0.0,-2.5283,-2.4844,-2.4375,-2.3984,-2.3555,-2.3091,-2.3091,-2.3091,-2.3091,-2.3091,-2.3091,-2.3091,-2.3091,-2.3091,-2.3091,-2.3091,-2.3091,-2.3091,-2.3091,-2.3091,-2.3091,-2.3091,-2.3091,-2.3091,-2.3091,-2.3091,-2.3091,-2.3091,-2.392,-2.4382,-2.3299,-2.3963,-2.4329,-2.3256,-2.3091,-2.3091,-2.3091,-2.3091,-2.3464,-2.4542,-2.467,-2.5126,-2.6265,-2.6307,-2.6307,-2.6348,-2.6431,-2.6005,-2.4872,-2.5797,-2.5389,-2.3178,-2.4125,-2.4168,-2.3135,-2.3091,-2.3091,-2.3091,-2.3091,-2.3091,-2.3091,-2.3091,-2.3091,-2.9967,0.0,-3.0758,-3.0758,-3.047,-2.9868,0.0,-2.8949,-2.9067,-2.7936,-2.7723,-2.7476,-2.669,-2.651,-2.5964,-2.4356,-2.5133,-2.5828,-2.5593,-2.7168,-2.8564,-2.9189,-3.0049,-3.0312,-2.9629,-3.0371,0.0,0.0,0.0,-2.9424,-2.9092,-2.8877,-2.8672,-2.8447,-2.875,-2.8721,-2.8301,-2.8291,-2.8291,-2.8291,-2.8193,-2.7744,-2.7012,-2.6914,-2.6455,0.0,0.0,0.0,-2.5684,-2.5577,-2.5117,-2.4404,-2.4307,-2.3764,-2.3091,-2.3091,-2.3091,-2.3091,-2.3091,-2.3091,-2.3091,-2.3091,-2.3091,-2.3091,-2.3091,-2.3091,-2.3091,-2.3091,-2.3091,-2.3091,-2.3091,-2.3091,-2.3091,-2.3091,-2.3091,-2.3091,-2.3091,-2.3299,-2.342,-2.3135,-2.3299,-2.343,-2.3135,-2.3091,-2.3091,-2.3091,-2.3091,-2.3222,-2.3464,-2.3507,-2.393,-2.5083,-2.4425,-2.4264,-2.5126,-2.6005,-2.6005,-2.4872,-2.5041,-2.4585,-2.3178,-2.3343,-2.3387,-2.3101,-2.3091,-2.3091,-2.3091,-2.3091,-2.3091,-2.3091,-2.3091,-2.3091,-2.9663,-2.9792,-2.9663,-2.9157,-2.9404,-2.9248,-2.7064,-2.7855,-2.8569,-2.6942,-2.6982,-2.7115,-2.6209,-2.6453,-2.6172,-2.4395,-2.5569,-2.6681,-2.6615,-2.7617,-2.8652,-2.9528,-3.0,-3.0254,0.0,0.0,0.0,0.0,0.0,-2.9385,-2.8945,-2.874,-2.8525,-2.8301,-2.8516,-2.8525,-2.8291,-2.8291,-2.8291,-2.8291,-2.8096,-2.7656,-2.7012,-2.6816,-2.6367,0.0,0.0,0.0,-2.5674,-2.5518,-2.5029,-2.4394,-2.4209,-2.3721,-2.3091,-2.3091,-2.3091,-2.3091,-2.3091,-2.3091,-2.3091,-2.3091,-2.3091,-2.3091,-2.3091,-2.3091,-2.3091,-2.3091,-2.3091,-2.3091,-2.3091,-2.3091,-2.3091,-2.3091,-2.3091,-2.3091,-2.3091,-2.3091,-2.3091,-2.3091,-2.3091,-2.3091,-2.3091,-2.3091,-2.3091,-2.3091,-2.3091,-2.3091,-2.3091,-2.3091,-2.3343,-2.3963,-2.3464,-2.3343,-2.3963,-2.4595,-2.4681,-2.4049,-2.4006,-2.3757,-2.3135,-2.3091,-2.3091,-2.3091,-2.3091,-2.3091,-2.3091,-2.3091,-2.3091,-2.3091,-2.3091,-2.3091,-2.9302,-2.9619,-2.9537,-2.8593,-2.9106,-2.8961,-2.5786,-2.6655,-2.747,-2.5241,-2.5588,-2.5977,-2.5147,-2.599,-2.6228,-2.4306,-2.5886,-2.7464,-2.7823,-2.8022,-2.8481,-2.9509,-2.9744,0.0,-3.0625,0.0,0.0,0.0,0.0,-2.9355,-2.8848,-2.8486,-2.8291,-2.8291,-2.8291,-2.8291,-2.8291,-2.8291,-2.8262,-2.8193,-2.7832,-2.7402,-2.6904,-2.6553,-2.6152,-2.5693,0.0,0.0,-2.5664,-2.5322,-2.4873,-2.4385,-2.4023,-2.3584,-2.3091,-2.3091,-2.3091,-2.3091,-2.3091,-2.3091,-2.3091,-2.3091,-2.3091,-2.3091,-2.3091,-2.3091,-2.3091,-2.3091,-2.3091,-2.3091,-2.3091,-2.3091,-2.3091,-2.3091,-2.3091,-2.3091,-2.3091,-2.3091,-2.3091,-2.3091,-2.3091,-2.3091,-2.3091,-2.3091,-2.3091,-2.3091,-2.3091,-2.3091,-2.3091,-2.3091,-2.3091,-2.3091,-2.3091,-2.3091,-2.3091,-2.3091,-2.3091,-2.3091,-2.3091,-2.3091,-2.3091,-2.3091,-2.3091,-2.3091,-2.3091,-2.3091,-2.3091,-2.3091,-2.3091,-2.3091,-2.3091,-2.3091,-2.8436,-2.8884,-2.9456,-2.9522,-2.9663,-2.917,-2.676,-2.7197,-2.747,-2.5241,-2.4957,-2.5242,-2.5792,-2.5765,-2.5498,-2.4979,-2.6104,-2.7462,-2.8545,-2.9355,-2.9746,-2.9646,0.0,-3.0449,0.0,0.0,0.0,0.0,0.0,-2.9228,-2.8428,-2.833,-2.8291,-2.8291,-2.8291,-2.8291,-2.8291,-2.8291,-2.8115,-2.7816,-2.7748,-2.7307,-2.6484,-2.6416,-2.6152,-2.5693,0.0,-2.5693,-2.5684,-2.5615,-2.5156,-2.4414,-2.4346,-2.3793,-2.3091,-2.3091,-2.3091,-2.3091,-2.3091,-2.3091,-2.3091,-2.3091,-2.3091,-2.3091,-2.3091,-2.3091,-2.3091,-2.3091,-2.3091,-2.3091,-2.3091,-2.3091,-2.3091,-2.3091,-2.3091,-2.3091,-2.3091,-2.3091,-2.3091,-2.3091,-2.3091,-2.3091,-2.3091,-2.3091,-2.3091,-2.3091,-2.3091,-2.3091,-2.3091,-2.3091,-2.3091,-2.3091,-2.3091,-2.3091,-2.3091,-2.3091,-2.3091,-2.3091,-2.3091,-2.3091,-2.3091,-2.3091,-2.3091,-2.3091,-2.3091,-2.3091,-2.3091,-2.3091,-2.3091,-2.3091,-2.3091,-2.3091,-2.7439,-2.7283,-2.713,-2.8081,-2.9169,-2.9237,-2.6265,-2.6662,-2.6941,-2.4391,-2.3877,-2.4089,-2.4755,-2.5043,-2.5581,-2.6653,-2.7314,-2.7988,-2.8809,-2.9062,-2.9268,0.0,0.0,-3.0205,0.0,0.0,0.0,0.0,0.0,0.0,-2.8662,-2.8418,-2.8291,-2.8291,-2.8291,-2.8291,-2.8291,-2.8291,-2.8086,-2.7718,-2.7432,-2.6992,-2.6387,-2.6143,-2.5879,-2.5693,0.0,-2.5693,-2.5693,-2.5693,-2.5167,-2.4414,-2.4414,-2.3851,-2.3091,-2.3091,-2.3091,-2.3091,-2.3091,-2.3091,-2.3091,-2.3091,-2.3091,-2.3091,-2.3091,-2.3091,-2.3091,-2.3091,-2.3091,-2.3091,-2.3091,-2.3091,-2.3091,-2.3091,-2.3091,-2.3091,-2.3091,-2.3091,-2.3091,-2.3091,-2.3091,-2.3091,-2.3091,-2.3091,-2.3091,-2.3091,-2.3091,-2.3091,-2.3091,-2.3091,-2.3091,-2.3091,-2.3091,-2.3091,-2.3091,-2.3091,-2.3091,-2.3091,-2.3091,-2.3091,-2.3091,-2.3091,-2.3091,-2.3091,-2.3091,-2.3091,-2.3091,-2.3091,-2.3091,-2.3091,-2.3091,-2.3091,-2.6211,-2.5954,-2.5562,-2.6363,-2.7966,-2.862,-2.5872,-2.641,-2.6789,-2.4242,-2.3875,-2.4029,-2.4114,-2.4707,-2.5801,-2.7559,-2.8184,-2.8594,-2.9014,-2.8975,-2.9141,-2.9861,-2.9883,0.0,0.0,0.0,0.0,0.0,0.0,0.0,-2.8789,-2.8467,-2.8291,-2.8291,-2.8291,-2.8291,-2.8291,-2.8291,-2.8027,-2.751,-2.7178,-2.6738,-2.6221,-2.584,-2.5693,-2.5693,-2.5693,-2.5693,-2.5693,-2.5693,-2.5226,-2.457,-2.457,-2.4043,-2.3237,-2.313,-2.3091,-2.3091,-2.3091,-2.3159,-2.3247,-2.3247,-2.3247,-2.3247,-2.3247,-2.3179,-2.3091,-2.3091,-2.3091,-2.3091,-2.3091,-2.3091,-2.3091,-2.3091,-2.3091,-2.3091,-2.3091,-2.3091,-2.3091,-2.3091,-2.3091,-2.3091,-2.3091,-2.3091,-2.3091,-2.3091,-2.3091,-2.3091,-2.3091,-2.3091,-2.3091,-2.3091,-2.3091,-2.3091,-2.3091,-2.3091,-2.3091,-2.3091,-2.3091,-2.3091,-2.3091,-2.3091,-2.3091,-2.3091,-2.3091,-2.3091,-2.3091,-2.3091,-2.3091,-2.3091,-2.3091,-2.3091,-2.4635,-2.5628,-2.6609,-2.5317,-2.5853,-2.6712,-2.6591,-2.7346,-2.7568,-2.5849,-2.6215,-2.6464,-2.5243,-2.5371,-2.583,-2.6435,-2.7842,-2.9023,-2.9463,0.0,-3.0732,-3.0791,-3.0791,0.0,0.0,0.0,0.0,0.0,0.0,0.0,-2.8359,-2.831,-2.8291,-2.8291,-2.8291,-2.8291,-2.8291,-2.8291,-2.7881,-2.706,-2.7031,-2.6582,-2.5732,-2.5703,-2.5693,-2.5693,-2.5693,-2.5693,-2.5693,-2.5693,-2.5449,-2.5067,-2.5067,-2.4502,-2.3691,-2.3247,-2.3091,-2.3091,-2.3091,-2.3408,-2.374,-2.374,-2.374,-2.374,-2.374,-2.3457,-2.3091,-2.3091,-2.3091,-2.3091,-2.3091,-2.3091,-2.3091,-2.3091,-2.3091,-2.3091,-2.3091,-2.3091,-2.3091,-2.3091,-2.3091,-2.3091,-2.3091,-2.3091,-2.3091,-2.3091,-2.3091,-2.3091,-2.3091,-2.3091,-2.3091,-2.3091,-2.3091,-2.3091,-2.3091,-2.3091,-2.3091,-2.3091,-2.3091,-2.3091,-2.3091,-2.3091,-2.3091,-2.3091,-2.3091,-2.3091,-2.3091,-2.3091,-2.3091,-2.3091,-2.3091,-2.3091,-2.3496,-2.4158,-2.4605,-2.428,-2.4989,-2.5926,-2.6267,-2.6857,-2.6907,-2.5221,-2.5632,-2.6082,-2.5575,-2.6279,-2.6992,-2.7158,-2.8389,-2.9473,-2.9902,-3.0254,-3.0459,-3.0459,0.0,0.0,0.0,0.0,0.0,0.0,0.0,0.0,-2.831,-2.8291,-2.8291,-2.8291,-2.8291,-2.8291,-2.8291,-2.8291,-2.7998,-2.7412,-2.7148,-2.6709,-2.6133,-2.581,-2.5693,-2.5693,-2.5693,-2.5693,-2.5693,-2.5693,-2.5478,-2.5086,-2.4775,-2.4307,-2.3769,-2.3603,-2.3369,-2.3091,-2.3091,-2.3428,-2.3789,-2.3789,-2.3789,-2.3789,-2.3789,-2.3486,-2.3091,-2.3091,-2.3091,-2.3091,-2.3091,-2.3091,-2.3091,-2.3091,-2.3091,-2.3091,-2.3091,-2.3091,-2.3091,-2.3091,-2.3091,-2.3091,-2.3091,-2.3091,-2.3091,-2.3091,-2.3091,-2.3091,-2.3091,-2.3091,-2.3091,-2.3091,-2.3091,-2.3091,-2.3091,-2.3091,-2.3091,-2.3091,-2.3091,-2.3091,-2.3091,-2.3091,-2.3091,-2.3091,-2.3091,-2.3091,-2.3091,-2.3091,-2.3091,-2.3091,-2.3091,-2.3091,-2.2635,-2.3203,-2.3514,-2.3565,-2.4496,-2.549,-2.5895,-2.6875,-2.7309,-2.5914,-2.5801,-2.5947,-2.5947,-2.666,-2.7305,-2.7441,-2.8535,-2.9463,-2.9746,-2.9912,-3.0,-3.0,0.0,0.0,0.0,0.0,0.0,0.0,0.0,0.0,0.0,-2.8291,-2.8291,-2.8291,-2.8291,-2.8291,-2.8291,-2.8164,-2.7949,-2.7708,-2.709,-2.667,-2.6367,-2.5888,-2.5693,-2.5693,-2.5693,-2.5693,-2.5693,-2.5693,-2.5478,-2.5086,-2.4736,-2.4277,-2.3789,-2.3789,-2.3516,-2.3091,-2.3091,-2.3471,-2.3984,-2.3984,-2.3984,-2.3984,-2.3984,-2.3594,-2.3091,-2.3091,-2.3091,-2.312,-2.3266,-2.3198,-2.3091,-2.3091,-2.3091,-2.3091,-2.3091,-2.3091,-2.3091,-2.3091,-2.3091,-2.3091,-2.3091,-2.3091,-2.3091,-2.3091,-2.3091,-2.3091,-2.3091,-2.3091,-2.3091,-2.3091,-2.3091,-2.3091,-2.3091,-2.3091,-2.3091,-2.3091,-2.3091,-2.3091,-2.3091,-2.3091,-2.3091,-2.3091,-2.3091,-2.3091,-2.3091,-2.3091,-2.3091,-2.3091,-2.3091,-2.3091,-2.2035,-2.3031,-2.4023,-2.3288,-2.4284,-2.5444,-2.5669,-2.7615,-2.9168,-2.8426,-2.7275,-2.6387,-2.6396,-2.6396,-2.6533,-2.6943,-2.8086,-2.8916,-2.8916,-2.9287,-2.956,0.0,0.0,0.0,0.0,0.0,0.0,0.0,0.0,0.0,0.0,-2.8291,-2.8281,-2.8281,-2.8281,-2.8281,-2.8281,-2.7861,-2.7708,-2.7699,-2.6797,-2.6387,-2.6367,-2.5888,-2.5693,-2.5693,-2.5693,-2.5693,-2.5693,-2.5693,-2.5478,-2.5116,-2.5116,-2.4587,-2.3789,-2.3789,-2.3516,-2.3091,-2.3091,-2.3656,-2.4414,-2.4414,-2.4414,-2.4414,-2.4414,-2.3773,-2.3091,-2.3101,-2.3101,-2.3198,-2.3672,-2.3467,-2.3101,-2.3101,-2.3101,-2.3101,-2.3091,-2.3091,-2.3091,-2.3091,-2.3091,-2.3091,-2.3091,-2.3091,-2.3091,-2.3091,-2.3091,-2.3091,-2.3091,-2.3091,-2.3091,-2.3091,-2.3091,-2.3091,-2.3091,-2.3091,-2.3091,-2.3091,-2.3091,-2.3091,-2.3091,-2.3091,-2.3091,-2.3091,-2.3091,-2.3091,-2.3091,-2.3091,-2.3091,-2.3091,-2.3091,-2.3091,-2.184,-2.2429,-2.3093,-2.3497,-2.4972,-2.63,-2.6192,-2.6312,-2.6587,-2.7243,-2.6855,-2.6484,-2.6777,-2.708,-2.7226,-2.7041,-2.7842,-2.8584,-2.8877,-2.9033,0.0,0.0,0.0,0.0,0.0,0.0,0.0,0.0,0.0,0.0,0.0,-2.8018,-2.7851,-2.7851,-2.7549,-2.7393,-2.7393,-2.7275,-2.7207,-2.7197,-2.665,-2.6387,-2.6367,-2.5888,-2.5693,-2.5693,-2.5693,-2.5693,-2.5693,-2.5693,-2.5478,-2.5116,-2.5116,-2.4587,-2.3789,-2.3789,-2.3516,-2.3091,-2.3091,-2.3506,-2.3975,-2.3975,-2.3975,-2.4033,-2.4326,-2.3773,-2.3159,-2.3516,-2.3594,-2.3555,-2.3379,-2.3467,-2.3594,-2.3594,-2.3594,-2.3516,-2.3159,-2.3091,-2.3091,-2.3091,-2.3091,-2.3091,-2.3091,-2.3091,-2.3091,-2.3091,-2.3091,-2.3091,-2.3091,-2.3091,-2.3091,-2.3091,-2.3091,-2.3091,-2.3091,-2.3091,-2.3091,-2.3091,-2.3091,-2.3091,-2.3091,-2.3091,-2.3091,-2.3091,-2.3091,-2.3091,-2.3091,-2.3091,-2.3091,-2.3091,-2.3091,-2.3091,-2.1973,-2.2324,-2.2715,-2.3574,-2.4965,-2.6118,-2.633,-2.6367,-2.6572,-2.7363,-2.7187,-2.7021,-2.7441,-2.7607,-2.7637,-2.7539,-2.7959,-2.8379,-2.8633,-2.8672,0.0,0.0,0.0,0.0,0.0,0.0,0.0,0.0,0.0,0.0,0.0,-2.7637,-2.7402,-2.7402,-2.7148,-2.7012,-2.7012,-2.6846,-2.6768,-2.6758,-2.6338,-2.6035,-2.5859,-2.5781,-2.5596,-2.5478,-2.5615,-2.5693,-2.5693,-2.5693,-2.5478,-2.5116,-2.5116,-2.4587,-2.3789,-2.3789,-2.3516,-2.3091,-2.3091,-2.3535,-2.4043,-2.4043,-2.416,-2.4316,-2.4394,-2.3935,-2.3418,-2.3506,-2.3525,-2.3516,-2.3418,-2.3594,-2.375,-2.3574,-2.3525,-2.3457,-2.3149,-2.3091,-2.3091,-2.3091,-2.3091,-2.3091,-2.3091,-2.3091,-2.3091,-2.3091,-2.3091,-2.3091,-2.3091,-2.3091,-2.3091,-2.3091,-2.3091,-2.3091,-2.3091,-2.3091,-2.3091,-2.3091,-2.3091,-2.3091,-2.3091,-2.3091,-2.3091,-2.3091,-2.3091,-2.3091,-2.3091,-2.3091,-2.3091,-2.3091,-2.3091,-2.3091,-2.2353,-2.2568,-2.2783,-2.3682,-2.4551,-2.5468,-2.6309,-2.7373,-2.8174,-2.8174,-2.793,-2.7894,-2.8223,-2.7978,-2.7851,-2.8232,-2.8291,-2.8291,-2.8291,-2.8291,0.0,0.0,0.0,0.0,0.0,0.0,0.0,0.0,0.0,0.0,0.0,-2.7197,-2.6963,-2.6963,-2.6914,-2.6894,-2.6894,-2.6514,-2.6328,-2.6328,-2.5879,-2.5478,-2.5077,-2.5518,-2.5518,-2.5204,-2.5557,-2.5693,-2.5693,-2.5693,-2.5449,-2.5057,-2.5057,-2.4482,-2.373,-2.373,-2.3486,-2.3101,-2.314,-2.3666,-2.4365,-2.4404,-2.4687,-2.4979,-2.4531,-2.4121,-2.3711,-2.3266,-2.3149,-2.3237,-2.3633,-2.376,-2.3682,-2.3198,-2.312,-2.314,-2.3101,-2.3091,-2.3091,-2.3091,-2.3091,-2.3091,-2.3091,-2.3091,-2.3091,-2.3091,-2.3091,-2.3091,-2.3091,-2.3091,-2.3091,-2.3091,-2.3091,-2.3091,-2.3091,-2.3091,-2.3091,-2.3091,-2.3091,-2.3091,-2.3091,-2.3091,-2.3091,-2.3091,-2.3091,-2.3091,-2.3091,-2.3091,-2.3091,-2.3091,-2.3091,-2.3091,-2.2881,-2.3008,-2.3247,-2.4492,-2.5459,-2.6328,-2.7197,-2.7344,-2.7285,-2.7285,-2.7754,-2.8184,-2.8271,-2.8223,-2.8193,-2.8281,-2.8291,-2.8291,-2.8291,-2.8291,0.0,0.0,0.0,0.0,0.0,0.0,0.0,0.0,0.0,0.0,-2.7158,-2.6758,-2.6523,-2.6523,-2.6191,-2.5966,-2.5966,-2.5879,-2.583,0.0,-2.5732,-2.5274,-2.458,-2.5333,-2.5635,-2.5596,-2.5645,-2.5693,-2.5693,-2.5693,-2.5273,-2.456,-2.456,-2.4033,-2.3237,-2.3237,-2.3179,-2.314,-2.3525,-2.3769,-2.3975,-2.4307,-2.4482,-2.4541,-2.4443,-2.4121,-2.3769,-2.3682,-2.3652,-2.3594,-2.3305,-2.3535,-2.3682,-2.3198,-2.3398,-2.3555,-2.3169,-2.3091,-2.3091,-2.3091,-2.3091,-2.3091,-2.3091,-2.3091,-2.3091,-2.3091,-2.3091,-2.3091,-2.3091,-2.3091,-2.3091,-2.3091,-2.3091,-2.3091,-2.3091,-2.3091,-2.3091,-2.3091,-2.3091,-2.3091,-2.3091,-2.3091,-2.3091,-2.3091,-2.3091,-2.3091,-2.3091,-2.3091,-2.3091,-2.3091,-2.3091,-2.3091,-2.2734,-2.2988,-2.3452,-2.501,-2.5889,-2.6553,-2.7207,-2.7178,-2.7012,-2.7012,-2.7539,-2.793,-2.7715,-2.7851,-2.793,-2.7715,-2.7685,-2.7685,-2.7685,-2.7685,0.0,0.0,0.0,0.0,0.0,0.0,0.0,0.0,0.0,-2.6709,-2.6709,-2.6309,-2.6074,-2.6074,-2.581,-2.5693,-2.5693,-2.5527,-2.542,-2.541,-2.5157,-2.4816,-2.4424,-2.4687,-2.5029,-2.542,-2.542,-2.5537,-2.5693,-2.5693,-2.5342,-2.4707,-2.4502,-2.4014,-2.3428,-2.3169,-2.3227,-2.3486,-2.3711,-2.4053,-2.4443,-2.4658,-2.4873,-2.501,-2.4795,-2.4424,-2.4043,-2.3848,-2.3643,-2.3428,-2.3149,-2.3266,-2.3418,-2.3149,-2.331,-2.3418,-2.314,-2.3091,-2.3091,-2.3091,-2.3091,-2.3091,-2.3091,-2.3091,-2.3091,-2.3091,-2.3091,-2.3091,-2.3091,-2.3091,-2.3091,-2.3091,-2.3091,-2.3091,-2.3091,-2.3091,-2.3091,-2.3091,-2.3091,-2.3091,-2.3091,-2.3091,-2.3091,-2.3091,-2.3091,-2.3091,-2.3091,-2.3091,-2.3091,-2.3091,-2.3091,-2.3091,-2.2402,-2.2877,-2.3695,-2.5294,-2.6006,-2.6387,-2.6807,-2.6846,-2.6797,-2.6797,-2.7197,-2.7441,-2.708,-2.7314,-2.7432,-2.707,-2.7012,-2.7012,-2.7012,-2.7012,0.0,0.0,0.0,0.0,0.0,0.0,0.0,0.0,0.0,-2.6191,-2.6269,-2.5859,-2.5615,-2.5693,-2.5693,-2.5693,-2.5693,-2.5293,-2.5116,-2.5106,-2.4551,-2.4307,-2.4297,-2.3877,-2.4189,-2.5106,-2.499,-2.5254,-2.5684,-2.5606,-2.5361,-2.4922,-2.456,-2.4111,-2.3643,-2.3315,-2.3486,-2.3809,-2.3955,-2.4519,-2.5125,-2.5156,-2.5439,-2.5606,-2.5205,-2.4756,-2.4336,-2.3906,-2.3477,-2.3091,-2.3091,-2.3091,-2.3091,-2.3091,-2.3091,-2.3091,-2.3091,-2.3091,-2.3091,-2.3091,-2.3091,-2.3091,-2.3091,-2.3091,-2.3091,-2.3091,-2.3091,-2.3091,-2.3091,-2.3091,-2.3091,-2.3091,-2.3091,-2.3091,-2.3091,-2.3091,-2.3091,-2.3091,-2.3091,-2.3091,-2.3091,-2.3091,-2.3091,-2.3091,-2.3091,-2.3091,-2.3091,-2.3091,-2.3091,-2.3091,-2.3091,-2.3091,-2.2402,-2.3359,-2.4436,-2.544,-2.5732,-2.5888,-2.6377,-2.6182,-2.5859,-2.5859,-2.6543,-2.708,-2.7021,-2.706,-2.708,-2.7021,-2.7012,-2.7012,-2.7012,-2.7012,0.0,0.0,0.0,0.0,0.0,0.0,0.0,0.0,-2.5713,-2.541,-2.5752,-2.54,-2.5332,-2.5674,-2.5693,-2.5693,-2.5693,-2.5293,-2.5116,-2.5106,-2.4258,-2.3877,-2.3857,-2.3418,-2.3896,-2.5096,-2.4668,-2.4923,-2.5664,-2.5322,-2.4902,-2.4502,-2.4443,-2.3926,-2.3218,-2.3584,-2.374,-2.3896,-2.4639,-2.5018,-2.5174,-2.5518,-2.5635,-2.5606,-2.5205,-2.4756,-2.4336,-2.3906,-2.3477,-2.3091,-2.3091,-2.3091,-2.3091,-2.3091,-2.3091,-2.3091,-2.3091,-2.3091,-2.3091,-2.3091,-2.3091,-2.3091,-2.3091,-2.3091,-2.3091,-2.3091,-2.3091,-2.3091,-2.3091,-2.3091,-2.3091,-2.3091,-2.3091,-2.3091,-2.3091,-2.3091,-2.3091,-2.3091,-2.3091,-2.3091,-2.3091,-2.3091,-2.3091,-2.3091,-2.3091,-2.3091,-2.3091,-2.3091,-2.3091,-2.3091,-2.3091,-2.3091,-2.2695,-2.3281,-2.3919,-2.5088,-2.5361,-2.5478,-2.5928,-2.5674,-2.5439,-2.5635,-2.5644,-2.5713,-2.6161,-2.6504,-2.6582,-2.6288,-2.6084,-2.6006,-2.626,-2.6084,0.0,0.0,0.0,0.0,0.0,0.0,0.0,0.0,-2.5331,-2.5049,-2.5,-2.5039,-2.5156,-2.5361,-2.5605,-2.5567,-2.5361,-2.5568,-2.5442,-2.4923,-2.3905,-2.3428,-2.3418,-2.3179,-2.3584,-2.4346,-2.415,-2.456,-2.5332,-2.4883,-2.459,-2.4394,-2.416,-2.3838,-2.3525,-2.3721,-2.4092,-2.456,-2.4988,-2.5234,-2.5478,-2.5625,-2.5566,-2.5322,-2.5127,-2.46,-2.4033,-2.3838,-2.3477,-2.3091,-2.3091,-2.3091,-2.3091,-2.3091,-2.3091,-2.3091,-2.3091,-2.3091,-2.3091,-2.3091,-2.3091,-2.3091,-2.3091,-2.3091,-2.3091,-2.3091,-2.3091,-2.3091,-2.3091,-2.3091,-2.3091,-2.3091,-2.3091,-2.3091,-2.3091,-2.3091,-2.3091,-2.3091,-2.3091,-2.3091,-2.3091,-2.3091,-2.3091,-2.3091,-2.3091,-2.3091,-2.3091,-2.3091,-2.3091,-2.3091,-2.3091,-2.3091,-2.2471,-2.2822,-2.3188,-2.4307,-2.4871,-2.5127,-2.5352,-2.5234,-2.5137,-2.5304,-2.4826,-2.4619,-2.5235,-2.5674,-2.5781,-2.5449,-2.5117,-2.5059,-2.5508,-2.5283,0.0,0.0,0.0,0.0,0.0,0.0,0.0,0.0,-2.4851,-2.4648,-2.4424,-2.4727,-2.4998,-2.5106,-2.5391,-2.541,-2.5116,-2.5386,-2.5264,-2.4787,-2.3637,-2.3091,-2.3091,-2.3091,-2.3276,-2.3623,-2.3623,-2.4111,-2.4863,-2.4434,-2.4258,-2.4228,-2.3906,-2.3721,-2.3633,-2.375,-2.4199,-2.4756,-2.4863,-2.5117,-2.5352,-2.5352,-2.5176,-2.4902,-2.4902,-2.4385,-2.3789,-2.3789,-2.3477,-2.3091,-2.3091,-2.3091,-2.3091,-2.3091,-2.3091,-2.3091,-2.3091,-2.3091,-2.3091,-2.3091,-2.3091,-2.3091,-2.3091,-2.3091,-2.3091,-2.3091,-2.3091,-2.3091,-2.3091,-2.3091,-2.3091,-2.3091,-2.3091,-2.3091,-2.3091,-2.3091,-2.3091,-2.3091,-2.3091,-2.3091,-2.3091,-2.3091,-2.3091,-2.3091,-2.3091,-2.3091,-2.3091,-2.3091,-2.3091,-2.3091,-2.3091,-2.3091,-2.1211,-2.1882,-2.2656,-2.3081,-2.416,-2.4971,-2.457,-2.4785,-2.4998,-2.457,-2.4453,-2.4424,-2.4473,-2.4502,-2.4512,-2.4492,-2.4463,-2.4609,-2.5086,-2.5135,0.0,0.0,0.0,0.0,0.0,0.0,0.0,0.0,-2.4082,-2.4014,-2.4394,-2.4443,-2.4639,-2.5106,-2.5135,-2.5135,-2.5116,-2.433,-2.4229,-2.4787,-2.3637,-2.3091,-2.3091,-2.3091,-2.311,-2.313,-2.313,-2.3608,-2.4414,-2.3994,-2.3828,-2.3818,-2.3799,-2.3535,-2.3179,-2.3633,-2.3818,-2.3906,-2.4307,-2.4463,-2.4482,-2.4482,-2.4473,-2.4453,-2.4453,-2.4141,-2.3789,-2.3789,-2.3477,-2.3091,-2.3091,-2.3091,-2.3091,-2.3091,-2.3091,-2.3091,-2.3091,-2.3091,-2.3091,-2.3091,-2.3091,-2.3091,-2.3091,-2.3091,-2.3091,-2.3091,-2.3091,-2.3091,-2.3091,-2.3091,-2.3091,-2.3091,-2.3091,-2.3091,-2.3091,-2.3091,-2.3091,-2.3091,-2.3091,-2.3091,-2.3091,-2.3091,-2.3091,-2.3091,-2.3091,-2.3091,-2.3091,-2.3091,-2.3091,-2.3091,-2.3091,-2.3091,-2.0605,-2.1035,-2.1572,-2.2842,-2.355,-2.399,-2.4326,-2.4326,-2.4277,-2.4394,-2.3984,-2.3682,-2.3965,-2.4238,-2.4414,-2.4414,-2.4189,-2.416,-2.459,-2.4424,0.0,0.0,0.0,0.0,0.0,0.0,0.0,0.0,0.0,-2.373,-2.3559,-2.3867,-2.4092,-2.4238,-2.4512,-2.4871,-2.5298,-2.4009,-2.3831,-2.4787,-2.3637,-2.3091,-2.3091,-2.3091,-2.3091,-2.3091,-2.3091,-2.3432,-2.3984,-2.3545,-2.3535,-2.376,-2.3486,-2.3447,-2.3574,-2.373,-2.3965,-2.4209,-2.4365,-2.4414,-2.4414,-2.4414,-2.4238,-2.4014,-2.4014,-2.3711,-2.3369,-2.3369,-2.3218,-2.3091,-2.3091,-2.3091,-2.3091,-2.3091,-2.3091,-2.3091,-2.3091,-2.3091,-2.3091,-2.3091,-2.3091,-2.3091,-2.3091,-2.3091,-2.3091,-2.3091,-2.3091,-2.3091,-2.3091,-2.3091,-2.3091,-2.3091,-2.3091,-2.3091,-2.3091,-2.3091,-2.3091,-2.3091,-2.3091,-2.3091,-2.3091,-2.3091,-2.3091,-2.3091,-2.3091,-2.3091,-2.3091,-2.3091,-2.3091,-2.3091,-2.3091,-2.3091,-2.0018,-2.0273,-2.0693,-2.2148,-2.267,-2.2963,-2.3613,-2.3564,-2.3437,-2.3721,-2.3276,-2.3023,-2.3486,-2.3799,-2.3939,-2.3939,-2.375,-2.3721,-2.415,-2.3965,0.0,0.0,0.0,0.0,0.0,0.0,0.0,0.0,0.0,0.0,-2.311,-2.3555,-2.3789,-2.3789,-2.4062,-2.4516,-2.5183,-2.3787,-2.3681,-2.4787,-2.3637,-2.3091,-2.3091,-2.3091,-2.3091,-2.3091,-2.3091,-2.3257,-2.3545,-2.3218,-2.3266,-2.3545,-2.3208,-2.3276,-2.3574,-2.3574,-2.375,-2.3939,-2.3939,-2.3939,-2.3939,-2.3939,-2.3799,-2.3574,-2.3574,-2.3369,-2.3091,-2.3091,-2.3091,-2.3091,-2.3091,-2.3091,-2.3091,-2.3091,-2.3091,-2.3091,-2.3091,-2.3091,-2.3091,-2.3091,-2.3091,-2.3091,-2.3091,-2.3091,-2.3091,-2.3091,-2.3091,-2.3091,-2.3091,-2.3091,-2.3091,-2.3091,-2.3091,-2.3091,-2.3091,-2.3091,-2.3091,-2.3091,-2.3091,-2.3091,-2.3091,-2.3091,-2.3091,-2.3091,-2.3091,-2.3091,-2.3091,-2.3091,-2.3091,-2.3091,-2.3091,-2.3091,0.0,0.0,0.0,-2.0937,-2.1514,-2.1943,-2.2373,-2.248,-2.248,-2.249,-2.249,-2.2627,-2.3003,-2.3028,-2.3038,-2.3047,-2.3091,-2.3247,-2.3711,-2.3769,0.0,0.0,0.0,0.0,0.0,0.0,0.0,0.0,-2.3091,-2.3091,-2.3091,-2.3545,-2.3769,-2.3769,-2.3769,-2.4067,-2.4755,-2.3627,-2.3671,-2.4724,-2.3607,-2.3081,-2.3081,-2.3081,-2.3081,-2.3091,-2.3091,-2.3091,-2.3091,-2.3091,-2.3091,-2.3091,-2.3091,-2.3091,-2.3091,-2.3091,-2.3091,-2.3091,-2.3091,-2.3091,-2.3091,-2.3091,-2.3091,-2.3091,-2.3091,-2.3091,-2.3091,-2.3091,-2.3091,-2.3091,-2.3091,-2.3091,-2.3091,-2.3091,-2.3091,-2.3091,-2.3091,-2.3091,-2.3091,-2.3091,-2.3091,-2.3091,-2.3091,-2.3091,-2.3091,-2.3091,-2.3091,-2.3091,-2.3091,-2.3091,-2.3091,-2.3091,-2.3091,-2.3091,-2.3091,-2.3091,-2.3091,-2.3091,-2.3091,-2.3091,-2.3091,-2.3091,-2.3091,-2.3091,-2.3091,-2.3101,-2.311,-2.3101,-2.3091,-2.3091,-2.3091,-2.3091,-1.8695,0.0,0.0,0.0,0.0,0.0,-2.1375,-2.1551,-2.168,-2.1992,-2.206,-2.2187,-2.2607,-2.1958,-2.1468,-2.1754,-2.2536,-2.314,-2.3257,-2.3276,0.0,0.0,0.0,0.0,0.0,0.0,0.0,0.0,-2.3091,-2.3091,-2.3091,-2.3208,-2.3276,-2.3276,-2.3276,-2.3384,-2.3551,-2.3266,-2.3109,-2.3135,-2.2804,-2.2685,-2.2685,-2.2685,-2.2808,-2.3091,-2.3091,-2.3091,-2.3091,-2.3091,-2.3091,-2.3091,-2.3091,-2.3091,-2.3091,-2.3091,-2.3091,-2.3091,-2.3091,-2.3091,-2.3091,-2.3091,-2.3091,-2.3091,-2.3091,-2.3091,-2.3091,-2.3091,-2.3091,-2.3091,-2.3091,-2.3091,-2.3091,-2.3091,-2.3091,-2.3091,-2.3091,-2.3091,-2.3091,-2.3091,-2.3091,-2.3091,-2.3091,-2.3091,-2.3091,-2.3091,-2.3091,-2.3091,-2.3091,-2.3091,-2.3091,-2.3091,-2.3091,-2.3091,-2.3091,-2.3091,-2.3091,-2.3091,-2.3091,-2.3091,-2.3091,-2.3091,-2.3091,-2.3091,-2.3091,-2.3247,-2.3603,-2.3247,-2.3091,-2.3091,-2.3091,-2.3091,-1.8325,-1.8344,-1.8549,-1.9434,0.0,0.0,-2.045,-2.0547,-2.0547,0.0,-2.1064,-2.125,-2.1865,-2.1016,-2.0409,-2.0959,-2.1244,-2.1669,-2.2243,-2.235,0.0,0.0,0.0,0.0,0.0,-2.3091,-2.3091,-2.3091,-2.3091,-2.3091,-2.3091,-2.3091,-2.2862,-2.2359,-2.2818,-2.2775,-2.2104,-2.2602,-2.2666,-2.2246,-2.2246,-2.2344,-2.251,-2.251,-2.2744,-2.3091,-2.3091,-2.3091,-2.3091,-2.3091,-2.3091,-2.3091,-2.3091,-2.3091,-2.3091,-2.3091,-2.3091,-2.3091,-2.3091,-2.3091,-2.3091,-2.3091,-2.3091,-2.3091,-2.3091,-2.3091,-2.3091,-2.3091,-2.3091,-2.3091,-2.3091,-2.3091,-2.3091,-2.3091,-2.3091,-2.3091,-2.3091,-2.3091,-2.3091,-2.3091,-2.3091,-2.3091,-2.3091,-2.3091,-2.3091,-2.3091,-2.3091,-2.3091,-2.3091,-2.3091,-2.3091,-2.3091,-2.3091,-2.3091,-2.3091,-2.3091,-2.3091,-2.3091,-2.3091,-2.3091,-2.3091,-2.3091,-2.3091,-2.3091,-2.3091,-2.3305,-2.3789,-2.3535,-2.3408,-2.3408,-2.3179,-2.3091,-1.8242,-1.8144,-1.834,-1.9102,-1.8994,0.0,-1.9668,-1.959,-1.9463,0.0,-1.9951,-2.0244,-2.1044,-2.0304,-1.9828,-2.0526,-1.9764,-1.9529,-2.0926,-2.1114,-2.1525,0.0,0.0,0.0,-2.3101,-2.3091,-2.3091,-2.3091,-2.3091,-2.3091,-2.3091,-2.3091,-2.2545,-2.1337,-2.2312,-2.2157,-2.0716,-2.175,-2.21,-2.1816,-2.1816,-2.2031,-2.2441,-2.2441,-2.2695,-2.3091,-2.3091,-2.3091,-2.3091,-2.3091,-2.3091,-2.3091,-2.3091,-2.3091,-2.3091,-2.3091,-2.3091,-2.3091,-2.3091,-2.3091,-2.3091,-2.3091,-2.3091,-2.3091,-2.3091,-2.3091,-2.3091,-2.3091,-2.3091,-2.3091,-2.3091,-2.3091,-2.3091,-2.3091,-2.3091,-2.3091,-2.3091,-2.3091,-2.3091,-2.3091,-2.3091,-2.3091,-2.3091,-2.3091,-2.3091,-2.3091,-2.3091,-2.3091,-2.3091,-2.3091,-2.3091,-2.3091,-2.3091,-2.3091,-2.3091,-2.3091,-2.3091,-2.3091,-2.3091,-2.3091,-2.3091,-2.3091,-2.3091,-2.3091,-2.314,-2.3398,-2.3789,-2.3789,-2.3789,-2.3779,-2.3344,-2.314,-1.8965,-1.9043,-1.9082,-1.9248,-1.9219,0.0,-1.9375,-1.9609,-1.9814,0.0,-2.0195,-2.0605,-2.1103,-2.0223,-1.9605,-2.0072,-1.9409,-1.9076,-1.9756,-1.9852,-2.0305,0.0,0.0,0.0,-2.3003,-2.3091,-2.3091,-2.3091,-2.3091,-2.3091,-2.3091,-2.3091,-2.2545,-2.1337,-2.1302,-2.1154,-2.0716,-2.0656,-2.0861,-2.1317,-2.1317,-2.1592,-2.2012,-2.2012,-2.2422,-2.3091,-2.3091,-2.3091,-2.3091,-2.3091,-2.3091,-2.3091,-2.3091,-2.3091,-2.3091,-2.3091,-2.3091,-2.3091,-2.3091,-2.3091,-2.3091,-2.3091,-2.3091,-2.3091,-2.3091,-2.3091,-2.3091,-2.3091,-2.3091,-2.3091,-2.3091,-2.3091,-2.3091,-2.3091,-2.3091,-2.3091,-2.3091,-2.3091,-2.3091,-2.3091,-2.3091,-2.3091,-2.3091,-2.3091,-2.3091,-2.3091,-2.3091,-2.3091,-2.3091,-2.3091,-2.3091,-2.3091,-2.3091,-2.3091,-2.3091,-2.3091,-2.3091,-2.3091,-2.3091,-2.3091,-2.3091,-2.3091,-2.3091,-2.3091,-2.3486,-2.3711,-2.3789,-2.3789,-2.3789,-2.3789,-2.3701,-2.3477,-1.9023,-1.8965,0.0,-1.8965,0.0,0.0,0.0,-1.9453,-1.96,-1.96,-1.96,-1.9736,-2.0176,-1.9301,-1.8802,-1.9581,-1.8888,-1.8584,-1.9389,-1.9497,-1.9716,-2.035,0.0,0.0,-2.2129,-2.2775,-2.3091,-2.3091,-2.3091,-2.3091,-2.3091,-2.2896,-2.224,-2.1048,-2.0712,-2.0413,-2.0045,-1.9973,-2.0226,-2.0898,-2.0898,-2.125,-2.1885,-2.1885,-2.2344,-2.3091,-2.3091,-2.3091,-2.3091,-2.3091,-2.3091,-2.3091,-2.3091,-2.3091,-2.3091,-2.3091,-2.3091,-2.3091,-2.3091,-2.3091,-2.3091,-2.3091,-2.3091,-2.3091,-2.3091,-2.3091,-2.3091,-2.3091,-2.3091,-2.3091,-2.3091,-2.3091,-2.3091,-2.3091,-2.3091,-2.3091,-2.3091,-2.3091,-2.3091,-2.3091,-2.3091,-2.3091,-2.3091,-2.3091,-2.3091,-2.3091,-2.3276,-2.3344,-2.312,-2.3286,-2.3379,-2.312,-2.3091,-2.3091,-2.3091,-2.3091,-2.3091,-2.3091,-2.3091,-2.3091,-2.3091,-2.3091,-2.3091,-2.3091,-2.3305,-2.3574,-2.3789,-2.3789,-2.3789,-2.3779,-2.3564,-2.3305,0.0,0.0,0.0,0.0,0.0,-1.9072,0.0,0.0,0.0,-1.9404,-1.9131,-1.8978,-1.9453,0.0,0.0,0.0,0.0,0.0,0.0,-1.9505,0.0,-1.9835,0.0,0.0,-2.1614,-2.2536,-2.3091,-2.3091,-2.3091,-2.3062,-2.2984,-2.2695,-2.1888,-2.0607,-2.0253,-1.985,-1.942,-1.9462,-1.9876,-2.0605,-2.0605,-2.1075,-2.1885,-2.1885,-2.2344,-2.3091,-2.3091,-2.3091,-2.3091,-2.3091,-2.3091,-2.3091,-2.3091,-2.3091,-2.3091,-2.3091,-2.3091,-2.3091,-2.3091,-2.3091,-2.3091,-2.3091,-2.3091,-2.3091,-2.3091,-2.3091,-2.3091,-2.3091,-2.3091,-2.3091,-2.3091,-2.3091,-2.3091,-2.3091,-2.3091,-2.3091,-2.3091,-2.3091,-2.3091,-2.3091,-2.3091,-2.3091,-2.3091,-2.3091,-2.3091,-2.3091,-2.3516,-2.3662,-2.3266,-2.3574,-2.3652,-2.3257,-2.314,-2.3091,-2.3091,-2.3091,-2.3091,-2.3091,-2.3091,-2.3091,-2.3091,-2.3091,-2.3091,-2.3091,-2.3091,-2.331,-2.3662,-2.3662,-2.3711,-2.3779,-2.3428,-2.3179,0.0,0.0,0.0,0.0,-2.0644,0.0,0.0,0.0,-1.9844,-1.9844,0.0,-1.9902,-2.038,0.0,0.0,0.0,0.0,0.0,-1.8941,-1.9472,-2.025,-2.0989,-2.1203,0.0,0.0,-2.3003,-2.3091,-2.3091,-2.3091,-2.2925,-2.2607,-2.2539,-2.1755,-2.0108,-1.9805,-1.9579,-1.9411,-1.92,-1.9566,-2.0605,-2.0605,-2.1075,-2.1885,-2.1885,-2.2344,-2.3091,-2.3091,-2.3091,-2.3091,-2.3091,-2.3091,-2.3091,-2.3091,-2.3091,-2.3091,-2.3091,-2.3091,-2.3091,-2.3091,-2.3091,-2.3091,-2.3091,-2.3091,-2.3091,-2.3091,-2.3091,-2.3091,-2.3091,-2.3091,-2.3091,-2.3091,-2.3091,-2.3091,-2.3091,-2.3091,-2.3091,-2.3091,-2.3091,-2.3091,-2.3091,-2.3091,-2.3091,-2.3091,-2.3091,-2.3091,-2.3091,-2.3516,-2.3769,-2.3721,-2.376,-2.3769,-2.3721,-2.3369,-2.3091,-2.3091,-2.3091,-2.3091,-2.3091,-2.3091,-2.3091,-2.3091,-2.3091,-2.3091,-2.3091,-2.3091,-2.312,-2.3169,-2.3169,-2.3408,-2.3789,-2.374,-2.3506,0.0,0.0,0.0,0.0,0.0,0.0,-1.9951,0.0,-2.0225,0.0,0.0,0.0,0.0,0.0,0.0,0.0,-2.0488,0.0,0.0,0.0,-2.0471,0.0,0.0,0.0,0.0,0.0,0.0,0.0,-2.2818,-2.2808,-2.2187,-2.2148,-2.1684,-2.074,-1.9742,-1.9531,-2.0089,-1.9366,-1.952,-2.0605,-2.0605,-2.1075,-2.1885,-2.1885,-2.2344,-2.3091,-2.3091,-2.3091,-2.3091,-2.3091,-2.3091,-2.3091,-2.3091,-2.3091,-2.3091,-2.3091,-2.3091,-2.3091,-2.3091,-2.3091,-2.3091,-2.3091,-2.2633,-2.2076,-2.2076,-2.2076,-2.2076,-2.2076,-2.2536,-2.3091,-2.3091,-2.2589,-2.2217,-2.295,-2.2589,-2.2262,-2.296,-2.3091,-2.3091,-2.3091,-2.3091,-2.3091,-2.3091,-2.3091,-2.3091,-2.3091,-2.3721,-2.3779,-2.2757,-2.2925,-2.2981,-2.2657,-2.2292,-2.235,-2.3047,-2.3091,-2.3091,-2.3091,-2.3091,-2.3091,-2.3091,-2.3091,-2.3091,-2.3091,-2.3091,-2.3091,-2.3091,-2.3091,-2.3188,-2.3364,-2.2669,-2.2244,-2.1483,0.0,0.0,0.0,0.0,0.0,0.0,0.0,0.0,0.0,0.0,0.0,0.0,0.0,0.0,-2.0332,0.0,-2.0615,0.0,-2.1172,0.0,0.0,0.0,0.0,0.0,0.0,0.0,-2.209,-2.2627,-2.2598,-2.1758,-2.1709,-2.1504,-2.1064,-2.0004,-1.9795,-2.0605,-1.9844,-1.9844,-2.0605,-2.0605,-2.1075,-2.1885,-2.1768,-2.2227,-2.3091,-2.2974,-2.2984,-2.3091,-2.3091,-2.3091,-2.3091,-2.3091,-2.3091,-2.3047,-2.2731,-2.2818,-2.3003,-2.2315,-2.2094,-2.2094,-2.2094,-2.1534,-2.08,-2.08,-2.1025,-2.1248,-2.089,-2.1667,-2.2545,-2.2183,-2.1445,-2.1033,-2.1908,-2.1712,-2.1525,-2.2403,-2.2862,-2.3091,-2.3091,-2.3091,-2.3091,-2.3091,-2.3091,-2.3091,-2.3091,-2.3541,-2.3401,-2.2131,-2.209,-2.2176,-2.2136,-2.1688,-2.1931,-2.3178,-2.3169,-2.296,-2.2633,-2.2633,-2.2633,-2.2633,-2.2906,-2.3091,-2.3091,-2.3091,-2.3091,-2.3091,-2.3091,-2.3091,-2.3091,-2.2217,-2.1614,0.0,0.0,0.0,-2.1738,0.0,0.0,0.0,0.0,-2.1217,0.0,0.0,0.0,0.0,0.0,-1.9922,-1.9932,-1.9932,0.0,0.0,0.0,0.0,0.0,0.0,0.0,0.0,0.0,-2.2896,-2.2519,-2.2519,-2.2158,-2.1259,-2.122,-2.1055,-2.0635,-2.0566,-2.0566,-2.0605,-2.0566,-2.0566,-2.0605,-2.0605,-2.1075,-2.1875,-2.1445,-2.1902,-2.3071,-2.2672,-2.2721,-2.3091,-2.3091,-2.3091,-2.3091,-2.3091,-2.3091,-2.296,-2.18,-2.2076,-2.2775,-2.0449,-1.9633,-1.9633,-1.9633,-1.9588,-1.9534,-1.9534,-2.0395,-2.1069,-1.9898,-2.044,-2.1069,-1.9898,-1.9588,-1.9588,-1.9633,-2.0486,-2.1293,-2.1337,-2.2262,-2.3091,-2.3091,-2.3091,-2.3091,-2.3091,-2.3091,-2.3091,-2.3091,-2.2749,-2.2463,-2.2398,-2.1605,-2.1524,-2.2809,-2.2272,-2.2327,-2.367,-2.3379,-2.2589,-2.1426,-2.1337,-2.1337,-2.1337,-2.2492,-2.3091,-2.3091,-2.3091,-2.3091,-2.3091,-2.3091,-2.3091,-2.3091,-2.3047,-2.2403,0.0,0.0,-2.1768,-2.2197,0.0,0.0,0.0,0.0,0.0,0.0,0.0,0.0,0.0,0.0,-2.0342,-2.0342,-2.0342,-2.0342,0.0,0.0,0.0,0.0,0.0,0.0,0.0,0.0,0.0,-2.1609,-2.1629,-2.1502,-2.121,-2.119,-2.1025,-2.0615,-2.0605,-2.0605,-2.0605,-2.0605,-2.0605,-2.0605,-2.0605,-2.1075,-2.1865,-2.1395,-2.1892,-2.3071,-2.2652,-2.2711,-2.3091,-2.3091,-2.3091,-2.3091,-2.3091,-2.3091,-2.295,-2.1756,-2.1569,-2.1667,-2.0079,-1.9497,-1.9497,-1.9497,-1.9497,-1.9497,-1.9497,-2.035,-2.1069,-1.9852,-2.035,-2.1025,-1.9807,-1.891,-1.8503,-1.9314,-1.9177,-1.936,-2.098,-2.1614,-2.212,-2.295,-2.3091,-2.3188,-2.3516,-2.3574,-2.3467,-2.314,-2.257,-2.1886,-2.1176,-2.0151,-1.993,-2.1147,-2.0843,-2.1294,-2.3202,-2.3179,-2.2916,-2.2536,-2.2492,-2.2492,-2.2492,-2.2862,-2.3091,-2.3091,-2.3091,-2.3091,-2.3091,-2.3091,-2.2677,-2.1889,-2.1889,-2.1257,-2.2178,-2.1982,0.0,-2.2178,-2.1416,0.0,-2.0762,0.0,0.0,0.0,0.0,0.0,0.0,0.0,-2.1413,-2.0712,-2.0895,-2.0913,0.0,-2.0243,0.0,0.0,0.0,0.0,0.0,-2.1201,-2.1084,-2.1181,-2.119,-2.1132,0.0,0.0,-2.0869,-2.0615,-2.0605,-2.0605,-2.0605,-2.0605,-2.0605,-2.0605,-2.0605,-2.1075,-2.1865,-2.1395,-2.1892,-2.3071,-2.2652,-2.2711,-2.3091,-2.3091,-2.3091,-2.3091,-2.3091,-2.3091,-2.295,-2.1747,-2.0755,-1.9898,-1.9131,-1.858,-1.8164,-1.8164,-1.8495,-1.8864,-1.8864,-1.9716,-2.0395,-1.9177,-1.9405,-1.9761,-1.848,-1.7623,-1.7217,-1.7987,-1.8265,-1.8772,-2.0305,-2.1346,-2.2164,-2.296,-2.3091,-2.3227,-2.3711,-2.3662,-2.3516,-2.3389,-2.2364,-2.132,-2.0513,-1.909,-1.8771,-2.0419,-2.0179,-2.0764,-2.2901,-2.2721,-2.2448,-2.2448,-2.2448,-2.2448,-2.2448,-2.2448,-2.2821,-2.3549,-2.283,-2.2821,-2.3549,-2.3247,-2.2492,-2.1293,-2.1293,-2.044]},{"header":{"parameterUnit":"m.s-1","parameterCategory":1,"la1":30.6,"la2":29.2853,"lo1":-89.7004,"lo2":-87.6739,"dy":0.0162,"dx":0.0183,"nx":112,"ny":82,"refTime":"2023-09-05T12:00:00:Z","depth":0,"parameterNumber":3,"parameterNumberName":"V-component_of_WINDS"},"data":[0.0,0.0,0.0,0.0,0.0,0.0,0.0,0.0,0.0,0.0,0.0,0.0,0.0,0.0,0.0,0.0,0.0,0.0,0.0,0.0,0.0,0.0,0.0,0.0,0.0,0.0,0.0,0.0,0.0,0.0,0.0,0.0,0.0,0.0,0.0,0.0,0.0,0.0,0.0,0.0,0.0,0.0,0.0,0.0,0.0,0.0,0.0,0.0,0.0,0.0,0.0,0.0,0.0,0.0,0.0,0.0,0.0,0.0,0.0,0.0,0.0,0.0,0.0,0.0,0.0,0.0,0.0,0.0,0.0,0.0,0.0,0.0,0.0,0.0,0.0,0.0,0.0,0.0,0.0,0.0,0.0,0.0,0.0,0.0,0.0,0.0,0.0,0.0,0.0,0.0,3.209,3.2429,3.3034,3.3322,3.3085,3.1816,3.0395,2.8908,0.0,0.0,0.0,0.0,0.0,0.0,0.0,0.0,0.0,0.0,0.0,0.0,0.0,0.0,0.0,0.0,0.0,0.0,0.0,0.0,0.0,0.0,0.0,0.0,0.0,0.0,0.0,0.0,0.0,0.0,0.0,0.0,0.0,0.0,0.0,0.0,0.0,0.0,0.0,0.0,0.0,0.0,0.0,0.0,0.0,0.0,0.0,0.0,0.0,0.0,0.0,0.0,0.0,0.0,0.0,0.0,0.0,0.0,0.0,0.0,0.0,0.0,0.0,0.0,0.0,0.0,0.0,0.0,0.0,0.0,0.0,0.0,0.0,0.0,0.0,0.0,0.0,0.0,0.0,0.0,0.0,0.0,0.0,0.0,0.0,0.0,0.0,0.0,0.0,0.0,0.0,0.0,0.0,0.0,0.0,0.0,0.0,0.0,0.0,0.0,0.0,0.0,0.0,0.0,3.1157,3.3034,3.3339,3.2899,3.163,3.0768,2.9599,2.8077,0.0,0.0,0.0,0.0,0.0,0.0,0.0,0.0,0.0,0.0,0.0,0.0,0.0,0.0,0.0,0.0,0.0,0.0,0.0,0.0,0.0,0.0,0.0,0.0,0.0,0.0,0.0,0.0,0.0,0.0,0.0,0.0,0.0,0.0,0.0,0.0,0.0,0.0,0.0,0.0,0.0,0.0,0.0,0.0,0.0,0.0,0.0,0.0,0.0,0.0,0.0,0.0,0.0,0.0,0.0,0.0,0.0,0.0,0.0,0.0,0.0,0.0,0.0,0.0,0.0,0.0,0.0,0.0,0.0,0.0,0.0,0.0,0.0,0.0,0.0,0.0,0.0,0.0,0.0,0.0,0.0,0.0,0.0,0.0,0.0,0.0,0.0,0.0,0.0,0.0,0.0,0.0,0.0,0.0,0.0,0.0,0.0,0.0,0.0,0.0,0.0,0.0,0.0,3.1106,3.1833,3.3254,3.3034,3.2527,3.1853,3.0398,2.9085,2.8068,2.7852,0.0,0.0,0.0,0.0,0.0,0.0,0.0,0.0,0.0,0.0,0.0,0.0,0.0,0.0,0.0,0.0,0.0,0.0,0.0,0.0,0.0,0.0,0.0,0.0,0.0,0.0,0.0,0.0,0.0,0.0,0.0,0.0,0.0,0.0,0.0,0.0,0.0,0.0,0.0,0.0,0.0,0.0,0.0,0.0,0.0,0.0,0.0,0.0,0.0,0.0,0.0,0.0,0.0,0.0,0.0,0.0,0.0,0.0,0.0,0.0,0.0,0.0,0.0,0.0,0.0,0.0,0.0,0.0,0.0,0.0,0.0,0.0,0.0,0.0,0.0,0.0,0.0,0.0,0.0,0.0,0.0,0.0,0.0,0.0,0.0,0.0,0.0,0.0,0.0,0.0,0.0,0.0,0.0,0.0,0.0,0.0,0.0,0.0,0.0,0.0,0.0,0.0,3.2547,3.2581,3.3322,3.2577,3.1904,3.1549,2.9636,2.829,2.7871,2.6958,0.0,0.0,0.0,0.0,0.0,0.0,0.0,0.0,0.0,0.0,0.0,0.0,0.0,0.0,0.0,0.0,0.0,0.0,0.0,0.0,0.0,0.0,0.0,0.0,0.0,0.0,0.0,0.0,0.0,0.0,0.0,0.0,0.0,0.0,0.0,0.0,0.0,0.0,0.0,0.0,0.0,0.0,0.0,0.0,0.0,0.0,0.0,0.0,0.0,0.0,0.0,0.0,0.0,0.0,0.0,0.0,0.0,0.0,0.0,0.0,0.0,0.0,0.0,0.0,0.0,0.0,0.0,0.0,0.0,0.0,0.0,0.0,0.0,0.0,0.0,0.0,0.0,0.0,0.0,0.0,0.0,0.0,0.0,0.0,0.0,0.0,0.0,0.0,0.0,0.0,0.0,0.0,0.0,0.0,0.0,0.0,0.0,0.0,0.0,0.0,0.0,0.0,3.1921,3.2581,3.3322,3.2138,3.0736,2.9348,2.7791,2.686,2.6809,2.61,0.0,0.0,0.0,0.0,0.0,0.0,0.0,0.0,0.0,0.0,0.0,0.0,0.0,0.0,0.0,0.0,0.0,0.0,0.0,0.0,0.0,0.0,0.0,0.0,0.0,0.0,0.0,0.0,0.0,0.0,0.0,0.0,0.0,0.0,0.0,0.0,0.0,0.0,0.0,0.0,0.0,0.0,0.0,0.0,0.0,0.0,0.0,0.0,0.0,0.0,0.0,0.0,0.0,0.0,0.0,0.0,0.0,0.0,0.0,0.0,0.0,0.0,0.0,0.0,0.0,0.0,0.0,0.0,0.0,0.0,0.0,0.0,0.0,0.0,0.0,0.0,0.0,0.0,0.0,0.0,0.0,0.0,0.0,0.0,0.0,0.0,0.0,0.0,0.0,0.0,0.0,0.0,0.0,0.0,0.0,0.0,0.0,0.0,0.0,0.0,0.0,0.0,3.2141,3.2581,0.0,3.1681,3.0294,2.9736,2.7841,2.6758,2.6946,0.0,0.0,0.0,0.0,0.0,0.0,0.0,0.0,0.0,0.0,0.0,0.0,0.0,0.0,0.0,0.0,0.0,0.0,0.0,0.0,0.0,0.0,0.0,0.0,0.0,0.0,0.0,0.0,0.0,0.0,0.0,0.0,0.0,0.0,0.0,0.0,0.0,0.0,0.0,0.0,0.0,0.0,0.0,0.0,0.0,0.0,0.0,0.0,0.0,0.0,0.0,0.0,0.0,0.0,0.0,0.0,0.0,0.0,0.0,0.0,0.0,0.0,0.0,0.0,0.0,0.0,0.0,0.0,0.0,0.0,0.0,0.0,0.0,0.0,0.0,0.0,0.0,0.0,0.0,0.0,0.0,0.0,0.0,0.0,0.0,0.0,0.0,0.0,0.0,0.0,0.0,0.0,0.0,0.0,0.0,0.0,0.0,0.0,0.0,0.0,0.0,0.0,3.2107,3.2293,3.2581,0.0,3.1207,2.9753,2.9753,2.7435,2.6286,2.6943,0.0,0.0,0.0,0.0,0.0,0.0,0.0,0.0,0.0,0.0,0.0,0.0,0.0,0.0,0.0,0.0,0.0,0.0,0.0,0.0,0.0,0.0,0.0,0.0,0.0,0.0,0.0,0.0,0.0,0.0,0.0,0.0,0.0,0.0,0.0,0.0,0.0,0.0,0.0,0.0,0.0,0.0,0.0,0.0,0.0,0.0,0.0,0.0,0.0,0.0,0.0,0.0,0.0,0.0,0.0,0.0,0.0,0.0,0.0,0.0,0.0,0.0,0.0,0.0,0.0,0.0,0.0,0.0,0.0,0.0,0.0,0.0,0.0,0.0,0.0,0.0,0.0,0.0,0.0,0.0,0.0,0.0,0.0,0.0,0.0,0.0,0.0,0.0,0.0,0.0,0.0,0.0,0.0,0.0,0.0,0.0,0.0,0.0,0.0,0.0,0.0,0.0,3.2124,3.231,3.2598,3.3322,3.0751,2.8993,2.8993,2.6234,2.5134,0.0,0.0,0.0,0.0,0.0,0.0,0.0,0.0,0.0,0.0,0.0,0.0,0.0,0.0,0.0,0.0,0.0,0.0,0.0,0.0,0.0,0.0,0.0,0.0,0.0,0.0,0.0,0.0,0.0,0.0,0.0,0.0,0.0,0.0,0.0,0.0,0.0,0.0,0.0,0.0,0.0,0.0,0.0,0.0,0.0,0.0,0.0,0.0,0.0,0.0,0.0,0.0,0.0,0.0,0.0,0.0,0.0,0.0,0.0,0.0,0.0,0.0,0.0,0.0,0.0,0.0,0.0,0.0,0.0,0.0,0.0,0.0,0.0,0.0,0.0,0.0,0.0,0.0,0.0,0.0,0.0,0.0,0.0,0.0,0.0,0.0,0.0,0.0,0.0,0.0,0.0,0.0,0.0,0.0,0.0,0.0,0.0,0.0,0.0,0.0,0.0,0.0,0.0,3.2882,3.3068,3.3169,3.3389,3.0751,2.8993,2.8993,2.6234,2.5134,2.6623,0.0,0.0,0.0,0.0,0.0,0.0,0.0,0.0,0.0,0.0,0.0,0.0,0.0,0.0,0.0,0.0,0.0,0.0,0.0,0.0,0.0,0.0,0.0,0.0,0.0,0.0,0.0,0.0,0.0,0.0,0.0,0.0,0.0,0.0,0.0,0.0,0.0,0.0,0.0,0.0,0.0,0.0,0.0,0.0,0.0,0.0,0.0,0.0,0.0,0.0,0.0,0.0,0.0,0.0,0.0,0.0,0.0,0.0,0.0,0.0,0.0,0.0,0.0,0.0,0.0,0.0,0.0,0.0,0.0,0.0,0.0,0.0,0.0,0.0,0.0,0.0,0.0,0.0,0.0,0.0,0.0,0.0,0.0,0.0,0.0,0.0,0.0,0.0,0.0,0.0,0.0,0.0,0.0,0.0,0.0,0.0,0.0,0.0,0.0,0.0,0.0,0.0,3.322,3.3406,3.3288,3.2983,3.0584,2.8874,2.8552,2.6319,2.532,2.6201,0.0,0.0,0.0,0.0,0.0,0.0,0.0,0.0,0.0,0.0,0.0,0.0,0.0,0.0,0.0,0.0,0.0,0.0,0.0,0.0,0.0,0.0,0.0,0.0,0.0,0.0,0.0,0.0,0.0,0.0,0.0,0.0,0.0,0.0,0.0,0.0,0.0,0.0,0.0,0.0,0.0,0.0,0.0,0.0,0.0,0.0,0.0,0.0,0.0,0.0,0.0,0.0,0.0,0.0,0.0,0.0,0.0,0.0,0.0,0.0,0.0,0.0,0.0,0.0,0.0,0.0,0.0,0.0,0.0,0.0,0.0,0.0,0.0,0.0,0.0,0.0,0.0,0.0,0.0,0.0,0.0,0.0,0.0,0.0,0.0,0.0,0.0,0.0,0.0,0.0,0.0,0.0,0.0,0.0,0.0,0.0,0.0,0.0,0.0,0.0,0.0,0.0,3.3322,3.344,3.3136,3.2479,3.0364,2.8687,2.7976,2.6488,2.5626,2.571,0.0,0.0,0.0,0.0,0.0,0.0,0.0,0.0,0.0,0.0,0.0,0.0,0.0,0.0,0.0,0.0,0.0,0.0,0.0,0.0,0.0,0.0,0.0,0.0,0.0,0.0,0.0,0.0,0.0,0.0,0.0,0.0,0.0,0.0,0.0,0.0,0.0,0.0,0.0,0.0,0.0,0.0,0.0,0.0,0.0,0.0,0.0,0.0,0.0,0.0,0.0,0.0,0.0,0.0,0.0,0.0,0.0,0.0,0.0,0.0,2.7967,0.0,0.0,0.0,0.0,0.0,0.0,0.0,0.0,0.0,0.0,0.0,0.0,0.0,0.0,0.0,0.0,0.0,0.0,0.0,0.0,0.0,0.0,0.0,0.0,0.0,0.0,0.0,0.0,0.0,0.0,0.0,0.0,0.0,0.0,0.0,0.0,0.0,0.0,0.0,0.0,0.0,3.4066,3.3761,3.3339,3.3186,3.0685,2.8942,2.8773,2.681,2.5862,2.642,2.5815,0.0,0.0,0.0,0.0,0.0,0.0,0.0,0.0,0.0,0.0,0.0,0.0,0.0,0.0,0.0,0.0,0.0,0.0,0.0,0.0,0.0,0.0,0.0,0.0,0.0,0.0,0.0,0.0,0.0,0.0,0.0,0.0,0.0,0.0,0.0,0.0,0.0,0.0,0.0,0.0,0.0,0.0,0.0,0.0,0.0,0.0,0.0,0.0,0.0,0.0,0.0,0.0,0.0,0.0,0.0,0.0,0.0,0.0,0.0,0.0,2.9319,0.0,0.0,0.0,0.0,0.0,0.0,0.0,0.0,0.0,0.0,0.0,0.0,0.0,0.0,0.0,0.0,0.0,0.0,0.0,0.0,0.0,0.0,0.0,0.0,0.0,0.0,0.0,0.0,0.0,0.0,0.0,0.0,0.0,0.0,0.0,0.0,0.0,0.0,0.0,0.0,3.4303,3.3863,3.3271,3.2899,3.0869,2.9228,2.8484,2.7334,2.6522,2.6184,2.615,0.0,0.0,0.0,0.0,0.0,0.0,0.0,0.0,0.0,0.0,0.0,0.0,0.0,0.0,0.0,0.0,0.0,0.0,0.0,0.0,0.0,0.0,0.0,0.0,0.0,0.0,0.0,0.0,0.0,0.0,0.0,0.0,0.0,0.0,0.0,0.0,0.0,0.0,0.0,0.0,0.0,0.0,0.0,0.0,0.0,0.0,0.0,0.0,0.0,0.0,0.0,0.0,0.0,3.5096,3.5701,3.7207,3.605,3.5428,3.523,3.3391,3.2654,3.2614,3.1513,0.0,0.0,0.0,0.0,0.0,0.0,0.0,0.0,0.0,0.0,0.0,0.0,0.0,0.0,0.0,0.0,0.0,0.0,0.0,0.0,0.0,0.0,0.0,0.0,3.0687,3.0071,0.0,0.0,0.0,0.0,0.0,0.0,0.0,0.0,0.0,0.0,0.0,0.0,3.4336,3.3964,3.3305,3.2581,3.1173,2.9685,2.8145,2.7874,2.7232,2.5896,2.6353,2.6505,0.0,0.0,0.0,0.0,0.0,0.0,0.0,0.0,0.0,0.0,0.0,0.0,0.0,0.0,0.0,0.0,0.0,0.0,0.0,0.0,0.0,0.0,0.0,0.0,0.0,0.0,0.0,0.0,0.0,0.0,0.0,0.0,3.0136,3.0746,0.0,0.0,0.0,0.0,0.0,0.0,0.0,0.0,0.0,0.0,0.0,0.0,0.0,3.4992,3.6059,3.6874,3.77,3.8456,3.8948,3.898,3.863,3.8453,3.8008,3.739,3.7093,0.0,3.3534,3.3349,0.0,0.0,0.0,0.0,0.0,0.0,0.0,0.0,0.0,0.0,0.0,0.0,0.0,0.0,0.0,0.0,0.0,0.0,0.0,0.0,0.0,0.0,3.1898,3.1466,3.1376,3.1273,0.0,3.0587,3.034,3.0253,2.987,0.0,0.0,0.0,0.0,0.0,0.0,0.0,3.4472,3.4404,3.4066,3.3339,3.1935,3.0446,2.8976,2.8213,2.7435,2.6607,2.664,2.7007,2.775,2.7307,0.0,0.0,0.0,0.0,0.0,0.0,0.0,0.0,0.0,0.0,0.0,0.0,0.0,0.0,0.0,0.0,0.0,0.0,0.0,0.0,0.0,0.0,0.0,0.0,0.0,0.0,0.0,0.0,0.0,3.1986,3.2488,3.1986,3.208,3.2048,0.0,0.0,0.0,0.0,0.0,0.0,0.0,0.0,0.0,3.7014,3.7132,3.7454,3.8087,3.9215,4.0148,4.0851,4.1144,4.1331,4.143,4.1016,4.0409,3.9704,3.9704,3.8543,3.6559,3.5788,3.5191,3.4769,0.0,0.0,0.0,0.0,3.4249,3.3368,3.3796,3.3322,0.0,3.1067,0.0,0.0,0.0,0.0,0.0,0.0,0.0,0.0,0.0,0.0,0.0,3.317,3.2901,3.2841,3.3573,3.3275,3.2504,0.0,3.2056,3.2577,3.1674,0.0,0.0,0.0,0.0,3.4184,3.5013,3.4759,3.4218,3.3491,3.2442,3.1227,2.9736,2.8924,2.8332,2.8011,2.7255,2.7199,2.8063,2.7883,2.7774,0.0,0.0,0.0,0.0,0.0,0.0,0.0,0.0,0.0,0.0,0.0,0.0,0.0,0.0,0.0,0.0,0.0,0.0,0.0,0.0,0.0,0.0,0.0,0.0,0.0,0.0,0.0,0.0,3.4262,3.4502,3.317,3.3888,3.4191,0.0,0.0,0.0,0.0,0.0,0.0,3.7917,3.8868,3.9475,3.9674,4.0157,4.0404,4.0446,4.1708,4.253,4.2891,4.2896,4.3064,4.3375,4.2828,4.2185,4.1474,4.1288,4.0563,3.9355,3.7769,3.6775,3.6289,3.6123,3.6172,3.6337,3.6689,3.6133,3.5365,3.6121,3.5949,3.5096,3.3391,0.0,3.3676,3.0951,0.0,0.0,0.0,0.0,3.2984,3.3592,3.3739,3.3903,3.4608,3.4367,3.4292,3.5295,3.5324,3.4672,0.0,3.4098,3.4767,3.293,0.0,0.0,0.0,0.0,3.4349,3.5464,3.5131,3.4506,3.3761,3.3017,3.1968,3.0514,2.9702,2.9141,2.879,2.7793,2.7411,2.7903,2.786,2.7704,2.7471,0.0,0.0,0.0,0.0,0.0,0.0,0.0,0.0,0.0,0.0,0.0,0.0,0.0,0.0,0.0,0.0,0.0,0.0,0.0,0.0,0.0,0.0,0.0,0.0,0.0,0.0,0.0,0.0,0.0,3.4563,3.6058,0.0,0.0,0.0,0.0,3.7436,3.8946,4.0089,4.0764,4.2288,4.3477,4.4249,4.4234,4.4238,4.4316,4.5105,4.5122,4.4474,4.4468,4.4096,4.3392,4.3358,4.2946,4.2202,4.1508,4.1161,4.0914,3.8814,3.7845,3.7646,3.6998,3.7158,3.763,3.7014,3.6758,3.6618,3.6037,3.5391,3.5022,3.6158,3.6051,3.5349,3.4468,3.38,0.0,0.0,3.3441,3.3621,3.4279,3.4459,3.4638,3.5295,3.5429,3.5429,3.5489,3.604,3.6284,0.0,3.4978,3.4816,3.5323,0.0,3.4641,3.5391,3.5476,3.5515,3.5583,3.5566,3.5245,3.4523,3.3778,3.2747,3.1258,3.048,2.9492,2.824,2.8079,2.7858,2.7441,2.6838,2.6834,2.7575,2.6975,0.0,0.0,0.0,0.0,0.0,0.0,0.0,0.0,0.0,0.0,0.0,0.0,0.0,0.0,0.0,0.0,0.0,0.0,0.0,0.0,0.0,0.0,0.0,0.0,0.0,0.0,0.0,0.0,3.8014,3.8967,0.0,4.0005,3.9549,3.9817,4.1245,4.2325,4.3229,4.3979,4.5009,4.574,4.6007,4.5976,4.5993,4.6007,4.5805,4.5568,4.5297,4.4835,4.4462,4.4164,4.4164,4.3741,4.2997,4.2743,4.2024,4.1017,4.0337,3.975,3.9262,3.9023,3.9073,3.9246,3.9006,3.8599,3.8128,3.7867,3.7633,3.7518,3.7998,3.6741,3.5138,3.5734,3.5098,3.4224,3.4682,3.4774,3.4851,3.5078,3.513,3.519,3.5444,3.516,3.4966,3.5415,3.575,3.5993,3.623,3.6474,3.6754,3.7044,3.6468,3.6214,3.6975,3.6225,3.5785,3.6299,3.5504,3.4607,3.388,3.3119,3.2273,3.1275,3.0168,2.9523,2.9519,2.8346,2.7796,2.81,2.7496,2.7303,2.7585,2.6941,2.6821,0.0,0.0,0.0,0.0,0.0,0.0,0.0,0.0,0.0,0.0,0.0,0.0,0.0,0.0,0.0,0.0,0.0,0.0,0.0,0.0,0.0,0.0,0.0,0.0,0.0,3.8964,4.0375,4.0433,4.174,4.277,4.3098,4.3087,4.3636,4.5083,4.5425,4.5908,4.6672,4.7245,4.753,4.753,4.753,4.7293,4.6786,4.6312,4.5821,4.5314,4.4852,4.4615,4.4615,4.4615,4.4327,4.3764,4.3228,4.2557,4.1754,4.1036,4.0632,4.0426,3.9909,3.9705,3.9662,3.9428,3.8995,3.8553,3.8827,3.9086,3.9262,3.8989,3.7626,3.6229,3.6889,3.6397,3.5638,3.5825,3.5858,3.5799,3.5548,3.5504,3.5554,3.5814,3.5339,3.5031,3.5708,3.5704,3.5769,3.6476,3.7262,3.78,3.7878,3.7265,3.7103,3.8135,3.6749,3.5971,3.7026,3.5825,3.4675,3.418,3.3474,3.2651,3.1724,3.08,3.0102,2.9717,2.8479,2.7905,2.8183,2.7599,2.7375,2.76,2.7165,2.7165,2.76,0.0,0.0,0.0,0.0,0.0,0.0,0.0,0.0,0.0,0.0,0.0,0.0,0.0,0.0,0.0,0.0,0.0,0.0,0.0,0.0,0.0,0.0,0.0,4.0012,4.2494,4.3571,4.175,4.4408,4.6002,4.4906,4.5847,4.7172,4.8676,4.815,4.8051,4.8676,4.8885,4.8973,4.8925,4.8987,4.8308,4.6841,4.6819,4.6075,4.4682,4.4632,4.4615,4.4615,4.4615,4.4615,4.4508,4.2945,4.2703,4.3225,4.0934,4.0446,4.1049,3.9534,3.8935,3.8854,3.8121,3.7835,3.795,3.869,3.9463,3.9978,3.9193,3.8908,3.8772,3.8064,3.7793,3.7602,3.6813,3.6584,3.6384,3.5701,3.5537,3.5701,3.6384,3.6008,3.5703,3.6415,3.5991,3.5703,3.6399,3.7189,3.7725,3.7756,3.7166,3.7235,3.873,3.7087,0.0,3.7719,3.6546,3.56,3.5577,3.4923,3.3928,3.2617,3.2399,3.1253,2.8691,2.8503,2.8213,2.7625,2.6986,2.6941,2.7585,2.76,2.76,2.763,0.0,0.0,0.0,0.0,0.0,0.0,0.0,0.0,0.0,0.0,0.0,0.0,0.0,0.0,0.0,0.0,0.0,0.0,0.0,0.0,0.0,4.1773,4.2827,4.3073,4.4214,4.5431,4.6586,4.7979,4.8975,4.9347,4.9705,5.0074,5.0473,4.9675,4.9218,4.9432,4.896,4.838,4.773,4.8541,4.8486,4.7385,4.6976,4.6583,4.616,4.5122,4.4615,4.4615,4.4615,4.4615,4.457,4.4136,4.3705,4.3236,4.2122,4.142,4.0967,4.0113,3.9782,3.9662,3.8897,3.8608,3.8718,3.9489,3.9927,4.007,3.9833,3.9385,3.8854,3.8663,3.7803,3.6873,3.6661,3.6228,3.575,3.5554,3.5894,3.6228,3.5894,3.5689,3.563,3.5757,3.5245,3.4986,3.5659,3.599,3.6322,3.6974,3.6898,3.71,3.8125,3.77,0.0,3.7855,3.6546,3.5402,3.4864,3.413,3.3339,3.2426,3.1545,3.0503,2.9301,2.8366,2.776,2.7625,2.742,2.7405,2.76,2.76,2.7839,0.0,0.0,0.0,0.0,0.0,0.0,0.0,0.0,0.0,0.0,0.0,0.0,0.0,0.0,0.0,0.0,0.0,0.0,0.0,0.0,0.0,0.0,4.3253,4.4595,4.618,4.6905,4.7919,4.9593,5.0055,5.0416,5.0978,5.0921,5.0845,5.0845,5.0055,4.9408,4.9115,4.8657,4.7906,4.6829,4.8116,4.8295,4.7144,4.7223,4.7107,4.6786,4.5618,4.5043,4.5043,4.475,4.4615,0.0,4.4224,4.3977,4.3727,4.2339,4.1649,0.0,0.0,0.0,0.0,0.0,3.7913,3.8044,3.8843,3.9332,3.9662,3.9995,3.9782,3.9394,3.9394,3.8772,3.7987,3.7671,3.7247,3.6844,3.6538,3.6799,3.698,3.6569,3.6245,3.6013,3.5978,3.5416,3.5026,3.5429,3.5265,0.0,3.5759,3.5848,3.6131,3.6932,3.6748,3.6621,3.6936,3.6158,3.5325,3.4624,3.4159,3.34,3.2126,3.1374,0.0,0.0,0.0,2.7465,2.7195,2.745,0.0,0.0,0.0,2.8364,2.9011,0.0,0.0,0.0,2.9475,3.0133,0.0,0.0,0.0,0.0,0.0,0.0,0.0,0.0,0.0,0.0,0.0,0.0,0.0,0.0,0.0,0.0,4.4028,4.5393,4.8935,4.9763,5.0268,5.0892,5.0835,5.0722,5.064,5.0472,5.0397,5.0397,4.9668,4.8992,4.8371,0.0,0.0,0.0,0.0,4.7684,4.6323,4.7271,4.7413,4.6768,4.6118,4.5821,4.5805,4.4941,4.4632,4.466,4.3713,4.3785,4.4423,4.2097,4.1494,4.1844,3.9734,3.878,3.8486,3.7145,3.6636,3.6737,3.7515,0.0,0.0,3.9705,3.9952,3.9978,4.007,4.0045,3.9808,3.9113,3.8854,3.8635,3.7978,3.7793,3.7793,3.769,3.7067,3.6491,3.6477,3.5914,3.5415,3.5489,3.5011,3.4593,3.4518,3.45,3.4771,3.5637,3.5235,3.5075,3.5742,3.5676,3.5334,3.4654,0.0,0.0,3.1851,3.1628,3.0792,2.8944,2.8124,2.742,2.6746,2.736,2.8004,2.8592,2.8667,2.9026,2.9711,2.9711,3.0013,3.0612,2.9983,3.0406,0.0,0.0,0.0,0.0,0.0,0.0,0.0,0.0,0.0,0.0,0.0,0.0,0.0,0.0,0.0,4.4248,4.5478,4.7099,4.9812,4.9753,4.9507,4.9636,5.015,5.0231,4.9652,5.0095,5.0397,5.0397,4.945,4.8845,4.8705,4.7606,4.6515,4.5521,4.6255,4.6163,4.5133,4.6204,4.671,4.6561,0.0,0.0,4.6549,4.5103,4.4816,4.5421,4.3946,4.3785,4.4451,4.2732,4.1444,4.0425,3.9335,3.845,3.781,3.7629,3.7165,3.6737,3.7515,3.7892,3.8149,3.8897,3.9139,3.9262,3.9901,3.9636,0.0,3.8935,3.8469,3.7978,3.7835,3.7793,3.7632,3.6994,3.6302,3.5783,3.5725,3.5183,3.4846,3.54,3.54,3.513,3.4593,3.45,3.4756,3.5533,3.602,3.637,3.6498,3.6018,3.5371,3.4597,3.4042,3.3342,3.2386,3.1831,3.1127,3.0178,2.9041,2.8124,2.7435,2.8064,2.8472,2.8607,2.9116,2.9699,3.0328,3.0328,3.0672,3.1286,3.0642,3.1073,0.0,0.0,0.0,0.0,0.0,0.0,0.0,0.0,0.0,0.0,0.0,3.9524,4.0898,0.0,4.3106,4.5236,4.6098,4.7063,4.8635,4.8521,4.8691,4.9716,4.9709,4.9434,4.9088,4.8923,4.8856,4.8856,4.8335,4.792,4.7585,4.7209,4.6323,4.484,4.5866,4.6129,4.5504,4.6543,4.7274,4.7755,4.747,4.7361,4.7297,4.6146,4.5639,4.5657,4.4859,4.433,4.3876,4.2371,4.1298,4.0427,3.934,3.8412,3.7693,3.7693,3.7017,3.618,3.6919,3.7203,3.7322,3.8104,3.8358,3.8414,3.8832,3.8679,3.8358,3.8358,3.8092,3.7793,3.7793,3.7793,3.7602,3.6783,3.6352,3.5984,3.5608,3.5235,3.51,3.5429,3.5504,3.5385,3.5055,3.4997,3.4912,3.4577,3.5138,3.5594,3.5594,3.5594,3.5336,3.4562,3.3907,3.3243,3.2572,3.157,3.0746,3.0088,2.9445,2.8936,2.8618,2.8906,2.9235,2.9549,2.9879,3.0357,3.0987,3.0987,3.1167,3.1496,3.1152,3.1394,0.0,0.0,0.0,0.0,0.0,0.0,0.0,4.0569,4.0982,4.2816,4.2552,4.263,4.4707,4.4454,4.4481,4.6067,4.6384,4.6696,4.7234,4.7309,4.8003,4.9852,4.915,4.8527,4.8527,4.7764,4.7309,4.7309,4.7309,4.707,4.6503,4.689,4.6307,4.4556,4.5635,4.6143,4.5921,4.685,4.7803,4.8719,4.8301,4.8091,4.8075,4.7025,4.633,4.5906,4.5618,4.4621,4.3115,4.2066,4.1389,4.0938,3.9791,3.8919,3.8206,3.779,3.6939,3.6022,3.6631,3.6737,3.6722,3.7544,3.769,3.7602,3.7748,3.7793,3.7793,3.7793,3.7793,3.7793,3.7793,3.769,3.7397,3.6752,3.6492,3.6212,3.5651,3.5619,3.5701,3.5701,3.5846,3.5941,3.5941,3.5814,3.5307,3.4084,3.4337,3.4698,3.4698,3.504,3.51,3.4563,3.3888,3.3275,3.2751,3.1608,3.0644,3.0026,2.9997,2.9862,2.9621,2.9726,2.9998,3.0492,3.0642,3.1027,3.171,3.1582,3.1582,3.171,3.1553,3.1511,3.66,3.748,3.9106,4.0864,4.1617,4.2847,0.0,4.6394,4.5805,4.6657,4.6492,4.6151,4.5841,4.59,4.6067,4.6249,4.6815,4.7219,4.7294,4.7309,4.7722,4.8841,4.8072,4.7452,4.7452,4.7381,4.7309,4.7309,4.7309,4.7279,4.7189,4.6711,4.6052,4.5214,4.4798,4.4695,4.4946,4.5869,4.685,4.777,4.8524,4.8883,4.8801,4.6626,4.6021,4.6599,4.5309,4.3853,4.2455,4.2963,4.2385,4.1158,4.0989,4.0491,3.9663,3.83,3.7682,3.7544,3.7632,3.7203,3.6722,3.7544,3.7338,3.6873,3.7573,3.7793,3.7793,3.7793,3.7793,3.7793,3.7793,3.7279,3.6691,3.66,3.6117,3.5619,3.5537,3.5991,3.6477,3.6477,3.704,3.7531,3.7531,3.695,3.6198,3.5392,3.534,3.5385,3.5385,3.4921,3.4593,3.4518,3.3888,3.3469,3.3395,3.2776,3.205,3.1315,3.1326,3.0838,2.9663,3.0103,3.0432,3.0507,3.1077,3.1749,3.2492,3.1824,3.1853,3.2465,3.1796,3.1511,3.8716,3.9732,4.0966,4.2846,4.4302,4.5767,4.7638,4.7985,4.8348,4.9906,5.0011,4.9775,4.9764,4.8994,4.8183,4.7589,4.7369,4.7309,4.7309,4.7309,4.7317,4.7346,4.734,4.7779,4.8979,4.8543,4.8183,4.8183,4.8183,4.8183,4.8183,4.75,4.7083,4.7045,4.6375,4.6123,4.6416,4.6815,4.7489,4.8401,4.8829,4.8781,4.8328,4.7348,4.6639,4.6058,4.4096,4.3132,4.2912,4.2354,4.2243,4.2405,4.1542,4.1257,4.1147,3.9188,3.8177,3.7793,3.7793,3.7573,3.7279,3.7144,3.6873,3.6584,3.6477,3.6461,3.6461,3.6461,3.6461,3.6461,3.6461,3.6212,3.6054,3.6492,3.6353,3.6259,3.6738,3.7086,3.7308,3.7308,3.7573,3.7793,3.7793,3.7114,3.6492,3.6196,3.5782,3.5504,3.5504,3.525,3.5097,3.5141,3.4896,3.4769,3.4831,3.4605,3.4144,3.3396,3.3397,3.2951,3.1972,3.1782,3.1732,3.1732,3.1575,3.2063,3.3243,3.2924,3.3132,3.3814,3.3119,3.2555,3.9802,4.1333,4.2935,4.4602,4.6794,4.8612,4.9032,4.9864,5.0997,5.2604,5.2694,5.2515,5.2484,5.108,4.9554,4.8472,4.7743,4.7309,4.7309,4.7309,4.7126,4.6773,4.6896,4.795,5.0321,4.9489,4.8907,4.9215,4.9256,4.9256,4.9256,4.8731,4.8489,4.8589,4.8093,4.7836,4.7902,4.7885,4.8279,4.9001,4.9001,4.8612,4.7872,4.7466,4.6616,4.5297,4.3639,4.2997,4.3047,4.2168,4.2219,4.2682,4.1627,4.1525,4.1777,3.9904,3.9029,3.8707,3.8495,3.842,3.8293,3.7488,3.6948,3.6492,3.5975,3.5668,3.5504,3.5504,3.5504,3.5504,3.5504,3.5636,3.5943,3.6477,3.6752,3.71,3.7661,3.795,3.8121,3.8121,3.829,3.8374,3.8149,3.744,3.6859,3.663,3.5975,3.5504,3.5504,3.5504,3.5445,3.5309,3.5488,3.5718,3.6006,3.605,3.583,3.5326,3.5277,3.4965,3.4242,3.374,3.3377,3.3187,3.264,3.2898,3.3926,3.3942,3.4333,3.4969,3.451,3.3873,3.9108,4.158,4.469,4.6249,4.8887,5.1286,5.2012,5.3331,5.4431,5.4515,5.4264,5.3732,5.27,5.108,4.9554,4.8472,4.7743,4.7309,4.7309,4.7309,4.7395,4.771,4.6891,4.7517,5.0605,4.9603,4.9215,5.0281,5.0358,5.0358,5.0358,5.0342,5.0045,4.9384,4.9336,4.9119,4.866,4.866,4.8762,4.9001,4.9001,4.8612,4.7838,4.643,4.5348,4.4632,4.4564,4.3701,4.2388,4.3064,4.2513,4.1271,4.1221,4.1221,4.1136,4.0358,4.0502,4.0974,4.0273,4.0027,3.9907,3.9084,3.7815,3.6615,3.6584,3.6054,3.5504,3.5504,3.5504,3.5504,3.5504,3.6023,3.6584,3.6569,3.7189,3.7764,3.7777,3.8358,3.8881,3.8881,3.9489,3.9782,3.8989,3.8246,3.7515,3.6722,3.5975,3.5504,3.5504,3.5504,3.5235,3.461,3.5171,3.584,3.6522,3.6678,3.6754,3.6733,3.6741,3.6427,3.5776,3.5722,3.5356,3.4656,3.4599,3.4554,3.4481,3.4614,3.5015,3.5662,3.57,3.5332,4.0562,4.2993,4.575,4.8906,5.0803,5.2266,5.3534,5.4228,5.4735,5.5243,5.4476,5.3361,5.2223,5.0663,4.915,4.8013,4.792,4.7803,4.7369,4.7683,4.7499,4.6267,4.6232,4.688,4.8357,4.8952,0.0,5.1271,5.1394,5.1394,5.1394,5.0937,5.0886,5.1305,5.0874,5.0259,4.9652,4.9635,4.9411,4.8984,4.8003,4.7411,4.7124,4.5635,4.4852,4.4581,4.4045,4.3521,4.3014,4.2777,4.2371,4.188,4.139,4.1204,4.1119,4.0383,4.0561,4.1085,4.0367,4.0095,3.9988,3.9169,3.8564,3.793,3.6918,3.6415,3.6149,3.5651,3.5504,3.5504,3.5504,3.6054,3.6722,3.7279,3.7991,3.8679,3.9226,3.9532,3.9705,3.9705,3.9489,3.9236,3.8935,3.786,3.6753,3.5975,3.5668,3.5504,3.5504,3.5504,3.561,3.5875,3.6606,3.7361,3.8056,3.8666,3.8799,3.8293,3.8263,3.7936,3.7228,3.6724,3.6346,3.6108,3.5172,3.5151,3.6029,3.5544,3.5919,3.7079,3.6658,3.6325,4.2361,4.4688,4.7009,5.0673,5.2181,5.2993,5.3974,5.4397,5.4651,5.4871,5.4177,5.3077,5.168,5.0131,4.87,4.7527,4.7124,4.6978,4.7038,4.7149,4.6986,4.6263,4.6561,4.7278,4.8461,4.9406,5.0517,5.1934,5.232,5.247,5.247,5.2021,5.2065,5.2689,5.1995,5.1251,5.049,5.0219,4.9729,4.8984,4.7496,4.6786,4.6735,4.5275,4.4615,4.4581,4.4045,4.3521,4.298,4.2489,4.1982,4.1484,4.0984,4.0798,4.0747,4.0282,4.0417,4.073,4.0265,4.0282,4.0375,3.9573,3.9139,3.8718,3.7729,3.7247,3.6859,3.6117,3.5894,3.5831,3.5554,3.6054,3.6737,3.7249,3.7962,3.8734,3.9489,3.9463,3.9358,3.961,3.9032,3.8414,3.8129,3.7054,3.6149,3.5911,3.5894,3.5804,3.5561,3.5743,3.5994,3.6213,3.6913,3.7674,3.8442,3.9209,3.958,3.9411,3.9402,3.9174,3.87,3.8229,3.7834,3.756,3.6651,3.6388,3.673,3.6513,3.6861,3.7802,3.7632,3.7425,4.4307,4.6462,4.8365,5.1496,5.2859,5.3433,5.3551,5.4059,5.4313,5.3551,5.3298,5.2623,5.0725,4.9349,4.8119,4.7029,4.5749,4.5333,4.6616,4.6062,4.6116,4.7701,4.7891,4.8652,5.0665,5.089,5.1288,5.2234,0.0,5.3501,5.3501,5.3501,5.3501,5.3501,5.2723,5.1961,5.1217,5.0422,4.9661,4.8934,4.7479,4.6769,4.6684,4.5275,4.4615,4.4615,4.4615,4.3735,4.2286,4.2286,4.1424,4.0096,4.0096,4.0096,4.0096,4.0096,4.0096,4.0096,4.0096,4.0544,4.1035,4.0333,3.9568,3.8962,3.8908,3.8414,3.769,3.6889,3.663,3.6446,3.5718,3.6086,3.6615,3.6615,3.7203,3.8007,3.869,3.8274,3.8007,3.8718,3.8246,3.7485,3.6676,3.6006,3.5782,3.6492,3.6661,3.6458,3.5792,3.6273,3.6382,3.5716,3.6258,3.6934,3.769,3.8442,3.9236,3.9995,4.007,4.0096,4.0096,4.0096,3.9756,3.8962,3.8908,3.8157,3.6661,3.7397,3.7748,3.7822,3.8492,3.8482,4.502,4.6724,4.8427,5.1273,5.2163,5.2655,5.4023,5.4042,5.3399,5.208,5.049,4.8672,4.6572,4.659,4.6864,4.6565,4.7599,4.8687,4.9346,4.8976,4.8748,4.8964,4.9006,4.9288,5.0025,5.0593,5.1288,0.0,5.3044,5.3501,5.3501,5.3501,5.3501,5.3501,5.2723,5.1961,5.1217,4.9932,4.8917,4.8159,4.7242,4.6498,4.5957,4.501,4.4615,4.4615,4.4615,4.3735,4.2286,4.2286,4.1424,4.0096,4.0096,4.0096,4.0096,4.0096,4.0096,4.0096,4.0096,4.0231,4.0367,4.0163,3.9952,3.9688,3.9086,3.8772,3.8469,3.7703,3.7054,3.6554,3.6368,3.6477,3.6615,3.6615,3.7203,3.7835,3.8035,3.7921,3.7863,3.8035,3.744,3.6661,3.5926,3.6086,3.6384,3.6584,3.7584,3.8052,3.7319,3.7404,3.72,3.6428,3.7034,3.7322,3.6934,3.8129,3.9005,3.9193,3.9782,4.0096,4.0096,4.0096,3.9995,3.9808,3.9209,3.8442,3.7485,3.71,3.7203,3.7806,3.7432,3.7777,4.6004,4.7269,4.8356,5.0677,5.1578,5.1933,5.1961,5.2001,5.1403,4.9238,4.7547,4.5957,4.4367,4.5194,4.6084,4.6084,4.7661,4.9143,4.9976,4.956,4.9503,5.0406,5.0501,5.072,5.1358,5.1795,5.2251,5.2791,5.3247,5.3501,5.3501,5.3501,5.3501,5.3501,5.2418,5.1319,5.0253,4.9407,4.8646,4.7872,4.7141,4.6413,4.5669,4.4953,4.4615,4.4581,0.0,4.3386,4.2269,4.1948,4.1136,4.0096,4.0096,4.0096,4.0096,4.0096,4.0096,4.0096,4.0096,4.0096,4.0096,4.0096,4.0096,4.002,3.9542,3.9437,3.9262,3.8497,3.7946,3.7438,3.6783,3.6615,3.6523,3.6196,3.6446,3.689,3.7189,3.7025,3.6784,3.6784,3.6446,3.6086,3.6006,3.6337,3.6843,3.7496,3.8342,3.8897,3.8832,3.8513,3.7991,3.7203,3.7203,3.7249,3.713,3.7933,3.8707,3.9368,3.9833,4.0096,4.0096,4.0096,4.0096,4.0096,3.9315,3.8525,3.7793,3.7368,3.7368,3.7806,3.7701,3.7959,4.7021,4.7716,4.8137,4.9788,5.079,5.0874,4.9035,4.9126,4.8827,4.5978,4.4807,4.4012,4.3132,4.4316,4.55,4.5805,4.6972,4.8365,4.9984,4.9447,4.9669,5.1845,5.2117,5.247,5.3416,5.3501,5.3501,5.3501,5.3501,5.3501,5.3501,5.3501,5.3416,5.3213,5.1809,5.0405,4.9018,4.9001,4.8595,4.7767,4.7107,4.6363,4.5534,4.4773,4.4513,4.4564,4.3656,0.0,4.2236,4.1508,4.0764,4.0096,4.0096,4.0096,4.0096,4.0096,4.0096,4.0096,4.0096,4.0096,4.0096,4.0096,4.0096,4.0096,4.0096,4.0096,3.9952,3.9262,3.8989,3.8564,3.7128,3.6661,3.6415,3.5668,3.5504,3.5668,3.6306,3.5943,3.5504,3.5504,3.5587,3.5831,3.6492,3.6783,3.735,3.8701,3.8989,3.9289,3.9859,3.9437,3.8772,3.8035,3.7322,3.7144,3.7764,3.7892,3.8513,3.9876,4.0045,4.0096,4.0096,4.0096,4.0096,4.0096,3.9315,3.8525,3.7793,3.7793,3.7793,3.7822,3.8455,3.8491,4.7314,4.74,4.7655,4.8794,4.8778,4.8548,4.8593,4.782,4.6487,4.4249,4.3217,4.2269,4.0925,4.2388,4.4434,4.6295,4.7628,4.9458,5.2438,5.1947,5.1749,5.3076,5.323,5.3314,5.3467,5.3501,5.3501,0.0,5.3501,5.3501,5.3501,5.3501,5.2926,5.1657,5.0744,4.9881,4.9018,4.9001,4.8325,4.6989,4.6853,4.6075,4.4739,4.3978,4.3978,4.453,4.3081,0.0,4.2236,4.1508,4.0764,4.0096,4.0096,4.0096,4.0096,4.0096,4.0096,4.0096,4.0096,4.0096,4.0096,4.0096,4.0096,4.0096,4.0096,4.0096,4.007,3.9927,3.9394,3.869,3.7819,3.71,3.6415,3.5668,3.5504,3.5537,3.5668,3.5587,3.5504,3.5504,3.6006,3.6446,3.6584,3.7671,3.8591,3.8854,3.9463,3.9688,3.9166,3.9584,3.9584,3.8799,3.8591,3.8314,3.7835,3.8358,3.8827,3.9086,3.9731,4.0096,4.0096,4.0096,4.0096,4.0096,3.9315,3.8525,3.7793,3.7793,3.7793,3.779,3.7938,3.8275,4.8042,4.7694,4.7424,4.7919,4.7676,4.7122,4.6252,4.544,4.426,4.2126,4.139,4.0942,4.0231,4.1914,4.3747,4.4857,4.6512,4.8601,5.1338,5.1295,5.1581,5.3281,5.3501,5.3501,5.3501,5.3501,5.3501,5.3501,5.3501,5.3501,5.3501,5.3112,5.2367,5.1251,5.0473,4.9746,4.9018,4.9001,4.846,4.7378,4.6972,4.6227,4.5145,4.4367,4.4231,4.4513,4.2963,0.0,4.2202,4.1085,4.0434,4.0096,4.0096,4.0096,4.0096,4.0096,4.0096,4.0096,4.0096,4.0096,4.0096,4.0096,4.0096,4.0096,4.0096,4.0096,4.0096,4.0096,3.9808,3.9358,3.8553,3.8088,3.7629,3.689,3.6384,3.5975,3.5587,3.5504,3.5504,3.5504,3.6086,3.6722,3.7144,3.8145,3.8908,3.8908,3.9236,3.9209,3.843,3.8652,3.8778,3.8374,3.8663,3.8772,3.8386,3.869,3.9086,3.9489,3.9901,4.0096,4.0096,4.0096,4.0096,4.0096,3.8924,3.833,3.8358,3.7978,3.8007,3.8386,3.8808,3.9009,4.868,4.8072,4.7279,4.713,4.6705,4.5827,4.3908,4.3106,4.2239,4.0465,4.0096,4.0096,4.0096,4.1508,4.2861,4.3308,4.5043,4.7192,4.9729,5.0236,5.1116,5.3247,5.3501,5.3501,5.3501,5.3501,5.3501,5.3501,5.3501,0.0,5.3501,5.2587,5.1809,5.1202,5.0338,4.9593,4.9018,4.9001,4.8646,4.7872,4.7141,4.6413,4.5669,4.4756,4.4333,4.4276,4.2726,0.0,0.0,4.0654,4.0096,4.0096,4.0096,4.0096,4.0096,4.0096,4.0096,4.0096,4.0096,4.0096,4.0096,4.0096,4.0096,4.0096,4.0096,4.0096,4.0096,4.0096,4.0096,3.9927,3.9113,3.8908,3.8718,3.7978,3.7189,3.6446,3.5863,3.5619,3.5504,3.5504,3.6086,3.6783,3.7427,3.8302,3.8854,3.869,3.8799,3.8564,3.7661,3.769,3.7719,3.7573,3.8218,3.8718,3.8881,3.8908,3.9166,3.9808,3.9995,4.0096,4.0096,4.0096,4.0096,4.0096,3.8734,3.833,3.8908,3.8302,3.833,3.8908,3.9731,3.9791,4.8867,4.8072,4.716,4.6518,4.5477,4.4213,4.306,4.182,4.0778,4.0227,4.0096,4.0096,4.0096,4.0282,4.1052,4.3054,4.4181,4.6053,4.9593,5.0676,5.1708,5.3315,5.3501,5.3501,5.3501,5.3501,5.3501,5.3501,5.3501,0.0,5.3501,5.2114,5.1252,5.1185,4.9847,4.9069,4.9001,4.9001,4.8646,4.7872,4.7141,4.6413,4.5652,4.417,4.3494,4.3426,4.1948,0.0,0.0,4.0434,4.0096,4.0096,4.0096,4.0096,4.0096,4.0096,4.0096,4.0096,4.0096,4.0096,4.0096,4.0096,4.0096,4.0096,4.0096,4.0096,4.0096,4.0096,4.0096,3.9927,3.9113,3.8908,3.8718,3.7978,3.7189,3.6584,3.6523,3.5975,3.5504,3.5504,3.6086,3.66,3.6707,3.793,3.8663,3.8007,3.8469,3.837,3.6904,3.7368,3.7515,3.6783,3.7411,3.8161,3.8854,3.8908,3.8935,3.9005,3.9705,4.0096,4.0096,4.0096,4.0096,4.0096,3.9236,3.8827,3.8908,3.8827,3.8827,3.8908,3.9731,4.0062,4.8753,4.8235,4.7249,4.698,4.5005,4.3181,4.3277,4.1374,3.9667,4.0025,4.0096,4.0096,4.0096,4.0096,4.04,4.1255,4.1687,4.2861,4.5669,4.6735,4.8274,5.1116,5.186,5.2486,5.3416,5.3501,5.3501,5.3501,5.3501,0.0,5.2807,5.1775,5.1014,5.0557,4.9543,4.9001,4.9001,4.9001,4.8849,4.8562,4.7817,4.709,4.6329,4.528,4.4553,4.4062,4.2997,0.0,0.0,4.1255,4.0747,4.0713,4.0282,4.0096,4.0096,4.0096,4.0096,4.0096,4.0096,4.0096,4.0096,4.0096,4.0096,4.0096,4.0096,4.0096,4.0096,4.0096,4.0096,4.002,3.9705,3.961,3.9437,3.8652,3.823,3.7729,3.6813,3.6368,3.6023,3.5587,3.6477,3.7338,3.7338,3.8608,3.9358,3.858,3.833,3.7831,3.6752,3.6492,3.6446,3.6584,3.7338,3.7921,3.8218,3.8246,3.8414,3.8881,3.9193,3.9584,4.007,4.0096,4.0096,4.0096,3.9315,3.9139,3.961,3.9139,3.9139,3.9636,3.9952,4.0096,4.8126,4.7824,4.6965,4.6756,4.4377,4.2221,4.2669,4.0737,3.8976,3.9614,3.9927,4.0096,4.0096,4.0096,4.0096,4.0096,4.0282,4.1187,4.3436,4.4418,4.6126,4.939,5.0236,5.1166,5.2672,5.323,5.3501,5.3501,5.3281,0.0,5.2334,5.1403,5.0642,5.0101,4.9373,4.9001,4.9001,4.9001,4.9001,4.8984,4.8037,4.731,4.6752,4.5805,4.4959,4.4198,4.3656,0.0,0.0,4.1948,4.1407,4.1153,4.0629,4.0299,4.0096,4.0096,4.0096,4.0096,4.0096,4.0096,4.0096,4.0096,4.0096,4.0096,4.0096,4.0096,4.0096,4.0096,4.0096,4.0096,4.0096,4.0096,3.9952,3.9385,3.9086,3.8591,3.7496,3.6918,3.6538,3.6212,3.686,3.7515,3.7748,3.8887,3.9463,3.869,3.8302,3.7761,3.6722,3.6134,3.5943,3.6244,3.6799,3.7205,3.7427,3.7456,3.7761,3.8525,3.858,3.9032,4.0045,3.9859,3.9876,4.0113,3.9542,3.9516,4.0096,3.9516,3.9542,4.0096,4.0096,4.0096,4.6841,4.6662,4.6172,4.5484,4.3344,4.1287,4.0751,3.9675,3.883,3.8892,3.9558,4.0096,4.0096,4.0096,4.0096,4.0096,4.0696,4.1982,4.4276,4.5213,4.6532,4.8748,4.9018,4.961,5.1067,5.2604,5.3501,5.3501,0.0,0.0,5.23,5.0913,5.0101,5.0084,4.9373,4.9001,4.9001,4.9001,4.9001,4.8984,4.7513,4.6802,4.6735,4.5292,4.4164,0.0,0.0,0.0,0.0,4.2286,4.1863,4.1204,4.1187,4.073,4.0096,4.0096,4.0096,4.0096,4.0096,4.0096,4.0096,4.0096,4.0096,4.0096,4.0096,4.0096,4.0096,4.0096,4.0096,4.0096,4.0096,4.0096,4.0096,4.0096,3.9489,3.8908,3.8881,3.7671,3.6813,3.7632,3.716,3.6889,3.7661,3.8414,3.8663,3.7921,3.8414,3.8325,3.6813,3.6569,3.6306,3.5587,3.5537,3.5814,3.6554,3.66,3.698,3.7748,3.7806,3.8502,4.0045,3.9342,3.9289,4.007,4.0096,4.0096,4.0096,4.0096,4.0096,4.0096,4.0096,4.0096,4.3118,4.3201,4.2895,4.2671,4.0965,3.9465,3.9828,3.8541,3.7471,3.8039,3.8346,3.8679,3.9183,3.9289,3.963,4.067,4.1052,4.1627,4.2844,4.457,4.6346,4.8054,5.0524,5.2266,5.2739,0.0,5.3501,5.3501,0.0,0.0,5.1589,5.1116,5.0625,5.0101,4.9373,4.9001,4.9001,4.9001,4.9001,4.9001,4.8528,4.7784,4.6769,4.6312,4.5399,0.0,0.0,0.0,0.0,4.3284,4.2625,4.1897,4.1407,4.0747,4.0096,4.0096,4.0096,4.0096,4.0096,4.0096,4.0096,4.0096,4.0096,4.0096,4.0096,4.0096,4.0096,4.0096,4.0096,4.0096,4.0096,4.0096,4.0096,4.0096,3.9901,3.9584,3.9032,3.8509,3.8117,3.7863,3.7991,3.8258,3.8497,3.9209,3.9636,3.9428,3.9086,3.8728,3.8241,3.7716,3.713,3.6337,3.6722,3.6738,3.5926,3.5831,3.6415,3.7735,3.7793,3.8486,4.0045,3.9876,3.9833,4.0113,4.0096,4.0096,4.0096,4.0096,4.0096,4.0096,4.0096,4.0096,4.0418,4.099,4.101,4.101,3.9499,3.8211,3.9029,3.7853,3.6828,3.7632,3.7793,3.8035,3.8772,3.8663,3.8991,4.0525,4.0776,4.1234,4.2547,4.4451,4.6363,4.8122,5.0879,5.2638,0.0,5.3162,5.3382,0.0,0.0,0.0,5.1202,5.0693,5.0304,5.0101,4.9644,4.9272,4.9001,4.9001,4.9001,4.9001,4.8731,4.797,4.6786,4.6498,4.572,0.0,0.0,0.0,0.0,4.3741,4.298,4.2219,4.1491,4.0747,4.0096,4.0096,4.0096,4.0096,4.0096,4.0096,4.0096,4.0096,4.0096,4.0096,4.0096,4.0096,4.0096,4.0096,4.0096,4.0096,4.0096,4.0096,4.0096,4.0096,4.0096,3.9952,3.9463,3.9113,3.8854,3.8707,3.8789,3.8989,3.9315,3.9782,4.0096,4.0096,3.9662,3.9246,3.8935,3.8497,3.7905,3.7144,3.7515,3.7413,3.6461,3.6368,3.689,3.8133,3.795,3.8486,4.0045,3.9808,3.9782,4.0096,4.0096,4.0096,4.0096,4.0096,4.0096,4.0096,4.0096,4.0096,0.0,3.9666,4.0053,4.0053,3.8661,3.7459,3.8292,3.745,0.0,3.7544,3.7719,3.7966,3.8756,3.8294,3.8322,3.9985,4.0214,4.0945,4.3175,4.4942,4.6802,4.8917,5.0473,5.1303,5.1202,5.2604,5.3179,0.0,0.0,0.0,5.1133,4.983,4.9373,4.9999,5.0067,4.9746,4.9018,4.9001,4.9001,4.9001,4.8325,4.7564,4.6769,4.6092,4.5348,0.0,0.0,0.0,0.0,4.3792,4.3031,4.2219,4.1542,4.0798,4.0096,4.0096,4.0096,4.0096,4.0096,4.0096,4.0096,4.0096,4.0096,4.0096,4.0096,4.0096,4.0096,4.0096,4.0096,4.0096,4.0096,4.0096,4.0096,4.0096,4.0096,4.0096,4.0096,3.9516,3.9209,3.9952,3.9489,3.9219,3.9978,4.0096,4.0096,4.0096,4.0096,3.9833,3.9086,3.9005,3.869,3.795,3.7921,3.7921,3.7892,3.7835,3.8104,3.8854,3.8246,3.8541,4.0045,3.9368,3.9342,4.007,4.0096,4.0096,4.0096,4.0096,4.0096,4.0096,4.0096,4.0096,3.6273,0.0,3.6656,3.6656,3.6312,3.6152,0.0,3.6394,3.5975,3.6737,3.6873,3.7301,3.8653,3.8303,3.8675,4.1348,4.1316,4.1737,4.3996,4.7056,4.9475,5.0557,5.2046,5.2503,5.1319,5.2604,0.0,0.0,0.0,5.0963,5.0388,5.0016,4.9661,4.9272,4.9796,4.9746,4.9018,4.9001,4.9001,4.9001,4.8832,4.8054,4.6786,4.6616,4.5821,0.0,0.0,0.0,4.4598,4.4412,4.3504,4.2269,4.21,4.1264,4.0096,4.0096,4.0096,4.0096,4.0096,4.0096,4.0096,4.0096,4.0096,4.0096,4.0096,4.0096,4.0096,4.0096,4.0096,4.0096,4.0096,4.0096,4.0096,4.0096,4.0096,4.0096,4.0096,3.9952,3.9859,4.007,3.9952,3.9876,4.007,4.0096,4.0096,4.0096,4.0096,4.002,3.9833,3.9808,3.9532,3.8718,3.9183,3.9305,3.869,3.8104,3.8104,3.8854,3.8745,3.9059,4.0045,3.9927,3.9901,4.0113,4.0096,4.0096,4.0096,4.0096,4.0096,4.0096,4.0096,4.0096,3.5587,3.5504,3.5587,3.5926,3.575,3.5878,3.7336,3.6798,3.6321,3.7424,3.7395,3.7492,3.8674,3.8579,3.9076,4.1415,4.2033,4.3115,4.5751,4.7834,4.9627,5.1016,5.1961,5.2401,0.0,0.0,0.0,0.0,0.0,5.0896,5.0135,4.9779,4.9407,4.9018,4.939,4.9407,4.9001,4.9001,4.9001,4.9001,4.8663,4.7902,4.6786,4.6447,4.5669,0.0,0.0,0.0,4.4581,4.4198,4.3352,4.2252,4.1931,4.1085,4.0096,4.0096,4.0096,4.0096,4.0096,4.0096,4.0096,4.0096,4.0096,4.0096,4.0096,4.0096,4.0096,4.0096,4.0096,4.0096,4.0096,4.0096,4.0096,4.0096,4.0096,4.0096,4.0096,4.0096,4.0096,4.0096,4.0096,4.0096,4.0096,4.0096,4.0096,4.0096,4.0096,4.0096,4.0096,4.0096,3.9927,3.9489,3.9833,3.9927,3.9489,3.9076,3.9022,3.9437,3.9463,3.9636,4.007,4.0096,4.0096,4.0096,4.0096,4.0096,4.0096,4.0096,4.0096,4.0096,4.0096,4.0096,3.5784,3.5851,3.6071,3.6352,3.5943,3.6085,3.823,3.7629,3.7038,3.8591,3.8386,3.8242,3.9095,3.9174,3.9626,4.1264,4.2869,4.4927,4.7828,4.8413,4.9207,5.0982,5.1388,0.0,5.3044,0.0,0.0,0.0,0.0,5.0845,4.9965,4.934,4.9001,4.9001,4.9001,4.9001,4.9001,4.9001,4.8951,4.8832,4.8206,4.7462,4.6599,4.5991,4.5297,4.4615,0.0,0.0,4.4564,4.3859,4.3081,4.2236,4.161,4.0849,4.0096,4.0096,4.0096,4.0096,4.0096,4.0096,4.0096,4.0096,4.0096,4.0096,4.0096,4.0096,4.0096,4.0096,4.0096,4.0096,4.0096,4.0096,4.0096,4.0096,4.0096,4.0096,4.0096,4.0096,4.0096,4.0096,4.0096,4.0096,4.0096,4.0096,4.0096,4.0096,4.0096,4.0096,4.0096,4.0096,4.0096,4.0096,4.0096,4.0096,4.0096,4.0096,4.0096,4.0096,4.0096,4.0096,4.0096,4.0096,4.0096,4.0096,4.0096,4.0096,4.0096,4.0096,4.0096,4.0096,4.0096,4.0096,3.6152,3.7388,3.7958,3.6133,3.5587,3.5941,3.7602,3.7263,3.7038,3.8591,3.8799,3.915,4.0583,4.0346,4.0608,4.2726,4.4874,4.7089,4.9441,5.0845,5.1522,5.1219,0.0,5.2739,0.0,0.0,0.0,0.0,0.0,5.0625,4.9238,4.9069,4.9001,4.9001,4.9001,4.9001,4.9001,4.9001,4.8697,4.8058,4.7939,4.7179,4.5872,4.5754,4.5297,4.4615,0.0,4.4615,4.4598,4.4479,4.3572,4.2286,4.2168,4.1314,4.0096,4.0096,4.0096,4.0096,4.0096,4.0096,4.0096,4.0096,4.0096,4.0096,4.0096,4.0096,4.0096,4.0096,4.0096,4.0096,4.0096,4.0096,4.0096,4.0096,4.0096,4.0096,4.0096,4.0096,4.0096,4.0096,4.0096,4.0096,4.0096,4.0096,4.0096,4.0096,4.0096,4.0096,4.0096,4.0096,4.0096,4.0096,4.0096,4.0096,4.0096,4.0096,4.0096,4.0096,4.0096,4.0096,4.0096,4.0096,4.0096,4.0096,4.0096,4.0096,4.0096,4.0096,4.0096,4.0096,4.0096,4.0096,3.6084,3.7466,3.8656,3.7606,3.7588,3.793,3.8305,3.8078,3.812,3.9319,3.9542,3.9893,4.0996,4.1575,4.2892,4.5933,4.731,4.8477,4.9898,5.0338,5.0693,0.0,0.0,5.2317,0.0,0.0,0.0,0.0,0.0,0.0,4.9644,4.9221,4.9001,4.9001,4.9001,4.9001,4.9001,4.9001,4.8646,4.7889,4.7513,4.6752,4.5703,4.528,4.4936,4.4615,0.0,4.4615,4.4615,4.4615,4.3701,4.2286,4.2286,4.1416,4.0096,4.0096,4.0096,4.0096,4.0096,4.0096,4.0096,4.0096,4.0096,4.0096,4.0096,4.0096,4.0096,4.0096,4.0096,4.0096,4.0096,4.0096,4.0096,4.0096,4.0096,4.0096,4.0096,4.0096,4.0096,4.0096,4.0096,4.0096,4.0096,4.0096,4.0096,4.0096,4.0096,4.0096,4.0096,4.0096,4.0096,4.0096,4.0096,4.0096,4.0096,4.0096,4.0096,4.0096,4.0096,4.0096,4.0096,4.0096,4.0096,4.0096,4.0096,4.0096,4.0096,4.0096,4.0096,4.0096,4.0096,4.0096,3.6242,3.75,3.8895,3.8901,3.9117,3.9392,3.9649,3.934,3.9437,4.0848,4.0837,4.0793,4.1557,4.2794,4.4688,4.7733,4.8815,4.9526,5.0253,5.0185,5.0473,5.1591,5.1758,0.0,0.0,0.0,0.0,0.0,0.0,0.0,4.9864,4.9306,4.9001,4.9001,4.9001,4.9001,4.9001,4.9001,4.8545,4.7648,4.7073,4.6312,4.5415,4.4869,4.4615,4.4615,4.4615,4.4615,4.4615,4.4615,4.3802,4.2557,4.2557,4.1644,4.035,4.0163,4.0096,4.0096,4.0096,4.0214,4.0367,4.0367,4.0367,4.0367,4.0367,4.0248,4.0096,4.0096,4.0096,4.0096,4.0096,4.0096,4.0096,4.0096,4.0096,4.0096,4.0096,4.0096,4.0096,4.0096,4.0096,4.0096,4.0096,4.0096,4.0096,4.0096,4.0096,4.0096,4.0096,4.0096,4.0096,4.0096,4.0096,4.0096,4.0096,4.0096,4.0096,4.0096,4.0096,4.0096,4.0096,4.0096,4.0096,4.0096,4.0096,4.0096,4.0096,4.0096,4.0096,4.0096,4.0096,4.0096,3.6956,3.8265,3.8898,3.8892,3.842,3.8685,4.144,4.0829,4.0585,4.3665,4.2989,4.2146,4.3069,4.3944,4.4852,4.5788,4.8223,5.027,5.1031,0.0,5.323,5.3331,5.3331,0.0,0.0,0.0,0.0,0.0,0.0,0.0,4.912,4.9035,4.9001,4.9001,4.9001,4.9001,4.9001,4.9001,4.8291,4.687,4.6819,4.6041,4.4682,4.4632,4.4615,4.4615,4.4615,4.4615,4.4615,4.4615,4.4079,4.3308,4.3308,4.2439,4.1035,4.0367,4.0096,4.0096,4.0096,4.0544,4.1119,4.1119,4.1119,4.1119,4.1119,4.0629,4.0096,4.0096,4.0096,4.0096,4.0096,4.0096,4.0096,4.0096,4.0096,4.0096,4.0096,4.0096,4.0096,4.0096,4.0096,4.0096,4.0096,4.0096,4.0096,4.0096,4.0096,4.0096,4.0096,4.0096,4.0096,4.0096,4.0096,4.0096,4.0096,4.0096,4.0096,4.0096,4.0096,4.0096,4.0096,4.0096,4.0096,4.0096,4.0096,4.0096,4.0096,4.0096,4.0096,4.0096,4.0096,4.0096,3.6882,3.8381,3.9761,4.021,3.9797,3.9637,4.1231,4.1455,4.1632,4.2924,4.3407,4.3731,4.4074,4.5517,4.6752,4.7039,4.9171,5.1048,5.1792,5.2401,5.2756,5.2756,0.0,0.0,0.0,0.0,0.0,0.0,0.0,0.0,4.9035,4.9001,4.9001,4.9001,4.9001,4.9001,4.9001,4.9001,4.8494,4.7479,4.7022,4.6261,4.5263,4.4818,4.4615,4.4615,4.4615,4.4615,4.4615,4.4615,4.413,4.3341,4.2912,4.21,4.117,4.0882,4.0476,4.0096,4.0096,4.0578,4.1204,4.1204,4.1204,4.1204,4.1204,4.0679,4.0096,4.0096,4.0096,4.0096,4.0096,4.0096,4.0096,4.0096,4.0096,4.0096,4.0096,4.0096,4.0096,4.0096,4.0096,4.0096,4.0096,4.0096,4.0096,4.0096,4.0096,4.0096,4.0096,4.0096,4.0096,4.0096,4.0096,4.0096,4.0096,4.0096,4.0096,4.0096,4.0096,4.0096,4.0096,4.0096,4.0096,4.0096,4.0096,4.0096,4.0096,4.0096,4.0096,4.0096,4.0096,4.0096,3.7028,3.8237,3.9622,4.0611,4.0468,4.0497,4.1948,4.2186,4.2558,4.4103,4.4688,4.4942,4.4942,4.6177,4.7293,4.753,4.9424,5.1031,5.1522,5.1809,5.1961,5.1961,0.0,0.0,0.0,0.0,0.0,0.0,0.0,0.0,0.0,4.9001,4.9001,4.9001,4.9001,4.9001,4.9001,4.8781,4.8409,4.7872,4.6921,4.6194,4.5669,4.4953,4.4615,4.4615,4.4615,4.4615,4.4615,4.4615,4.413,4.3341,4.2844,4.2049,4.1204,4.1204,4.073,4.0096,4.0096,4.0756,4.1542,4.1542,4.1542,4.1542,4.1542,4.0865,4.0096,4.0096,4.0096,4.0146,4.04,4.0282,4.0096,4.0096,4.0096,4.0096,4.0096,4.0096,4.0096,4.0096,4.0096,4.0096,4.0096,4.0096,4.0096,4.0096,4.0096,4.0096,4.0096,4.0096,4.0096,4.0096,4.0096,4.0096,4.0096,4.0096,4.0096,4.0096,4.0096,4.0096,4.0096,4.0096,4.0096,4.0096,4.0096,4.0096,4.0096,4.0096,4.0096,4.0096,4.0096,4.0096,3.7501,3.7861,3.8166,3.9733,4.0117,4.0918,4.3906,4.3243,4.3346,4.8018,4.7242,4.5703,4.572,4.572,4.5957,4.6667,4.8646,5.0084,5.0084,5.0727,5.12,0.0,0.0,0.0,0.0,0.0,0.0,0.0,0.0,0.0,0.0,4.9001,4.8984,4.8984,4.8984,4.8984,4.8984,4.8257,4.7872,4.7855,4.6413,4.5703,4.5669,4.4953,4.4615,4.4615,4.4615,4.4615,4.4615,4.4615,4.413,4.3392,4.3392,4.2479,4.1204,4.1204,4.073,4.0096,4.0096,4.1077,4.2286,4.2286,4.2286,4.2286,4.2286,4.128,4.0096,4.0113,4.0113,4.0282,4.1001,4.0646,4.0113,4.0113,4.0113,4.0113,4.0096,4.0096,4.0096,4.0096,4.0096,4.0096,4.0096,4.0096,4.0096,4.0096,4.0096,4.0096,4.0096,4.0096,4.0096,4.0096,4.0096,4.0096,4.0096,4.0096,4.0096,4.0096,4.0096,4.0096,4.0096,4.0096,4.0096,4.0096,4.0096,4.0096,4.0096,4.0096,4.0096,4.0096,4.0096,4.0096,3.7638,3.8267,3.9009,4.0493,4.1253,4.2294,4.48,4.4117,4.3814,4.6832,4.6515,4.5872,4.638,4.6904,4.7158,4.6836,4.8223,4.9509,5.0016,5.0287,0.0,0.0,0.0,0.0,0.0,0.0,0.0,0.0,0.0,0.0,0.0,4.8528,4.824,4.824,4.7716,4.7445,4.7445,4.7242,4.7124,4.7107,4.616,4.5703,4.5669,4.4953,4.4615,4.4615,4.4615,4.4615,4.4615,4.4615,4.413,4.3392,4.3392,4.2479,4.1204,4.1204,4.073,4.0096,4.0096,4.0713,4.1525,4.1525,4.1525,4.1627,4.2134,4.128,4.0214,4.073,4.0865,4.0798,4.0493,4.0646,4.0865,4.0865,4.0865,4.073,4.0214,4.0096,4.0096,4.0096,4.0096,4.0096,4.0096,4.0096,4.0096,4.0096,4.0096,4.0096,4.0096,4.0096,4.0096,4.0096,4.0096,4.0096,4.0096,4.0096,4.0096,4.0096,4.0096,4.0096,4.0096,4.0096,4.0096,4.0096,4.0096,4.0096,4.0096,4.0096,4.0096,4.0096,4.0096,4.0096,3.8058,3.8667,3.9343,4.0832,4.1963,4.3253,4.5262,4.5669,4.6024,4.7394,4.709,4.6802,4.753,4.7817,4.7868,4.7699,4.8426,4.9154,4.9593,4.9661,0.0,0.0,0.0,0.0,0.0,0.0,0.0,0.0,0.0,0.0,0.0,4.7868,4.7462,4.7462,4.7022,4.6786,4.6786,4.6498,4.6363,4.6346,4.5618,4.5094,4.479,4.4654,4.4445,4.413,4.4479,4.4615,4.4615,4.4615,4.413,4.3392,4.3392,4.2479,4.1204,4.1204,4.073,4.0096,4.0096,4.0764,4.1644,4.1644,4.1847,4.2117,4.2252,4.1457,4.0561,4.0713,4.0747,4.073,4.0561,4.0865,4.1136,4.0832,4.0747,4.0629,4.0197,4.0096,4.0096,4.0096,4.0096,4.0096,4.0096,4.0096,4.0096,4.0096,4.0096,4.0096,4.0096,4.0096,4.0096,4.0096,4.0096,4.0096,4.0096,4.0096,4.0096,4.0096,4.0096,4.0096,4.0096,4.0096,4.0096,4.0096,4.0096,4.0096,4.0096,4.0096,4.0096,4.0096,4.0096,4.0096,3.8717,3.9089,3.9462,4.1018,4.2523,4.4001,4.5568,4.7411,4.8798,4.8798,4.8376,4.8193,4.8883,4.846,4.824,4.89,4.9001,4.9001,4.9001,4.9001,0.0,0.0,0.0,0.0,0.0,0.0,0.0,0.0,0.0,0.0,0.0,4.7107,4.6701,4.6701,4.6616,4.6583,4.6583,4.5923,4.5602,4.5602,4.4936,4.413,4.3325,4.4198,4.4198,4.3544,4.4265,4.4615,4.4615,4.4615,4.4079,4.3291,4.3291,4.2405,4.1102,4.1102,4.0679,4.0113,4.018,4.1094,4.2202,4.2269,4.276,4.3156,4.2489,4.1779,4.1068,4.04,4.0197,4.035,4.0933,4.1153,4.1018,4.0282,4.0146,4.018,4.0113,4.0096,4.0096,4.0096,4.0096,4.0096,4.0096,4.0096,4.0096,4.0096,4.0096,4.0096,4.0096,4.0096,4.0096,4.0096,4.0096,4.0096,4.0096,4.0096,4.0096,4.0096,4.0096,4.0096,4.0096,4.0096,4.0096,4.0096,4.0096,4.0096,4.0096,4.0096,4.0096,4.0096,4.0096,4.0096,3.9631,3.9851,4.0367,4.2422,4.4096,4.5602,4.7107,4.7361,4.7259,4.7259,4.8071,4.8815,4.8968,4.8883,4.8832,4.8984,4.9001,4.9001,4.9001,4.9001,0.0,0.0,0.0,0.0,0.0,0.0,0.0,0.0,0.0,0.0,4.7039,4.6346,4.594,4.594,4.5365,4.5089,4.5089,4.4936,4.4852,0.0,4.4682,4.3887,4.2574,4.3988,4.4513,4.4333,4.453,4.4615,4.4615,4.4615,4.3775,4.254,4.254,4.1627,4.035,4.035,4.0248,4.018,4.0747,4.117,4.1525,4.21,4.2405,4.2506,4.2337,4.1779,4.117,4.1018,4.0967,4.0865,4.0468,4.0764,4.1018,4.0282,4.0527,4.0798,4.0231,4.0096,4.0096,4.0096,4.0096,4.0096,4.0096,4.0096,4.0096,4.0096,4.0096,4.0096,4.0096,4.0096,4.0096,4.0096,4.0096,4.0096,4.0096,4.0096,4.0096,4.0096,4.0096,4.0096,4.0096,4.0096,4.0096,4.0096,4.0096,4.0096,4.0096,4.0096,4.0096,4.0096,4.0096,4.0096,3.9377,3.9817,4.0722,4.3318,4.484,4.5991,4.7124,4.7073,4.6786,4.6786,4.7699,4.8376,4.8003,4.824,4.8376,4.8003,4.7953,4.7953,4.7953,4.7953,0.0,0.0,0.0,0.0,0.0,0.0,0.0,0.0,0.0,4.6261,4.6261,4.5568,4.5162,4.5162,4.4818,4.4615,4.4615,4.4215,4.4028,4.4012,4.3684,4.3091,4.2303,4.276,4.3352,4.4028,4.4028,4.4231,4.4615,4.4615,4.3893,4.2794,4.2439,4.1593,4.0578,4.0231,4.0333,4.0679,4.1068,4.166,4.2337,4.2709,4.3081,4.3318,4.2946,4.2303,4.1644,4.1305,4.095,4.0578,4.0197,4.04,4.0561,4.0197,4.0375,4.0561,4.018,4.0096,4.0096,4.0096,4.0096,4.0096,4.0096,4.0096,4.0096,4.0096,4.0096,4.0096,4.0096,4.0096,4.0096,4.0096,4.0096,4.0096,4.0096,4.0096,4.0096,4.0096,4.0096,4.0096,4.0096,4.0096,4.0096,4.0096,4.0096,4.0096,4.0096,4.0096,4.0096,4.0096,4.0096,4.0096,3.8802,3.9723,4.1145,4.3921,4.5043,4.5703,4.643,4.6498,4.6413,4.6413,4.7107,4.753,4.6904,4.731,4.7513,4.6887,4.6786,4.6786,4.6786,4.6786,0.0,0.0,0.0,0.0,0.0,0.0,0.0,0.0,0.0,4.5365,4.55,4.479,4.4479,4.4615,4.4615,4.4615,4.4615,4.3809,4.3392,4.3375,4.2523,4.21,4.2083,4.1356,4.1897,4.3375,4.3284,4.3741,4.4598,4.4462,4.3927,4.3166,4.254,4.1762,4.095,4.0485,4.0679,4.1238,4.1491,4.2361,4.3409,4.3572,4.4062,4.4462,4.3656,4.2878,4.2151,4.1407,4.0663,4.0096,4.0096,4.0096,4.0096,4.0096,4.0096,4.0096,4.0096,4.0096,4.0096,4.0096,4.0096,4.0096,4.0096,4.0096,4.0096,4.0096,4.0096,4.0096,4.0096,4.0096,4.0096,4.0096,4.0096,4.0096,4.0096,4.0096,4.0096,4.0096,4.0096,4.0096,4.0096,4.0096,4.0096,4.0096,4.0096,4.0096,4.0096,4.0096,4.0096,4.0096,4.0096,4.0096,3.8802,4.046,4.2431,4.4175,4.4682,4.4953,4.5686,4.5348,4.4902,4.4902,4.5974,4.6904,4.6802,4.687,4.6904,4.6802,4.6786,4.6786,4.6786,4.6786,0.0,0.0,0.0,0.0,0.0,0.0,0.0,0.0,4.4536,4.4012,4.4716,4.3995,4.3876,4.4581,4.4615,4.4615,4.4615,4.3809,4.3392,4.3375,4.2016,4.1356,4.1322,4.0561,4.139,4.3358,4.2726,4.3278,4.4564,4.3859,4.3132,4.2439,4.2337,4.1441,4.0316,4.0849,4.1119,4.139,4.2675,4.3223,4.3494,4.4198,4.4513,4.4462,4.3656,4.2878,4.2151,4.1407,4.0663,4.0096,4.0096,4.0096,4.0096,4.0096,4.0096,4.0096,4.0096,4.0096,4.0096,4.0096,4.0096,4.0096,4.0096,4.0096,4.0096,4.0096,4.0096,4.0096,4.0096,4.0096,4.0096,4.0096,4.0096,4.0096,4.0096,4.0096,4.0096,4.0096,4.0096,4.0096,4.0096,4.0096,4.0096,4.0096,4.0096,4.0096,4.0096,4.0096,4.0096,4.0096,4.0096,4.0096,3.9309,4.0324,4.1534,4.3453,4.3927,4.413,4.4908,4.4468,4.4062,4.4513,4.4418,4.4536,4.5427,4.5906,4.6041,4.5647,4.5179,4.5043,4.5483,4.5179,0.0,0.0,0.0,0.0,0.0,0.0,0.0,0.0,4.3764,4.3386,4.3301,4.3369,4.3572,4.3927,4.435,4.4395,4.3927,4.2763,4.1722,4.0871,4.0684,4.0578,4.0561,4.0248,4.0849,4.2168,4.183,4.254,4.3876,4.3098,4.2591,4.2252,4.1847,4.1288,4.0747,4.1085,4.1728,4.254,4.3172,4.3707,4.413,4.4496,4.4282,4.3859,4.3521,4.2608,4.1627,4.1288,4.0663,4.0096,4.0096,4.0096,4.0096,4.0096,4.0096,4.0096,4.0096,4.0096,4.0096,4.0096,4.0096,4.0096,4.0096,4.0096,4.0096,4.0096,4.0096,4.0096,4.0096,4.0096,4.0096,4.0096,4.0096,4.0096,4.0096,4.0096,4.0096,4.0096,4.0096,4.0096,4.0096,4.0096,4.0096,4.0096,4.0096,4.0096,4.0096,4.0096,4.0096,4.0096,4.0096,4.0096,3.892,3.9529,4.0265,4.21,4.297,4.3521,4.391,4.3707,4.3538,4.3938,4.3108,4.2642,4.3819,4.4468,4.4654,4.4079,4.3504,4.3403,4.4181,4.3792,0.0,0.0,0.0,0.0,0.0,0.0,0.0,0.0,4.2936,4.2692,4.2303,4.2828,4.3189,4.3375,4.3978,4.4012,4.3392,4.1938,4.0431,3.8908,3.9731,4.0096,4.0096,4.0096,4.0417,4.0916,4.0916,4.1762,4.3064,4.232,4.2016,4.1965,4.1407,4.1085,4.0933,4.1136,4.1914,4.2878,4.3064,4.3504,4.4022,4.4022,4.3606,4.3132,4.3132,4.2236,4.1204,4.1204,4.0663,4.0096,4.0096,4.0096,4.0096,4.0096,4.0096,4.0096,4.0096,4.0096,4.0096,4.0096,4.0096,4.0096,4.0096,4.0096,4.0096,4.0096,4.0096,4.0096,4.0096,4.0096,4.0096,4.0096,4.0096,4.0096,4.0096,4.0096,4.0096,4.0096,4.0096,4.0096,4.0096,4.0096,4.0096,4.0096,4.0096,4.0096,4.0096,4.0096,4.0096,4.0096,4.0096,4.0096,3.6738,3.7997,3.9242,4.0079,4.1847,4.325,4.2557,4.2929,4.3189,4.2557,4.2354,4.2303,4.2388,4.2439,4.2455,4.2422,4.2371,4.2625,4.3341,4.3426,0.0,0.0,0.0,0.0,0.0,0.0,0.0,0.0,4.1711,4.1593,4.2252,4.2337,4.2675,4.3375,4.3426,4.3426,4.3392,4.1929,4.0424,3.8908,3.9731,4.0096,4.0096,4.0096,4.013,4.0163,4.0163,4.0993,4.2286,4.1559,4.1271,4.1255,4.1221,4.0764,4.0248,4.0933,4.1255,4.1407,4.21,4.2371,4.2405,4.2405,4.2388,4.2354,4.2354,4.1813,4.1204,4.1204,4.0663,4.0096,4.0096,4.0096,4.0096,4.0096,4.0096,4.0096,4.0096,4.0096,4.0096,4.0096,4.0096,4.0096,4.0096,4.0096,4.0096,4.0096,4.0096,4.0096,4.0096,4.0096,4.0096,4.0096,4.0096,4.0096,4.0096,4.0096,4.0096,4.0096,4.0096,4.0096,4.0096,4.0096,4.0096,4.0096,4.0096,4.0096,4.0096,4.0096,4.0096,4.0096,4.0096,4.0096,3.569,3.6434,3.7364,3.9563,4.0688,4.1448,4.2134,4.2134,4.2049,4.2252,4.1542,4.1018,4.1508,4.1982,4.2286,4.2286,4.1897,4.1847,4.2591,4.2303,0.0,0.0,0.0,0.0,0.0,0.0,0.0,0.0,0.0,4.1102,4.0908,4.1339,4.1728,4.1982,4.2455,4.2223,4.1283,4.0759,3.9956,3.8908,3.9731,4.0096,4.0096,4.0096,4.0096,4.0096,4.0096,4.0688,4.1542,4.0781,4.0764,4.1153,4.0679,4.0612,4.0832,4.1102,4.1508,4.1931,4.2202,4.2286,4.2286,4.2286,4.1982,4.1593,4.1593,4.1068,4.0476,4.0476,4.0316,4.0096,4.0096,4.0096,4.0096,4.0096,4.0096,4.0096,4.0096,4.0096,4.0096,4.0096,4.0096,4.0096,4.0096,4.0096,4.0096,4.0096,4.0096,4.0096,4.0096,4.0096,4.0096,4.0096,4.0096,4.0096,4.0096,4.0096,4.0096,4.0096,4.0096,4.0096,4.0096,4.0096,4.0096,4.0096,4.0096,4.0096,4.0096,4.0096,4.0096,4.0096,4.0096,4.0096,3.4585,3.5025,3.5842,3.8362,3.9166,3.9673,4.0899,4.0815,4.0595,4.1085,4.0417,3.9977,4.0679,4.1221,4.1568,4.1568,4.1136,4.1085,4.183,4.1508,0.0,0.0,0.0,0.0,0.0,0.0,0.0,0.0,0.0,0.0,4.013,4.0798,4.1204,4.1204,4.1677,4.1208,3.9721,3.9982,3.9705,3.8908,3.9731,4.0096,4.0096,4.0096,4.0096,4.0096,4.0096,4.0383,4.0781,4.0316,4.04,4.0781,4.0299,4.0417,4.0832,4.0832,4.1136,4.1568,4.1568,4.1568,4.1568,4.1568,4.1221,4.0832,4.0832,4.0476,4.0096,4.0096,4.0096,4.0096,4.0096,4.0096,4.0096,4.0096,4.0096,4.0096,4.0096,4.0096,4.0096,4.0096,4.0096,4.0096,4.0096,4.0096,4.0096,4.0096,4.0096,4.0096,4.0096,4.0096,4.0096,4.0096,4.0096,4.0096,4.0096,4.0096,4.0096,4.0096,4.0096,4.0096,4.0096,4.0096,4.0096,4.0096,4.0096,4.0096,4.0096,4.0096,4.0096,4.0096,4.0096,4.0096,0.0,0.0,0.0,3.6355,3.7263,3.8007,3.8751,3.8937,3.8937,3.8954,3.8954,3.9191,3.9943,4.0087,4.0104,4.0121,4.0096,4.0367,4.1068,4.117,0.0,0.0,0.0,0.0,0.0,0.0,0.0,0.0,4.0096,4.0096,4.0096,4.0781,4.117,4.117,4.117,4.0452,3.8951,3.9714,3.9688,3.8902,3.968,4.0079,4.0079,4.0079,4.0079,4.0096,4.0096,4.0096,4.0096,4.0096,4.0096,4.0096,4.0096,4.0096,4.0096,4.0096,4.0096,4.0096,4.0096,4.0096,4.0096,4.0096,4.0096,4.0096,4.0096,4.0096,4.0096,4.0096,4.0096,4.0096,4.0096,4.0096,4.0096,4.0096,4.0096,4.0096,4.0096,4.0096,4.0096,4.0096,4.0096,4.0096,4.0096,4.0096,4.0096,4.0096,4.0096,4.0096,4.0096,4.0096,4.0096,4.0096,4.0096,4.0096,4.0096,4.0096,4.0096,4.0096,4.0096,4.0096,4.0096,4.0096,4.0096,4.0096,4.0096,4.0113,4.013,4.0113,4.0096,4.0096,4.0096,4.0096,3.2462,0.0,0.0,0.0,0.0,0.0,3.7117,3.7422,3.755,3.8091,3.821,3.843,3.9157,3.9614,4.0059,4.0593,4.0343,4.018,4.0383,4.0417,0.0,0.0,0.0,0.0,0.0,0.0,0.0,0.0,4.0096,4.0096,4.0096,4.0299,4.0417,4.0417,4.0417,4.0197,3.9782,3.9995,3.9724,3.8984,3.9201,3.9292,3.9292,3.9292,3.9605,4.0096,4.0096,4.0096,4.0096,4.0096,4.0096,4.0096,4.0096,4.0096,4.0096,4.0096,4.0096,4.0096,4.0096,4.0096,4.0096,4.0096,4.0096,4.0096,4.0096,4.0096,4.0096,4.0096,4.0096,4.0096,4.0096,4.0096,4.0096,4.0096,4.0096,4.0096,4.0096,4.0096,4.0096,4.0096,4.0096,4.0096,4.0096,4.0096,4.0096,4.0096,4.0096,4.0096,4.0096,4.0096,4.0096,4.0096,4.0096,4.0096,4.0096,4.0096,4.0096,4.0096,4.0096,4.0096,4.0096,4.0096,4.0096,4.0096,4.0096,4.0367,4.0882,4.0367,4.0096,4.0096,4.0096,4.0096,3.1819,3.1853,3.2209,3.366,0.0,0.0,3.5509,3.5588,3.5588,0.0,3.6485,3.6806,3.7872,3.8505,3.9205,4.0262,4.0377,4.0328,4.0439,4.0424,0.0,0.0,0.0,0.0,0.0,4.0096,4.0096,4.0096,4.0096,4.0096,4.0096,4.0096,4.0204,4.0441,4.0229,4.0051,3.998,3.9746,3.9259,3.8531,3.8531,3.87,3.8988,3.8988,3.9394,4.0096,4.0096,4.0096,4.0096,4.0096,4.0096,4.0096,4.0096,4.0096,4.0096,4.0096,4.0096,4.0096,4.0096,4.0096,4.0096,4.0096,4.0096,4.0096,4.0096,4.0096,4.0096,4.0096,4.0096,4.0096,4.0096,4.0096,4.0096,4.0096,4.0096,4.0096,4.0096,4.0096,4.0096,4.0096,4.0096,4.0096,4.0096,4.0096,4.0096,4.0096,4.0096,4.0096,4.0096,4.0096,4.0096,4.0096,4.0096,4.0096,4.0096,4.0096,4.0096,4.0096,4.0096,4.0096,4.0096,4.0096,4.0096,4.0096,4.0096,4.0468,4.1204,4.0764,4.0544,4.0544,4.0248,4.0096,3.1596,3.1427,3.1765,3.3085,3.2899,0.0,3.4066,3.3931,3.3711,0.0,3.4556,3.5064,3.6541,3.7202,3.7988,3.943,4.0188,4.0715,4.096,4.0995,4.0803,0.0,0.0,0.0,4.0113,4.0096,4.0096,4.0096,4.0096,4.0096,4.0096,4.0096,4.036,4.088,4.0356,3.9973,3.9794,3.9238,3.857,3.7787,3.7787,3.8159,3.887,3.887,3.9309,4.0096,4.0096,4.0096,4.0096,4.0096,4.0096,4.0096,4.0096,4.0096,4.0096,4.0096,4.0096,4.0096,4.0096,4.0096,4.0096,4.0096,4.0096,4.0096,4.0096,4.0096,4.0096,4.0096,4.0096,4.0096,4.0096,4.0096,4.0096,4.0096,4.0096,4.0096,4.0096,4.0096,4.0096,4.0096,4.0096,4.0096,4.0096,4.0096,4.0096,4.0096,4.0096,4.0096,4.0096,4.0096,4.0096,4.0096,4.0096,4.0096,4.0096,4.0096,4.0096,4.0096,4.0096,4.0096,4.0096,4.0096,4.0096,4.0096,4.018,4.0527,4.1204,4.1204,4.1204,4.1187,4.0536,4.018,3.2848,3.2983,3.3051,3.3339,3.3288,0.0,3.3558,3.3964,3.432,0.0,3.4979,3.569,3.6643,3.7247,3.7862,3.8764,3.9905,4.0908,4.1537,4.1621,4.1402,0.0,0.0,0.0,4.0146,4.0096,4.0096,4.0096,4.0096,4.0096,4.0096,4.0096,4.036,4.088,4.017,3.9784,3.9794,3.9053,3.8123,3.7015,3.7015,3.7398,3.8125,3.8125,3.8836,4.0096,4.0096,4.0096,4.0096,4.0096,4.0096,4.0096,4.0096,4.0096,4.0096,4.0096,4.0096,4.0096,4.0096,4.0096,4.0096,4.0096,4.0096,4.0096,4.0096,4.0096,4.0096,4.0096,4.0096,4.0096,4.0096,4.0096,4.0096,4.0096,4.0096,4.0096,4.0096,4.0096,4.0096,4.0096,4.0096,4.0096,4.0096,4.0096,4.0096,4.0096,4.0096,4.0096,4.0096,4.0096,4.0096,4.0096,4.0096,4.0096,4.0096,4.0096,4.0096,4.0096,4.0096,4.0096,4.0096,4.0096,4.0096,4.0096,4.0679,4.1068,4.1204,4.1204,4.1204,4.1204,4.1052,4.0663,3.2949,3.2848,0.0,3.2848,0.0,0.0,0.0,3.3694,3.3947,3.3947,3.3947,3.4184,3.4945,3.5547,3.6408,3.7918,3.8942,4.0081,4.158,4.181,4.1686,4.138,0.0,0.0,4.0546,4.0254,4.0096,4.0096,4.0096,4.0096,4.0096,3.9757,3.9815,4.0326,3.9576,3.9005,3.8712,3.8265,3.7445,3.6197,3.6197,3.6806,3.7905,3.7905,3.87,4.0096,4.0096,4.0096,4.0096,4.0096,4.0096,4.0096,4.0096,4.0096,4.0096,4.0096,4.0096,4.0096,4.0096,4.0096,4.0096,4.0096,4.0096,4.0096,4.0096,4.0096,4.0096,4.0096,4.0096,4.0096,4.0096,4.0096,4.0096,4.0096,4.0096,4.0096,4.0096,4.0096,4.0096,4.0096,4.0096,4.0096,4.0096,4.0096,4.0096,4.0096,4.0417,4.0536,4.0146,4.0434,4.0493,4.0146,4.0096,4.0096,4.0096,4.0096,4.0096,4.0096,4.0096,4.0096,4.0096,4.0096,4.0096,4.0096,4.0468,4.0832,4.1204,4.1204,4.1204,4.1187,4.0815,4.0468,0.0,0.0,0.0,0.0,0.0,3.3034,0.0,0.0,0.0,3.3609,3.3136,3.2953,3.3694,0.0,0.0,0.0,0.0,0.0,0.0,4.1008,0.0,4.1586,0.0,0.0,4.0756,4.0343,4.0096,4.0096,4.0096,4.0045,3.991,3.9309,3.9184,3.9586,3.8802,3.8131,3.7606,3.7386,3.6702,3.56,3.56,3.6411,3.7905,3.7905,3.87,4.0096,4.0096,4.0096,4.0096,4.0096,4.0096,4.0096,4.0096,4.0096,4.0096,4.0096,4.0096,4.0096,4.0096,4.0096,4.0096,4.0096,4.0096,4.0096,4.0096,4.0096,4.0096,4.0096,4.0096,4.0096,4.0096,4.0096,4.0096,4.0096,4.0096,4.0096,4.0096,4.0096,4.0096,4.0096,4.0096,4.0096,4.0096,4.0096,4.0096,4.0096,4.073,4.0984,4.04,4.0832,4.0967,4.0383,4.018,4.0096,4.0096,4.0096,4.0096,4.0096,4.0096,4.0096,4.0096,4.0096,4.0096,4.0096,4.0096,4.0375,4.0984,4.0984,4.1068,4.1187,4.0578,4.0248,0.0,0.0,0.0,0.0,3.5757,0.0,0.0,0.0,3.437,3.437,0.0,3.4472,3.5211,0.0,0.0,0.0,0.0,0.0,3.6974,3.8216,3.9529,4.0862,4.0949,0.0,0.0,4.0146,4.0096,4.0096,4.0096,3.9808,3.9157,3.9039,3.8945,3.8833,3.8044,3.7611,3.7588,3.6884,3.6225,3.56,3.56,3.6411,3.7905,3.7905,3.87,4.0096,4.0096,4.0096,4.0096,4.0096,4.0096,4.0096,4.0096,4.0096,4.0096,4.0096,4.0096,4.0096,4.0096,4.0096,4.0096,4.0096,4.0096,4.0096,4.0096,4.0096,4.0096,4.0096,4.0096,4.0096,4.0096,4.0096,4.0096,4.0096,4.0096,4.0096,4.0096,4.0096,4.0096,4.0096,4.0096,4.0096,4.0096,4.0096,4.0096,4.0096,4.073,4.117,4.1085,4.1153,4.117,4.1085,4.0476,4.0096,4.0096,4.0096,4.0096,4.0096,4.0096,4.0096,4.0096,4.0096,4.0096,4.0096,4.0096,4.0146,4.0231,4.0231,4.0544,4.1204,4.1119,4.0713,0.0,0.0,0.0,0.0,0.0,0.0,3.4556,0.0,3.503,0.0,0.0,0.0,0.0,0.0,0.0,0.0,3.5397,0.0,0.0,0.0,3.84,0.0,0.0,0.0,0.0,0.0,0.0,0.0,3.9622,3.9605,3.843,3.8362,3.8133,3.7609,3.7129,3.6732,3.6429,3.6422,3.6139,3.56,3.56,3.6411,3.7905,3.7905,3.87,4.0096,4.0096,4.0096,4.0096,4.0096,4.0096,4.0096,4.0096,4.0096,4.0096,4.0096,4.0096,4.0096,4.0096,4.0096,4.0096,4.0096,4.0311,4.0552,4.0552,4.0552,4.0552,4.0552,4.0343,4.0096,4.0096,4.0336,4.0497,4.0154,4.0336,4.0473,4.0171,4.0096,4.0096,4.0096,4.0096,4.0096,4.0096,4.0096,4.0096,4.0096,4.1085,4.1817,4.1805,4.2114,4.2216,4.1837,4.1057,4.0424,4.0121,4.0096,4.0096,4.0096,4.0096,4.0096,4.0096,4.0096,4.0096,4.0096,4.0096,4.0096,4.0096,4.0096,4.0265,4.057,4.0895,4.0861,3.7303,0.0,0.0,0.0,0.0,0.0,0.0,0.0,0.0,0.0,0.0,0.0,0.0,0.0,0.0,3.5216,0.0,3.5707,0.0,3.6671,0.0,0.0,0.0,0.0,0.0,0.0,0.0,3.8261,3.9191,3.914,3.7686,3.7601,3.7246,3.6485,3.6275,3.5989,3.56,3.5985,3.5985,3.56,3.56,3.6411,3.7905,3.7702,3.8497,4.0096,3.9893,3.991,4.0096,4.0096,4.0096,4.0096,4.0096,4.0096,4.0121,4.0279,4.0229,4.0146,4.0466,4.0587,4.0587,4.0587,4.0821,4.1155,4.1155,4.1041,4.0926,4.111,4.075,4.036,4.0538,4.0868,4.1059,4.0666,4.0726,4.0803,4.0417,4.0204,4.0096,4.0096,4.0096,4.0096,4.0096,4.0096,4.0096,4.0096,4.1503,4.2544,4.2514,4.3238,4.3523,4.2864,4.1886,4.103,4.0451,4.0231,4.0171,4.0311,4.0311,4.0311,4.0311,4.0179,4.0096,4.0096,4.0096,4.0096,4.0096,4.0096,4.0096,4.0096,4.0497,4.0756,0.0,0.0,0.0,3.7652,0.0,0.0,0.0,0.0,3.3955,0.0,0.0,0.0,0.0,0.0,3.4506,3.4523,3.4523,0.0,0.0,0.0,0.0,0.0,0.0,0.0,0.0,0.0,3.9757,3.9005,3.9005,3.8379,3.6914,3.6846,3.6468,3.565,3.5622,3.5622,3.56,3.5622,3.5622,3.56,3.56,3.6411,3.7889,3.7144,3.8031,4.0062,3.9368,3.9453,4.0096,4.0096,4.0096,4.0096,4.0096,4.0096,4.0171,4.0679,4.0552,4.0254,4.1353,4.1746,4.1746,4.1746,4.1768,4.1771,4.1771,4.1358,4.1018,4.1599,4.1335,4.1018,4.1599,4.1768,4.1768,4.1746,4.1313,4.0903,4.088,4.0473,4.0096,4.0096,4.0096,4.0096,4.0096,4.0096,4.0096,4.0096,4.1898,4.3266,4.3256,4.4419,4.5,4.4406,4.3013,4.1881,4.1205,4.0493,4.0336,4.0833,4.088,4.088,4.088,4.0368,4.0096,4.0096,4.0096,4.0096,4.0096,4.0096,4.0096,4.0096,4.0121,4.0417,0.0,0.0,3.7702,3.8447,0.0,0.0,0.0,0.0,0.0,0.0,0.0,0.0,0.0,0.0,3.5233,3.5233,3.5233,3.5233,0.0,0.0,0.0,0.0,0.0,0.0,0.0,0.0,0.0,3.7523,3.7557,3.7337,3.6829,3.6795,3.6417,3.5616,3.56,3.56,3.56,3.56,3.56,3.56,3.56,3.6411,3.7872,3.7151,3.8014,4.0062,3.9334,3.9436,4.0096,4.0096,4.0096,4.0096,4.0096,4.0096,4.0154,4.0703,4.078,4.075,4.1512,4.181,4.181,4.181,4.181,4.181,4.181,4.138,4.1018,4.1621,4.138,4.1041,4.1643,4.2101,4.2302,4.1895,4.1958,4.1874,4.1064,4.0756,4.0528,4.0154,4.0096,4.0265,4.073,4.0832,4.0646,4.018,4.1462,4.2838,4.378,4.4604,4.4896,4.4336,4.3334,4.2132,4.0595,4.0248,4.0196,4.0343,4.0368,4.0368,4.0368,4.0204,4.0096,4.0096,4.0096,4.0096,4.0096,4.0096,4.0286,4.0631,4.0631,4.0943,3.8413,3.8075,0.0,3.8413,3.7094,0.0,3.596,0.0,0.0,0.0,0.0,0.0,0.0,0.0,3.5028,3.5515,3.5385,3.5238,0.0,3.4974,0.0,0.0,0.0,0.0,0.0,3.6721,3.6518,3.6778,3.6795,3.6694,0.0,0.0,3.6146,3.5616,3.56,3.56,3.56,3.56,3.56,3.56,3.56,3.6411,3.7872,3.7151,3.8014,4.0062,3.9334,3.9436,4.0096,4.0096,4.0096,4.0096,4.0096,4.0096,4.0154,4.0685,4.1178,4.1599,4.1979,4.2226,4.2406,4.2406,4.2284,4.2121,4.2121,4.1686,4.1358,4.1958,4.1853,4.1664,4.2248,4.2676,4.2884,4.2503,4.2384,4.2162,4.1402,4.0897,4.0504,4.0171,4.0096,4.0333,4.1068,4.0984,4.073,4.051,4.2061,4.3471,4.4116,4.5111,4.5457,4.4676,4.3647,4.2221,4.0272,4.0262,4.0392,4.0392,4.0392,4.0392,4.0392,4.0392,4.0542,4.0891,4.0559,4.0542,4.0891,4.0367,4.0368,4.0903,4.0903,4.1335]}]]